Date StartTime U_cm/s V_cm/s W_cm/s Ustd_cm/s Vstd_cm/s Wstd_cm/s Uvar_(cm/s)^2 Vvar_(cm/s)^2 Wvar_(cm/s)^2 KE_(m/s)^2 TurbulentKE_(m/s)^2 HorizWindSpeed_cm/s FrictionSpeec_cm/s DragCoef SpeedOfSound_m/s SonicTemperature_C Pressure_mb 
07/27/2014  00:00:00     -147.814     -125.060       -7.398       67.154       62.107       35.357     4509.646     3857.220     1250.117        2.358        0.481      193.621       27.441        0.020      346.739       25.201      864.096
07/27/2014  00:01:00     -122.751      -73.022       -2.596       48.827       44.467       26.472     2384.115     1977.357      700.771        1.273        0.253      142.829       26.367        0.034      346.690       25.120      864.112
07/27/2014  00:02:00     -107.616      -63.816       -2.530       40.400       33.121       20.152     1632.142     1096.968      406.104        0.940        0.157      125.115       20.321        0.026      346.619       24.998      864.124
07/27/2014  00:03:00      -24.582      -31.052       20.295       41.952       34.341       22.983     1759.981     1179.317      528.203        0.272        0.173       39.604       19.938        0.253      346.545       24.869      864.121
07/27/2014  00:04:00      -61.842      -76.465        2.381       45.346       37.531       24.078     2056.236     1408.608      579.773        0.686        0.202       98.343       23.091        0.055      346.674       25.091      864.124
07/27/2014  00:05:00      -26.943      -68.352       12.791       64.901       39.065       27.070     4212.169     1526.051      732.796        0.601        0.324       73.471       23.464        0.102      346.530       24.843      864.123
07/27/2014  00:06:00      -94.249      -54.867        6.218       64.470       47.140       24.388     4156.381     2222.184      594.796        0.945        0.349      109.056       29.867        0.075      346.485       24.767      864.125
07/27/2014  00:07:00     -109.006      -57.678        4.772       62.439       52.130       31.550     3898.673     2717.487      995.391        1.142        0.381      123.325       35.651        0.084      346.299       24.446      864.141
07/27/2014  00:08:00     -119.786      -89.782       -6.852       33.087       42.434       22.521     1094.740     1800.625      507.214        1.293        0.170      149.698       18.291        0.015      346.415       24.645      864.154
07/27/2014  00:09:00     -125.066      -79.704        1.584       56.051       41.110       24.169     3141.675     1690.037      584.127        1.371        0.271      148.304       23.942        0.026      346.335       24.508      864.155
07/27/2014  00:10:00     -154.532      -77.956      -11.311       46.142       38.267       25.406     2129.076     1464.341      645.465        1.716        0.212      173.082       14.567        0.007      346.431       24.673      864.163
07/27/2014  00:11:00     -156.789      -74.101       -0.786       43.884       60.273       23.315     1925.762     3632.799      543.576        1.809        0.305      173.418       13.294        0.006      346.346       24.526      864.177
07/27/2014  00:12:00     -168.509      -91.112        5.491       51.195       57.718       29.686     2620.890     3331.321      881.279        2.178        0.342      191.564       26.478        0.019      346.240       24.342      864.186
07/27/2014  00:13:00     -158.541      -72.354        0.413       54.680       46.277       31.265     2989.902     2141.533      977.491        1.824        0.305      174.271       28.779        0.027      346.243       24.349      864.200
07/27/2014  00:14:00     -191.451     -125.900       -3.687       86.428       88.998       41.066     7469.725     7920.698     1686.386        3.479        0.854      229.138       46.638        0.041      346.741       25.203      864.188
07/27/2014  00:15:00     -145.519      -76.232        5.715       96.649       63.257       44.771     9341.062     4001.510     2004.462        2.118        0.767      164.277       45.668        0.077      346.639       25.030      864.193
07/27/2014  00:16:00     -159.536       21.146       -8.396       93.393       54.867       34.261     8722.228     3010.372     1173.844        1.944        0.645      160.931       39.257        0.060      345.630       23.294      864.207
07/27/2014  00:17:00     -137.469      -39.642       10.639       51.633       42.236       31.612     2665.944     1783.886      999.320        1.301        0.272      143.071       30.276        0.045      345.577       23.206      864.213
07/27/2014  00:18:00     -164.802      -91.988        1.774      118.092       45.967       30.013    13945.735     2112.975      900.787        2.629        0.848      188.737       39.886        0.045      345.854       23.679      864.200
07/27/2014  00:19:00     -195.206      -83.927        0.680      118.777       64.336       42.777    14108.017     4139.159     1829.862        3.261        1.004      212.484       54.666        0.066      346.517       24.817      864.205
07/27/2014  00:20:00     -113.252      -68.305       -3.238       82.711       49.660       38.598     6841.183     2466.087     1489.809        1.415        0.540      132.256       41.955        0.101      346.334       24.506      864.202
07/27/2014  00:21:00     -106.140      -28.294       -3.397       60.293       46.799       27.597     3635.245     2190.154      761.606        0.933        0.329      109.846       21.784        0.039      345.835       23.649      864.191
07/27/2014  00:22:00     -160.888      -54.820        6.759      108.115       65.117       44.686    11688.768     4240.179     1996.822        2.343        0.896      169.971       56.100        0.109      346.174       24.231      864.169
07/27/2014  00:23:00     -135.323      -41.356        6.608       66.921       61.706       40.475     4478.476     3807.633     1638.192        1.499        0.496      141.501       40.013        0.080      346.098       24.102      864.168
07/27/2014  00:24:00     -150.210      -23.394      -13.105       57.113       40.261       22.838     3261.901     1620.971      521.587        1.434        0.270      152.021       19.505        0.016      345.697       23.412      864.167
07/27/2014  00:25:00     -214.711       47.243       -9.810       67.971       44.628       31.991     4620.120     1991.699     1023.402        2.803        0.382      219.847       28.655        0.017      345.439       22.966      864.164
07/27/2014  00:26:00     -189.816      -13.430      -12.133       69.136       54.694       34.151     4779.755     2991.432     1166.317        2.265        0.447      190.290       34.700        0.033      345.421       22.936      864.170
07/27/2014  00:27:00     -199.662       -9.095       -4.967       75.395       55.630       30.948     5684.334     3094.678      957.782        2.485        0.487      199.869       34.174        0.029      345.917       23.787      864.160
07/27/2014  00:28:00     -229.173       -5.263      -28.608       48.344       55.644       28.482     2337.102     3096.230      811.247        2.980        0.312      229.234       23.857        0.011      346.062       24.035      864.147
07/27/2014  00:29:00     -151.803       59.046      -23.372      104.995       84.539       39.317    11023.987     7146.876     1545.819        2.339        0.986      162.882       47.079        0.084      345.432       22.955      864.161
07/27/2014  00:30:00     -170.682       14.144       -8.466       68.710       69.335       36.978     4721.081     4807.316     1367.349        2.015        0.545      171.267       34.677        0.041      345.357       22.828      864.151
07/27/2014  00:31:00     -152.814       45.770      -18.902       51.125       36.328       26.496     2613.746     1319.696      702.043        1.522        0.232      159.521       25.217        0.025      345.402       22.906      864.135
07/27/2014  00:32:00     -148.624       77.072      -16.376       69.062       55.535       34.866     4769.567     3084.082     1215.628        1.868        0.453      167.419       26.105        0.024      345.881       23.726      864.121
07/27/2014  00:33:00     -169.277      -11.511      -13.476       77.279       62.761       38.147     5972.113     3938.883     1455.223        2.017        0.568      169.668       33.649        0.039      345.546       23.152      864.121
07/27/2014  00:34:00      -86.524       -8.316       -0.361       62.424       43.429       39.626     3896.785     1886.078     1570.229        0.745        0.368       86.923       41.186        0.225      345.419       22.936      864.110
07/27/2014  00:35:00     -143.548       53.813       -8.879       43.341       73.951       32.912     1878.480     5468.686     1083.173        1.600        0.422      153.304       25.759        0.028      345.359       22.832      864.112
07/27/2014  00:36:00      -89.766      -18.436       -4.790       52.409       55.484       33.829     2746.714     3078.528     1144.375        0.769        0.348       91.640       32.441        0.125      345.350       22.817      864.106
07/27/2014  00:37:00     -122.424      -30.188       -9.987       51.738       65.204       28.398     2676.861     4251.592      806.437        1.187        0.387      126.091       19.820        0.025      345.340       22.800      864.091
07/27/2014  00:38:00     -132.324      -12.325      -11.533       47.856       58.079       36.484     2290.188     3373.213     1331.069        1.239        0.350      132.897       29.970        0.051      345.525       23.115      864.086
07/27/2014  00:39:00     -151.853        9.464      -16.763       52.721       87.489       32.971     2779.548     7654.264     1087.092        1.747        0.576      152.147       18.876        0.015      345.525       23.117      864.084
07/27/2014  00:40:00     -134.238      -63.494       -4.273       89.611       50.689       33.558     8030.122     2569.405     1126.132        1.690        0.586      148.497       32.519        0.048      345.636       23.306      864.083
07/27/2014  00:41:00     -138.990      -76.278      -11.263       54.558       57.021       33.959     2976.623     3251.426     1153.224        1.632        0.369      158.545       25.937        0.027      345.563       23.181      864.099
07/27/2014  00:42:00     -149.655      -46.515       -4.518       70.317       53.334       31.369     4944.473     2844.555      984.000        1.668        0.439      156.717       34.742        0.049      345.629       23.294      864.096
07/27/2014  00:43:00     -210.822      -44.259       -4.328       51.651       47.514       34.915     2667.873     2257.627     1219.044        2.628        0.307      215.417       26.857        0.016      345.421       22.935      864.115
07/27/2014  00:44:00     -204.057        0.380      -21.370       64.031       65.116       37.006     4099.979     4240.067     1369.429        2.590        0.485      204.057       32.599        0.026      345.259       22.660      864.128
07/27/2014  00:45:00      -89.240      -29.375        1.377       65.798       48.014       33.107     4329.315     2305.377     1096.044        0.828        0.387       93.950       32.287        0.118      345.299       22.729      864.135
07/27/2014  00:46:00     -126.998      -38.910       -7.479       71.281       39.657       29.135     5080.984     1572.643      848.857        1.260        0.375      132.825       28.756        0.047      345.172       22.514      864.170
07/27/2014  00:47:00     -106.252      -23.420       -2.494       78.464       49.821       20.848     6156.524     2482.170      434.621        1.046        0.454      108.802       28.841        0.070      345.127       22.435      864.182
07/27/2014  00:48:00      -52.136      -18.844       -9.194       34.760       27.133       21.950     1208.232      736.179      481.810        0.279        0.121       55.437       21.029        0.144      345.151       22.476      864.189
07/27/2014  00:49:00      -97.380      -15.372      -12.312       18.316       32.314       15.442      335.464     1044.193      238.447        0.574        0.081       98.585       11.793        0.014      345.222       22.598      864.196
07/27/2014  00:50:00      -98.931      -79.394       -0.071       81.681       43.964       26.979     6671.705     1932.823      727.880        1.271        0.467      126.849       37.503        0.087      345.405       22.909      864.195
07/27/2014  00:51:00     -141.460     -102.727       -6.908       63.100       40.787       32.392     3981.576     1663.597     1049.249        1.865        0.335      174.825       28.411        0.026      345.498       23.068      864.201
07/27/2014  00:52:00     -190.048      -75.248       -8.125       68.842       41.571       27.791     4739.219     1728.152      772.342        2.454        0.362      204.402       23.440        0.013      345.417       22.930      864.203
07/27/2014  00:53:00     -101.625      -29.569       -6.834       50.917       37.941       20.101     2592.547     1439.553      404.039        0.784        0.222      105.839       19.485        0.034      345.411       22.921      864.211
07/27/2014  00:54:00      -96.629      -74.867       -8.673       40.295       33.921       14.546     1623.647     1150.651      211.575        0.900        0.149      122.238       11.183        0.008      345.602       23.249      864.217
07/27/2014  00:55:00     -103.475      -59.879       -4.876       38.950       40.422       19.857     1517.111     1633.908      394.298        0.893        0.177      119.551       16.414        0.019      345.543       23.149      864.213
07/27/2014  00:56:00      -44.924      -63.913        9.199       59.831       41.297       21.269     3579.691     1705.452      452.371        0.596        0.287       78.122       24.574        0.099      345.440       22.970      864.220
07/27/2014  00:57:00      -70.096      -68.520       16.424       72.189       60.128       34.539     5211.213     3615.403     1192.929        0.995        0.501       98.023       44.122        0.203      345.504       23.079      864.221
07/27/2014  00:58:00     -130.210      -43.247        0.681       60.005       41.509       27.388     3600.656     1723.013      750.109        1.245        0.304      137.204       31.012        0.051      345.454       22.995      864.227
07/27/2014  00:59:00      -98.936      -51.363       -0.934       52.554       34.276       21.543     2761.925     1174.849      464.095        0.841        0.220      111.474       22.237        0.040      345.376       22.862      864.247
07/27/2014  01:00:00      -35.765      -21.719        6.857       33.159       19.927       16.031     1099.526      397.086      257.008        0.178        0.088       41.843       17.361        0.172      345.348       22.813      864.235
07/27/2014  01:01:00      -37.276      -36.536       -5.243       50.483       26.343       20.336     2548.532      693.973      413.557        0.320        0.183       52.195       14.523        0.077      345.467       23.019      864.212
07/27/2014  01:02:00      -78.002      -52.939        2.495       54.272       30.517       20.250     2945.409      931.298      410.068        0.659        0.214       94.271       17.711        0.035      345.471       23.025      864.232
07/27/2014  01:03:00     -127.163      -34.158       -7.610       58.274       33.193       24.504     3395.847     1101.798      600.453        1.125        0.255      131.671       29.700        0.051      345.366       22.845      864.237
07/27/2014  01:04:00      -59.098      -32.640        5.271       37.040       43.296       18.309     1371.959     1874.567      335.223        0.408        0.179       67.513       18.046        0.071      345.340       22.801      864.245
07/27/2014  01:05:00      -74.938      -32.758      -12.725       45.127       27.471       17.165     2036.407      754.658      294.639        0.497        0.154       81.785       15.142        0.034      345.874       23.717      864.266
07/27/2014  01:06:00      -69.461       16.711       -4.725       31.244       28.764       14.257      976.209      827.369      203.272        0.357        0.100       71.443       14.306        0.040      345.488       23.055      864.275
07/27/2014  01:07:00      -34.063      -37.062       -5.192       14.505       22.895       15.348      210.391      524.195      235.571        0.177        0.049       50.338       13.963        0.077      345.620       23.280      864.273
07/27/2014  01:08:00      -71.008      -42.839       -3.748       37.379       16.759       14.653     1397.225      280.848      214.716        0.439        0.095       82.929        6.285        0.006      345.527       23.123      864.289
07/27/2014  01:09:00      -61.912      -38.631       -5.420       16.493       17.343       12.440      272.013      300.792      154.754        0.304        0.036       72.976        7.683        0.011      345.499       23.071      864.291
07/27/2014  01:10:00      -92.060      -33.284       -5.198       29.536       15.412        8.843      872.347      237.527       78.199        0.540        0.059       97.892        4.210        0.002      345.853       23.680      864.286
07/27/2014  01:11:00      -49.202      -27.010       -1.736       23.596       24.424       11.980      556.772      596.539      143.511        0.222        0.065       56.128       12.981        0.053      345.759       23.517      864.281
07/27/2014  01:12:00      -31.869      -72.608       -5.493       25.756       37.534       14.836      663.395     1408.783      220.120        0.430        0.115       79.294       14.114        0.032      345.666       23.361      864.290
07/27/2014  01:13:00      -61.596     -128.686      -10.412       23.173       35.038       13.079      537.009     1227.659      171.052        1.120        0.097      142.668        3.915        0.001      345.871       23.712      864.294
07/27/2014  01:14:00      -24.481      -28.099       -4.012       38.141       22.883       14.666     1454.714      523.642      215.087        0.180        0.110       37.268       17.903        0.231      345.696       23.411      864.283
07/27/2014  01:15:00      -21.019      -50.674        0.583       33.545       31.713       14.057     1125.296     1005.727      197.587        0.267        0.116       54.860        7.435        0.018      345.770       23.539      864.283
07/27/2014  01:16:00      -99.863      -86.440       -4.757       28.451       42.234       20.569      809.463     1783.689      423.068        1.024        0.151      132.078       17.748        0.018      345.740       23.487      864.282
07/27/2014  01:17:00      -90.028      -38.977        0.770       57.753       28.854       17.519     3335.415      832.579      306.914        0.705        0.224       98.103       19.721        0.040      345.554       23.168      864.279
07/27/2014  01:18:00      -81.799      -19.702       -6.295       28.253       28.657       11.572      798.259      821.247      133.903        0.444        0.088       84.138        7.150        0.007      345.521       23.113      864.281
07/27/2014  01:19:00      -12.667      -17.298       -0.124       19.662       11.374        8.881      386.594      129.373       78.868        0.053        0.030       21.440        5.745        0.072      345.391       22.886      864.282
07/27/2014  01:20:00      -65.965      -10.374       -0.269       35.718       27.251       15.846     1275.756      742.601      251.096        0.336        0.113       66.776       15.730        0.055      345.367       22.848      864.270
07/27/2014  01:21:00      -71.289       -9.347       -5.906       20.941       24.370       15.571      438.517      593.887      242.464        0.324        0.064       71.899       10.726        0.022      345.294       22.721      864.266
07/27/2014  01:22:00      -88.919        3.504       -8.132       33.674       18.494       14.362     1133.943      342.020      206.258        0.483        0.084       88.988        9.394        0.011      345.207       22.573      864.265
07/27/2014  01:23:00      -83.016      -35.998        7.721       33.820       26.765       16.855     1143.761      716.357      284.098        0.520        0.107       90.485       15.384        0.029      345.112       22.411      864.275
07/27/2014  01:24:00      -82.454      -34.495        1.342       49.686       30.869       18.676     2468.651      952.925      348.809        0.588        0.189       89.379       16.278        0.033      345.003       22.223      864.282
07/27/2014  01:25:00      -56.345      -93.046       -4.025       28.435       27.077       17.334      808.562      733.182      300.464        0.684        0.092      108.776       16.723        0.024      345.417       22.933      864.282
07/27/2014  01:26:00      -42.254      -60.685        3.341       34.263       28.802       18.981     1173.966      829.575      360.262        0.392        0.118       73.946       18.035        0.059      345.361       22.836      864.277
07/27/2014  01:27:00      -95.691      -66.801       -4.900       41.116       34.456       21.298     1690.519     1187.247      453.612        0.849        0.167      116.701       22.220        0.036      345.362       22.837      864.277
07/27/2014  01:28:00      -83.833      -84.858       -1.554       33.153       50.204       24.250     1099.104     2520.482      588.044        0.922        0.210      119.285       26.514        0.049      345.394       22.892      864.279
07/27/2014  01:29:00      -82.428      -57.785       -4.550       24.707       26.231       18.116      610.455      688.080      328.191        0.589        0.081      100.665       16.652        0.027      345.405       22.912      864.286
07/27/2014  01:30:00      -86.881      -53.128       -7.135       24.055       17.589       14.546      578.631      309.384      211.581        0.576        0.055      101.838       11.278        0.012      345.468       23.021      864.293
07/27/2014  01:31:00      -43.395      -63.514        2.548       41.637       30.643       19.520     1733.626      938.974      381.044        0.449        0.153       76.923       19.037        0.061      345.446       22.981      864.293
07/27/2014  01:32:00      -65.342      -41.978        0.039       24.013       25.600       14.474      576.604      655.355      209.490        0.374        0.072       77.664        9.676        0.016      345.440       22.973      864.284
07/27/2014  01:33:00      -64.770       -6.933       -2.379       32.878       22.070       16.353     1080.956      487.068      267.420        0.304        0.092       65.140       19.267        0.087      345.184       22.533      864.282
07/27/2014  01:34:00      -40.375      -16.015        3.684       39.319       29.314       16.365     1545.969      859.306      267.808        0.229        0.134       43.435       16.938        0.152      344.936       22.109      864.299
07/27/2014  01:35:00      -37.850       -3.062        5.105       31.126       25.143       23.541      968.821      632.166      554.187        0.181        0.108       37.974       19.555        0.265      344.762       21.810      864.308
07/27/2014  01:36:00      -96.275       -8.256        2.875       48.329       27.178       26.438     2335.647      738.653      698.982        0.656        0.189       96.629       27.543        0.081      344.665       21.646      864.323
07/27/2014  01:37:00      -96.814      -12.731        5.233       56.833       39.045       23.532     3230.022     1524.485      553.750        0.743        0.265       97.647       24.847        0.065      344.711       21.724      864.326
07/27/2014  01:38:00      -91.061      -24.988       12.602       42.402       37.408       26.359     1797.951     1399.385      694.781        0.648        0.195       94.427       23.314        0.061      344.792       21.863      864.325
07/27/2014  01:39:00      -98.223      -66.282        1.985       32.644       24.609       19.831     1065.624      605.607      393.266        0.805        0.103      118.495       12.571        0.011      344.947       22.128      864.322
07/27/2014  01:40:00     -115.224      -50.623        1.294       36.935       29.379       17.169     1364.219      863.118      294.786        0.918        0.126      125.854       14.519        0.013      345.082       22.359      864.325
07/27/2014  01:41:00      -82.011      -21.671        1.869       43.136       37.189       19.199     1860.746     1383.019      368.617        0.540        0.181       84.826       21.841        0.066      345.022       22.256      864.330
07/27/2014  01:42:00      -64.869        2.639        6.962       34.633       27.264       21.131     1199.454      743.323      446.519        0.333        0.119       64.922       21.807        0.113      344.931       22.101      864.332
07/27/2014  01:43:00      -70.040       -5.114       -2.771       32.323       22.517       18.575     1044.761      507.030      345.019        0.342        0.095       70.226       19.333        0.076      344.737       21.769      864.339
07/27/2014  01:44:00      -31.622      -18.907        0.672       23.388       17.941       14.714      546.995      321.885      216.506        0.122        0.054       36.843       12.524        0.116      344.810       21.895      864.352
07/27/2014  01:45:00      -27.027      -19.498        0.813       15.458       10.193        8.773      238.944      103.890       76.957        0.077        0.021       33.326        5.409        0.026      344.840       21.944      864.362
07/27/2014  01:46:00      -60.358      -18.885       -7.017       21.014       11.264       10.002      441.578      126.869      100.048        0.236        0.033       63.243        5.268        0.007      344.850       21.962      864.372
07/27/2014  01:47:00      -62.635      -34.690       -8.029       13.547       10.061       10.361      183.531      101.221      107.342        0.279        0.020       71.600        5.233        0.005      344.942       22.119      864.389
07/27/2014  01:48:00      -64.787      -25.985        0.805       17.089       15.082       11.295      292.024      227.466      127.566        0.276        0.032       69.804        7.892        0.013      344.941       22.118      864.391
07/27/2014  01:49:00      -67.146       12.960       -1.516       11.937        9.773        4.095      142.501       95.506       16.765        0.247        0.013       68.385        2.605        0.001      345.022       22.255      864.383
07/27/2014  01:50:00      -86.177       23.222       -7.886       18.120       16.763       12.161      328.343      280.998      147.880        0.439        0.038       89.251        5.978        0.004      344.923       22.087      864.386
07/27/2014  01:51:00     -105.504       10.672      -10.039       22.219       18.092       14.738      493.665      327.325      217.221        0.619        0.052      106.042       10.743        0.010      344.882       22.017      864.396
07/27/2014  01:52:00      -58.002        9.366       -0.686       36.349       19.881       20.303     1321.268      395.265      412.226        0.279        0.106       58.753       19.470        0.110      344.884       22.020      864.396
07/27/2014  01:53:00      -71.752       -7.349       -0.826       23.514       17.907       13.188      552.924      320.670      173.933        0.313        0.052       72.128        9.794        0.018      344.974       22.174      864.389
07/27/2014  01:54:00      -60.555      -23.096        2.048       30.231       20.417       11.242      913.919      416.854      126.391        0.283        0.073       64.810       13.846        0.046      344.975       22.177      864.393
07/27/2014  01:55:00     -103.978      -32.519       -4.987       27.610       15.678        9.995      762.320      245.813       99.910        0.650        0.055      108.945       10.247        0.009      345.016       22.245      864.404
07/27/2014  01:56:00      -61.878      -60.111        3.730       52.787       28.677       20.868     2786.486      822.392      435.492        0.575        0.202       86.268       22.022        0.065      344.813       21.897      864.426
07/27/2014  01:57:00     -103.868      -18.482       -2.425       62.628       23.936       22.009     3922.206      572.938      484.382        0.806        0.249      105.500       32.633        0.096      344.751       21.792      864.446
07/27/2014  01:58:00      -93.759      -35.871       -8.215       26.037       28.704       13.198      677.941      823.914      174.177        0.591        0.084      100.386       11.043        0.012      344.779       21.840      864.462
07/27/2014  01:59:00     -109.085      -59.323        2.716       42.843       30.722       19.254     1835.564      943.812      370.722        0.929        0.158      124.172       14.329        0.013      344.882       22.016      864.486
07/27/2014  02:00:00      -54.284       -8.653        0.640       25.614       14.716       10.117      656.054      216.571      102.359        0.200        0.049       54.969       11.111        0.041      344.644       21.609      864.500
07/27/2014  02:01:00      -22.676      -21.290        6.331       26.004       18.111       15.708      676.222      327.997      246.747        0.113        0.063       31.104       15.837        0.259      344.740       21.774      864.501
07/27/2014  02:02:00      -31.777      -18.850       -1.135       23.047       14.415       11.952      531.156      207.805      142.856        0.112        0.044       36.948       12.415        0.113      344.740       21.771      864.513
07/27/2014  02:03:00      -74.249      -33.375       -8.120       16.178       16.190        7.342      261.734      262.102       53.911        0.364        0.029       81.405        3.902        0.002      344.886       22.023      864.520
07/27/2014  02:04:00      -86.394      -44.505       -7.501       31.101       14.580       12.482      967.254      212.586      155.805        0.542        0.067       97.183       11.912        0.015      344.948       22.130      864.539
07/27/2014  02:05:00      -58.683      -37.289       -1.948       12.971       16.428        8.043      168.259      269.883       64.693        0.267        0.025       69.528        3.373        0.002      344.961       22.150      864.552
07/27/2014  02:06:00      -57.860      -20.875       -3.297       30.145       26.071       14.122      908.699      679.720      199.423        0.279        0.089       61.510       12.606        0.042      344.869       21.994      864.554
07/27/2014  02:07:00      -64.010       21.849       -5.508       18.849       19.603       10.507      355.282      384.283      110.389        0.273        0.042       67.636        6.593        0.010      344.526       21.406      864.571
07/27/2014  02:08:00      -70.889      -43.479      -10.855       20.678       19.430       10.776      427.569      377.522      116.113        0.398        0.046       83.161        6.477        0.006      344.658       21.633      864.578
07/27/2014  02:09:00      -57.515      -30.088        4.179       38.018       16.784       15.092     1445.356      281.709      227.769        0.309        0.098       64.909       19.103        0.087      344.608       21.546      864.603
07/27/2014  02:10:00      -86.966      -12.195       -5.883       28.368       25.351       13.886      804.760      642.651      192.810        0.469        0.082       87.817       13.117        0.022      344.437       21.255      864.612
07/27/2014  02:11:00      -66.870      -11.163        2.306       28.989       17.015       14.162      840.378      289.501      200.549        0.297        0.067       67.796       16.667        0.060      344.425       21.235      864.614
07/27/2014  02:12:00      -57.271       -5.051       -4.831       18.781       12.923        7.567      352.725      166.998       57.256        0.195        0.029       57.494        7.915        0.019      344.597       21.530      864.610
07/27/2014  02:13:00     -118.972       12.966      -14.534       44.176       30.507       18.529     1951.540      930.699      343.316        0.888        0.161      119.677       20.901        0.031      344.439       21.258      864.625
07/27/2014  02:14:00      -41.579        2.495       -5.847       28.613       19.220       16.886      818.713      369.404      285.127        0.162        0.074       41.653       16.776        0.162      344.425       21.234      864.610
07/27/2014  02:15:00      -71.066       -6.632       -7.903       42.203       23.222       14.139     1781.070      539.266      199.920        0.384        0.126       71.374       12.490        0.031      344.499       21.362      864.609
07/27/2014  02:16:00     -138.227       -8.713      -16.805       37.601       34.334       19.291     1413.828     1178.822      372.148        1.121        0.148      138.501       17.464        0.016      344.400       21.193      864.622
07/27/2014  02:17:00      -71.081      -15.829        0.188       27.288       28.429       19.173      744.653      808.210      367.594        0.361        0.096       72.822       14.671        0.041      344.407       21.203      864.634
07/27/2014  02:18:00     -119.239        9.661       -1.647       54.738       39.880       25.919     2996.247     1590.388      671.769        0.979        0.263      119.630       28.053        0.055      344.315       21.045      864.652
07/27/2014  02:19:00      -75.455      -10.389       -7.450       34.579       22.320       14.004     1195.734      498.171      196.105        0.387        0.095       76.167       13.426        0.031      344.217       20.879      864.649
07/27/2014  02:20:00      -86.593       -8.599       -1.345       47.642       30.983       19.273     2269.752      959.971      371.438        0.559        0.180       87.019       20.652        0.056      344.207       20.863      864.651
07/27/2014  02:21:00      -81.919       -2.673       -0.221       36.922       21.927       21.299     1363.251      480.776      453.661        0.451        0.115       81.963       23.677        0.083      344.182       20.818      864.656
07/27/2014  02:22:00     -154.715       33.269      -13.575       40.113       29.321       17.703     1609.084      859.698      313.389        1.400        0.139      158.252       13.069        0.007      344.143       20.754      864.649
07/27/2014  02:23:00     -174.346       23.867      -16.770       46.907       27.707       14.379     2200.303      767.670      206.758        1.721        0.159      175.972       11.666        0.004      344.136       20.740      864.647
07/27/2014  02:24:00     -109.992       16.096       -2.772       57.093       34.243       24.921     3259.573     1172.597      621.065        0.871        0.253      111.163       30.009        0.073      344.170       20.799      864.645
07/27/2014  02:25:00      -80.470       -6.326       -7.082       54.802       30.542       18.366     3003.217      932.831      337.303        0.542        0.214       80.718       24.484        0.092      344.140       20.747      864.647
07/27/2014  02:26:00     -102.554      -38.795       -9.832       29.863       32.023       18.787      891.814     1025.459      352.970        0.719        0.114      109.646       17.851        0.027      344.161       20.783      864.652
07/27/2014  02:27:00     -121.830      -41.791       -4.435       48.642       44.826       24.742     2366.071     2009.378      612.169        1.080        0.249      128.799        9.349        0.005      344.117       20.709      864.648
07/27/2014  02:28:00      -98.980      -12.323       -4.977       33.594       34.383       20.929     1128.563     1182.203      438.035        0.636        0.137       99.744       15.517        0.024      344.070       20.628      864.635
07/27/2014  02:29:00     -107.788      -20.021      -11.224       31.601       32.080       19.614      998.615     1029.143      384.706        0.728        0.121      109.631       18.363        0.028      344.089       20.661      864.630
07/27/2014  02:30:00     -103.255      -15.666       -9.669       24.297       28.119       15.826      590.334      790.673      250.464        0.632        0.082      104.436       10.520        0.010      344.094       20.668      864.616
07/27/2014  02:31:00      -97.688      -36.064       -3.469       33.720       31.736       14.839     1137.027     1007.159      220.198        0.661        0.118      104.132       20.266        0.038      344.133       20.736      864.597
07/27/2014  02:32:00     -109.162      -33.729       -7.075       18.480       24.401       10.559      341.516      595.393      111.500        0.708        0.052      114.254        8.104        0.005      344.098       20.675      864.585
07/27/2014  02:33:00     -124.566      -21.396       -6.442       24.209       23.762       15.111      586.086      564.652      228.354        0.870        0.069      126.390       12.798        0.010      344.108       20.690      864.582
07/27/2014  02:34:00     -128.728        8.239      -10.001       30.856       23.417       15.318      952.116      548.365      234.629        0.924        0.087      128.991       14.436        0.013      344.067       20.623      864.571
07/27/2014  02:35:00     -169.977      -11.051      -17.630       34.361       31.829       20.115     1180.673     1013.111      404.601        1.596        0.130      170.336       21.462        0.016      344.216       20.879      864.556
07/27/2014  02:36:00     -115.568      -23.290        0.288       52.187       36.411       29.383     2723.436     1325.753      863.334        0.940        0.246      117.892       25.491        0.047      344.156       20.775      864.558
07/27/2014  02:37:00      -93.506       -5.842       -9.330       60.241       26.643       28.543     3629.034      709.859      814.675        0.701        0.258       93.688       35.021        0.140      344.213       20.872      864.539
07/27/2014  02:38:00     -131.628      -18.836       -5.317       43.487       28.061       28.412     1891.148      787.447      807.220        1.060        0.174      132.969       21.512        0.026      344.133       20.735      864.541
07/27/2014  02:39:00     -151.972       -8.835      -13.409       34.407       30.940       26.386     1183.822      957.264      696.227        1.309        0.142      152.229       22.077        0.021      344.128       20.726      864.554
07/27/2014  02:40:00     -141.626       22.354       -3.008       32.328       30.416       24.194     1045.108      925.118      585.366        1.156        0.128      143.380       19.414        0.018      344.187       20.828      864.564
07/27/2014  02:41:00     -147.757       21.121      -14.029       35.255       32.333       18.890     1242.945     1045.447      356.831        1.256        0.132      149.259       12.236        0.007      344.241       20.920      864.559
07/27/2014  02:42:00     -168.826      -11.388      -14.321       41.280       39.016       25.355     1704.008     1522.254      642.892        1.635        0.193      169.210       24.334        0.021      344.406       21.203      864.546
07/27/2014  02:43:00     -114.179      -21.581       -4.622       53.463       37.399       22.591     2858.314     1398.651      510.371        0.914        0.238      116.201       20.904        0.032      344.363       21.130      864.546
07/27/2014  02:44:00      -95.373      -36.117       -0.849       33.290       27.531       20.242     1108.205      757.975      409.728        0.634        0.114      101.982       20.226        0.039      344.419       21.224      864.540
07/27/2014  02:45:00      -69.086      -40.014        8.599       37.669       27.965       20.287     1418.984      782.059      411.576        0.453        0.131       79.837       20.095        0.063      344.493       21.351      864.540
07/27/2014  02:46:00      -56.831      -37.411       -1.626       42.947       30.059       16.859     1844.446      903.536      284.215        0.383        0.152       68.039       14.718        0.047      344.543       21.437      864.550
07/27/2014  02:47:00      -91.650      -56.067       -4.244       37.130       31.193       17.564     1378.671      973.020      308.483        0.711        0.133      107.439       20.996        0.038      344.615       21.559      864.534
07/27/2014  02:48:00      -75.786      -51.021        1.726       29.260       23.205       16.637      856.174      538.484      276.782        0.501        0.084       91.360       13.076        0.020      344.610       21.551      864.529
07/27/2014  02:49:00      -20.755      -33.871       10.434       37.031       25.677       21.967     1371.284      659.321      482.535        0.210        0.126       39.725       22.581        0.323      344.579       21.499      864.529
07/27/2014  02:50:00      -45.692      -60.692       11.673       40.466       32.343       23.996     1637.523     1046.065      575.792        0.458        0.163       75.969       18.726        0.061      344.570       21.483      864.522
07/27/2014  02:51:00      -87.183      -72.891       -4.865       44.648       36.362       26.316     1993.480     1322.182      692.543        0.847        0.200      113.640       21.471        0.036      344.481       21.330      864.520
07/27/2014  02:52:00      -88.828      -76.936        1.519       57.103       46.372       28.532     3260.760     2150.384      814.094        1.002        0.311      117.514       32.440        0.076      344.471       21.314      864.518
07/27/2014  02:53:00     -111.845      -76.941        1.271       34.340       24.741       19.824     1179.247      612.122      393.008        1.031        0.109      135.754       12.719        0.009      344.505       21.372      864.502
07/27/2014  02:54:00     -110.990      -59.415       -3.592       40.351       26.759       20.767     1628.177      716.019      431.268        0.932        0.139      125.892       21.886        0.030      344.393       21.180      864.486
07/27/2014  02:55:00     -124.507      -73.544       -0.027       38.641       31.211       20.114     1493.104      974.096      404.582        1.189        0.144      144.605       17.512        0.015      344.407       21.204      864.471
07/27/2014  02:56:00     -120.687      -31.421        1.536       38.126       38.249       21.034     1453.604     1463.011      442.438        0.946        0.168      124.710       16.205        0.017      344.330       21.073      864.457
07/27/2014  02:57:00     -119.347      -27.786        2.905       41.257       39.749       23.030     1702.102     1580.011      530.372        0.942        0.191      122.539       23.133        0.036      344.171       20.801      864.444
07/27/2014  02:58:00      -96.140      -17.049       -2.102       37.087       30.747       20.514     1375.440      945.400      420.806        0.614        0.137       97.640       17.121        0.031      344.079       20.645      864.433
07/27/2014  02:59:00      -90.984        0.413       -3.513       38.197       33.035       17.491     1459.015     1091.286      305.930        0.557        0.143       90.985       14.777        0.026      344.055       20.602      864.439
07/27/2014  03:00:00      -90.665       -2.911       -0.919       36.129       34.753       23.553     1305.340     1207.744      554.738        0.565        0.153       90.712       20.963        0.053      344.143       20.752      864.451
07/27/2014  03:01:00     -128.539        4.943       -9.812       26.255       26.078       13.661      689.350      680.054      186.614        0.910        0.078      128.634        9.849        0.006      344.307       21.033      864.466
07/27/2014  03:02:00     -121.771      -44.356       -8.243       37.611       34.834       19.857     1414.580     1213.406      394.284        0.994        0.151      129.597       19.569        0.023      344.398       21.188      864.469
07/27/2014  03:03:00      -78.501      -48.900        4.100       62.123       27.261       26.311     3859.286      743.144      692.268        0.693        0.265       92.485       33.913        0.134      344.486       21.339      864.479
07/27/2014  03:04:00      -37.144      -26.218        7.836       49.137       25.648       18.197     2414.412      657.836      331.123        0.277        0.170       45.465       23.179        0.260      344.595       21.525      864.489
07/27/2014  03:05:00       -3.595      -38.318       17.421       31.187       36.409       25.894      972.656     1325.600      670.511        0.238        0.148       38.486       18.003        0.219      344.540       21.429      864.509
07/27/2014  03:06:00      -62.895      -46.748       -0.315       30.782       25.559       20.481      947.532      653.271      419.471        0.408        0.101       78.366       14.735        0.035      344.601       21.537      864.526
07/27/2014  03:07:00      -41.486      -18.936       -0.313       29.042       31.993       11.496      843.422     1023.573      132.147        0.204        0.100       45.604       18.840        0.171      344.488       21.341      864.541
07/27/2014  03:08:00      -19.014       21.646        7.451       17.754       12.297       15.983      315.222      151.204      255.441        0.080        0.036       28.811       15.137        0.276      344.268       20.966      864.555
07/27/2014  03:09:00      -44.170       18.528       -4.455       14.749       16.915        9.464      217.524      286.112       89.573        0.145        0.030       47.899        9.867        0.042      344.308       21.035      864.558
07/27/2014  03:10:00        2.596      -29.548      -13.875       18.722       10.817        6.782      350.522      117.004       46.001        0.079        0.026       29.661        8.126        0.075      344.733       21.763      864.553
07/27/2014  03:11:00       -9.728      -13.059        3.730       24.295       17.556       14.259      590.260      308.203      203.322        0.069        0.055       16.284       12.140        0.556      344.606       21.544      864.549
07/27/2014  03:12:00       22.957      -41.450       -8.959       19.897       19.314       10.871      395.907      373.019      118.189        0.161        0.044       47.383        8.617        0.033      344.491       21.347      864.558
07/27/2014  03:13:00      -43.867      -28.792       -2.052       25.351       25.035        9.224      642.687      626.762       85.089        0.206        0.068       52.472        4.408        0.007      344.217       20.879      864.558
07/27/2014  03:14:00      -11.815      -41.347       -1.624       18.439       16.773       12.035      339.987      281.335      144.852        0.131        0.038       43.002        8.641        0.040      344.342       21.092      864.546
07/27/2014  03:15:00      -41.384      -43.903        3.966       43.528       23.825       22.509     1894.683      567.624      506.663        0.331        0.148       60.333       16.543        0.075      344.417       21.223      864.543
07/27/2014  03:16:00     -105.110      -69.545       -0.676       38.971       33.521       17.238     1518.772     1123.676      297.159        0.941        0.147      126.035       18.645        0.022      344.501       21.366      864.529
07/27/2014  03:17:00      -65.930      -60.966       10.098       43.103       32.410       22.952     1857.845     1050.432      526.812        0.580        0.172       89.798       23.352        0.068      344.412       21.213      864.535
07/27/2014  03:18:00     -103.295      -72.536       -0.069       42.444       30.246       18.441     1801.532      914.796      340.081        0.949        0.153      126.219       19.604        0.024      344.421       21.228      864.531
07/27/2014  03:19:00     -116.691      -43.089        2.159       38.089       36.931       25.374     1450.745     1363.928      643.838        0.947        0.173      124.393       23.862        0.037      344.420       21.227      864.521
07/27/2014  03:20:00      -91.100      -60.299       -0.641       33.717       25.734       16.974     1136.837      662.244      288.134        0.701        0.104      109.248       16.219        0.022      344.411       21.208      864.523
07/27/2014  03:21:00     -100.528      -71.281        1.118       41.158       27.329       17.355     1694.014      746.857      301.204        0.896        0.137      123.235       17.644        0.020      344.613       21.556      864.525
07/27/2014  03:22:00      -46.212      -47.268        6.649       41.639       25.375       19.963     1733.822      643.902      398.534        0.359        0.139       66.104       19.634        0.088      344.768       21.821      864.522
07/27/2014  03:23:00      -84.285      -71.209       10.531       51.692       41.945       26.705     2672.064     1759.380      713.153        0.871        0.257      110.339       26.216        0.056      344.706       21.716      864.522
07/27/2014  03:24:00      -59.144      -33.834        0.424       37.401       26.892       17.008     1398.831      723.180      289.267        0.353        0.121       68.138       13.447        0.039      344.690       21.687      864.531
07/27/2014  03:25:00      -56.367      -12.279        2.217       38.672       25.088       16.100     1495.515      629.420      259.215        0.286        0.119       57.689       17.289        0.090      344.590       21.517      864.540
07/27/2014  03:26:00      -72.772       10.013       -0.394       16.627       13.754       15.460      276.444      189.180      239.021        0.305        0.035       73.457        7.541        0.011      344.457       21.290      864.546
07/27/2014  03:27:00      -79.085       -6.469       -3.252       24.806       17.477        9.407      615.316      305.461       88.485        0.366        0.050       79.350        7.541        0.009      344.407       21.204      864.559
07/27/2014  03:28:00      -67.096      -33.828        3.026       23.525       22.146       13.594      553.422      490.451      184.810        0.344        0.061       75.141        9.950        0.018      344.318       21.051      864.568
07/27/2014  03:29:00      -59.409      -48.706        9.664       30.221       23.820       15.367      913.295      567.370      236.138        0.386        0.086       76.822       12.009        0.024      344.282       20.991      864.579
07/27/2014  03:30:00      -57.874      -37.280       10.351       34.765       26.385       18.862     1208.601      696.188      355.777        0.355        0.113       68.842       17.776        0.067      344.351       21.108      864.586
07/27/2014  03:31:00      -68.277      -48.136        3.825       37.575       25.311       18.975     1411.912      640.641      360.036        0.470        0.121       83.540       19.026        0.052      344.380       21.157      864.585
07/27/2014  03:32:00      -49.643      -29.986        0.480       35.440       24.533       14.287     1255.978      601.886      204.109        0.271        0.103       57.996       15.240        0.069      344.476       21.324      864.576
07/27/2014  03:33:00      -58.257      -39.540        0.985       26.739       20.453       13.480      714.990      418.328      181.717        0.314        0.066       70.409       11.356        0.026      344.465       21.302      864.568
07/27/2014  03:34:00      -95.100      -59.411       -0.266       26.672       21.917       17.811      711.401      480.368      317.235        0.704        0.075      112.132       18.501        0.027      344.361       21.126      864.577
07/27/2014  03:35:00     -100.710      -54.070        2.433       51.378       36.144       20.980     2639.698     1306.376      440.176        0.873        0.219      114.307       26.370        0.053      344.146       20.758      864.589
07/27/2014  03:36:00     -124.613      -30.723       -2.638       34.983       27.235       19.672     1223.834      741.758      386.982        0.942        0.118      128.345       18.659        0.021      344.078       20.642      864.596
07/27/2014  03:37:00      -90.450      -26.963        3.252       38.696       25.563       18.496     1497.398      653.460      342.116        0.571        0.125       94.383       17.789        0.036      344.064       20.617      864.590
07/27/2014  03:38:00      -45.250      -38.775        7.395       36.994       26.658       16.154     1368.585      710.634      260.944        0.297        0.117       59.591       18.709        0.099      344.091       20.664      864.573
07/27/2014  03:39:00      -80.796      -35.538        4.081       39.657       39.210       21.599     1572.710     1537.386      466.500        0.569        0.179       88.266       25.118        0.081      344.166       20.793      864.561
07/27/2014  03:40:00     -112.897      -32.603        2.933       46.209       31.178       18.547     2135.294      972.090      344.004        0.863        0.173      117.510       17.683        0.023      344.103       20.683      864.562
07/27/2014  03:41:00      -95.835      -10.632        3.204       44.250       29.074       21.670     1958.083      845.298      469.573        0.629        0.164       96.423       19.401        0.040      344.005       20.517      864.558
07/27/2014  03:42:00     -103.367      -19.337       -0.812       39.594       21.149       17.979     1567.686      447.263      323.249        0.670        0.117      105.160       19.347        0.034      343.979       20.473      864.547
07/27/2014  03:43:00      -81.095      -30.251        2.728       32.320       22.729       21.778     1044.565      516.586      474.283        0.477        0.102       86.553       19.703        0.052      343.930       20.389      864.546
07/27/2014  03:44:00      -39.376      -40.461        3.421       37.972       20.578       17.635     1441.851      423.449      310.981        0.269        0.109       56.458       20.110        0.127      344.015       20.534      864.552
07/27/2014  03:45:00      -43.041       -7.212        0.551       28.224       17.638       10.683      796.595      311.096      114.131        0.156        0.061       43.641        9.869        0.051      343.924       20.378      864.551
07/27/2014  03:46:00     -116.163       15.000      -10.215       23.869       11.944        7.263      569.729      142.649       52.750        0.729        0.038      117.128        4.318        0.001      343.903       20.341      864.554
07/27/2014  03:47:00     -146.851      -21.526      -13.245       19.781       28.285       14.271      391.289      800.039      203.650        1.180        0.070      148.421       11.630        0.006      343.877       20.297      864.567
07/27/2014  03:48:00     -142.936      -25.976       -6.388       41.145       36.508       18.270     1692.897     1332.816      333.790        1.225        0.168      145.277       22.539        0.024      343.803       20.171      864.572
07/27/2014  03:49:00     -152.284       36.734      -12.061       33.613       34.055       18.416     1129.810     1159.759      339.140        1.366        0.131      156.652       14.547        0.009      343.748       20.078      864.575
07/27/2014  03:50:00     -100.022       39.882      -11.027       34.435       24.876       22.745     1185.758      618.823      517.316        0.702        0.116      107.680        9.419        0.008      343.715       20.022      864.568
07/27/2014  03:51:00     -106.326       19.667      -16.867       39.194       17.093       18.788     1536.131      292.179      352.995        0.708        0.109      108.129       19.429        0.032      343.804       20.174      864.568
07/27/2014  03:52:00      -58.176        4.614      -10.826       16.065       31.055        9.801      258.086      964.414       96.054        0.242        0.066       58.359       10.024        0.030      343.956       20.434      864.568
07/27/2014  03:53:00      -46.386      -43.386        0.273       56.618       32.475       27.723     3205.602     1054.622      768.554        0.453        0.251       63.514       31.215        0.242      343.785       20.141      864.584
07/27/2014  03:54:00      -99.057      -75.719       -0.695       41.189       25.034       17.741     1696.535      626.689      314.727        0.909        0.132      124.682       20.639        0.027      343.664       19.935      864.588
07/27/2014  03:55:00       -3.285       -6.222        7.544       34.737       14.298       13.102     1206.677      204.434      171.660        0.084        0.079        7.035        6.939        0.973      343.668       19.942      864.594
07/27/2014  03:56:00      -34.609      -17.242       -4.427       21.489       13.532        6.726      461.771      183.102       45.239        0.110        0.035       38.666        6.431        0.028      343.718       20.025      864.600
07/27/2014  03:57:00      -97.921      -50.169      -10.814       21.283       27.169       10.514      452.969      738.164      110.550        0.676        0.065      110.025        7.761        0.005      343.784       20.140      864.591
07/27/2014  03:58:00      -99.292      -33.415       -7.081       16.303       23.500       12.555      265.792      552.229      157.627        0.600        0.049      104.764       11.742        0.013      343.818       20.196      864.584
07/27/2014  03:59:00      -58.722      -11.617       -8.376       14.856       10.743        6.793      220.715      115.418       46.148        0.202        0.019       59.860        6.524        0.012      343.856       20.261      864.583
07/27/2014  04:00:00      -97.201      -25.949       -6.180       30.197       22.276       12.713      911.853      496.208      161.609        0.586        0.078      100.605        3.968        0.002      343.841       20.238      864.584
07/27/2014  04:01:00     -127.521      -54.010       -4.316       29.631       20.827       18.411      878.008      433.765      338.957        1.042        0.083      138.487       18.023        0.017      343.742       20.067      864.574
07/27/2014  04:02:00      -99.857      -16.988       -8.955       24.485       20.477       16.501      599.539      419.301      272.296        0.582        0.065      101.292       13.137        0.017      343.635       19.885      864.565
07/27/2014  04:03:00      -49.190      -22.964       -1.099       23.052       11.236        8.981      531.411      126.250       80.661        0.184        0.037       54.286       10.069        0.034      343.667       19.941      864.555
07/27/2014  04:04:00      -60.226      -33.860       -5.664       28.658       23.320       11.711      821.254      543.803      137.139        0.315        0.075       69.091       11.495        0.028      343.799       20.165      864.556
07/27/2014  04:05:00      -53.253      -55.266        4.640       45.144       34.910       25.476     2037.994     1218.701      649.049        0.491        0.195       76.748        9.583        0.016      343.752       20.084      864.567
07/27/2014  04:06:00      -97.304      -54.825       -1.089       41.451       23.739       16.721     1718.156      563.556      279.578        0.752        0.128      111.687       18.458        0.027      343.613       19.846      864.571
07/27/2014  04:07:00     -104.379      -54.059       -0.336       37.930       35.303       15.847     1438.687     1246.332      251.114        0.838        0.147      117.547       13.960        0.014      343.615       19.850      864.560
07/27/2014  04:08:00     -114.138      -54.340        0.046       25.046       17.782       10.736      627.306      316.193      115.270        0.852        0.053      126.414        5.289        0.002      343.539       19.722      864.562
07/27/2014  04:09:00      -82.452      -70.368       -8.052       38.405       23.580       18.464     1474.950      556.032      340.921        0.709        0.119      108.398       17.486        0.026      343.733       20.051      864.563
07/27/2014  04:10:00     -139.730      -85.320       -1.230       52.231       29.009       22.259     2728.103      841.542      495.482        1.543        0.203      163.720       25.850        0.025      343.688       19.973      864.550
07/27/2014  04:11:00      -52.204      -63.842        2.907       40.705       31.803       21.584     1656.930     1011.406      465.851        0.497        0.157       82.469       23.668        0.082      343.746       20.075      864.549
07/27/2014  04:12:00      -92.271      -63.409       -1.122       43.060       27.295       19.034     1854.172      745.009      362.287        0.775        0.148      111.958       19.969        0.032      343.661       19.930      864.556
07/27/2014  04:13:00     -101.696      -28.402       -2.546       27.988       28.895       17.917      783.304      834.944      321.002        0.655        0.097      105.587       13.282        0.016      343.657       19.921      864.562
07/27/2014  04:14:00     -106.348      -18.759       -3.038       33.465       19.232       13.519     1119.915      369.865      182.769        0.667        0.084      107.990       13.694        0.016      343.656       19.922      864.571
07/27/2014  04:15:00     -102.620      -10.632       -0.170       28.298       23.267       17.789      800.750      541.344      316.438        0.615        0.083      103.169       16.086        0.024      343.524       19.697      864.566
07/27/2014  04:16:00      -62.625      -16.151       -1.116       37.899       22.593       20.884     1436.320      510.461      436.129        0.328        0.119       64.674       24.446        0.143      343.452       19.572      864.565
07/27/2014  04:17:00      -79.822      -29.784       -4.259       32.182       28.193       12.488     1035.684      794.850      155.956        0.463        0.099       85.198       14.092        0.027      343.589       19.806      864.572
07/27/2014  04:18:00      -57.972      -39.648        5.613       29.058       32.094       17.219      844.345     1030.041      296.504        0.357        0.109       70.234       16.298        0.054      343.560       19.758      864.580
07/27/2014  04:19:00      -61.841      -36.042        1.308       36.177       30.658       15.164     1308.791      939.942      229.939        0.380        0.124       71.577       16.174        0.051      343.530       19.707      864.588
07/27/2014  04:20:00      -60.123      -48.711        1.728       32.889       24.094       21.446     1081.660      580.532      459.928        0.406        0.106       77.379       20.962        0.073      343.696       19.989      864.600
07/27/2014  04:21:00      -33.058      -50.744        8.062       36.701       30.915       25.352     1346.934      955.766      642.735        0.334        0.147       60.563       22.351        0.136      343.756       20.091      864.611
07/27/2014  04:22:00      -54.112      -84.051        1.385       39.867       35.008       24.275     1589.343     1225.585      589.271        0.670        0.170       99.963       25.767        0.066      343.816       20.195      864.608
07/27/2014  04:23:00      -57.252      -81.055       -5.099       28.421       29.839       17.421      807.750      890.357      303.480        0.594        0.100       99.236       14.017        0.020      343.798       20.162      864.596
07/27/2014  04:24:00      -57.629      -65.666       -0.463       20.394       20.870       11.529      415.925      435.573      132.926        0.431        0.049       87.368       10.987        0.016      343.797       20.161      864.589
07/27/2014  04:25:00      -43.676      -28.813        3.120       27.208       20.125       15.006      740.279      405.029      225.188        0.206        0.069       52.324        9.526        0.033      343.707       20.009      864.603
07/27/2014  04:26:00      -60.601      -12.193       -5.899       16.983       13.530        9.634      288.410      183.059       92.819        0.221        0.028       61.815        8.464        0.019      343.658       19.922      864.629
07/27/2014  04:27:00      -55.529      -13.454       -4.362       11.819       15.730        6.688      139.679      247.419       44.727        0.186        0.022       57.136        7.224        0.016      343.653       19.916      864.637
07/27/2014  04:28:00      -80.107       -1.160       -1.971       20.094       16.472       11.725      403.783      271.318      137.482        0.362        0.041       80.115       11.020        0.019      343.633       19.881      864.641
07/27/2014  04:29:00      -52.154       16.290       -4.235       17.183        8.337        7.760      295.255       69.513       60.217        0.171        0.021       54.639        6.068        0.012      343.625       19.870      864.650
07/27/2014  04:30:00      -30.218       21.169       -5.483        9.517        8.025        5.640       90.578       64.396       31.809        0.079        0.009       36.895        5.005        0.018      343.739       20.063      864.655
07/27/2014  04:31:00      -19.726       10.505       -6.255        7.732       13.525        4.222       59.778      182.929       17.821        0.040        0.013       22.349        2.780        0.015      343.803       20.170      864.655
07/27/2014  04:32:00      -23.149      -12.825       -3.154       13.040       10.822        6.942      170.048      117.112       48.193        0.052        0.017       26.464        5.010        0.036      343.645       19.900      864.654
07/27/2014  04:33:00      -14.487      -22.638       -5.094       16.735       11.868        7.414      280.063      140.855       54.964        0.061        0.024       26.877        9.900        0.136      343.413       19.506      864.665
07/27/2014  04:34:00       -5.292      -31.102       -2.076        4.806        4.221        3.251       23.094       17.820       10.568        0.053        0.003       31.549        1.488        0.002      343.838       20.232      864.663
07/27/2014  04:35:00       -0.031      -26.810       -3.845        6.578        7.288        8.626       43.264       53.116       74.413        0.045        0.009       26.810        5.573        0.043      343.792       20.152      864.654
07/27/2014  04:36:00      -12.300      -26.148        1.696       11.927       12.090        8.689      142.256      146.163       75.499        0.060        0.018       28.897        6.583        0.052      343.537       19.718      864.646
07/27/2014  04:37:00      -27.218      -12.888       -9.437        8.525        6.689        5.377       72.681       44.737       28.908        0.057        0.007       30.115        1.985        0.004      343.617       19.854      864.636
07/27/2014  04:38:00      -36.314      -15.801       -4.687       10.174       10.206        5.736      103.512      104.161       32.897        0.092        0.012       39.603        3.703        0.009      343.663       19.931      864.638
07/27/2014  04:39:00      -33.382      -14.417       -0.374       10.772       13.185        7.960      116.044      173.835       63.368        0.084        0.018       36.362        6.533        0.032      343.505       19.663      864.648
07/27/2014  04:40:00      -69.069        8.607       -6.353       22.931       12.542       13.674      525.815      157.304      186.973        0.288        0.044       69.603       10.333        0.022      343.301       19.317      864.648
07/27/2014  04:41:00      -63.133       23.128       -4.711       12.725       10.163        8.074      161.935      103.293       65.186        0.244        0.017       67.236        9.240        0.019      343.299       19.313      864.635
07/27/2014  04:42:00      -29.266       38.722       -5.287       12.343       12.528        6.234      152.347      156.957       38.862        0.137        0.017       48.538        2.829        0.003      343.530       19.707      864.611
07/27/2014  04:43:00      -10.719       37.339       -3.011        8.199        9.197        5.362       67.228       84.591       28.754        0.085        0.009       38.847        5.131        0.017      343.604       19.830      864.592
07/27/2014  04:44:00      -35.888       -1.040       -7.969       14.607       29.037        7.367      213.366      843.122       54.276        0.123        0.056       35.903       11.739        0.107      343.474       19.611      864.599
07/27/2014  04:45:00      -89.521      -24.641       -9.405       14.426       15.396        9.190      208.105      237.044       84.459        0.462        0.026       92.850        4.481        0.002      343.103       18.980      864.618
07/27/2014  04:46:00      -86.966      -40.370       -7.923       14.508       16.585        9.887      210.480      275.057       97.744        0.492        0.029       95.879        5.877        0.004      343.022       18.841      864.612
07/27/2014  04:47:00      -36.693      -16.192        1.947       23.607       15.360       16.216      557.293      235.937      262.966        0.133        0.053       40.107        9.702        0.059      343.030       18.854      864.586
07/27/2014  04:48:00      -47.244       43.524      -11.522       16.485       15.944        9.311      271.742      254.221       86.699        0.244        0.031       64.237        9.761        0.023      343.372       19.437      864.563
07/27/2014  04:49:00      -45.741        4.631      -11.538        8.295       27.488        8.000       68.807      755.583       64.008        0.157        0.044       45.975        7.447        0.026      343.361       19.419      864.562
07/27/2014  04:50:00      -54.735      -34.590      -11.325       11.160       11.201       11.028      124.546      125.468      121.627        0.235        0.019       64.749        4.558        0.005      343.115       18.999      864.576
07/27/2014  04:51:00      -86.027      -31.394      -13.271       16.468       12.483       10.117      271.188      155.824      102.362        0.455        0.026       91.577        4.266        0.002      342.934       18.692      864.588
07/27/2014  04:52:00      -82.374      -34.432       -3.409       38.010       35.307       21.257     1444.764     1246.569      451.841        0.556        0.157       89.281       13.250        0.022      342.782       18.433      864.597
07/27/2014  04:53:00     -148.022      -39.860      -10.936       39.351       40.298       26.544     1548.501     1623.967      704.582        1.375        0.194      153.295       23.222        0.023      342.567       18.067      864.614
07/27/2014  04:54:00     -111.403      -13.072       -2.372       65.955       57.165       33.242     4350.038     3267.876     1105.055        1.065        0.436      112.168       37.562        0.112      342.569       18.070      864.631
07/27/2014  04:55:00     -121.212       -3.184      -10.135       39.044       47.809       25.868     1524.458     2285.682      669.133        0.964        0.224      121.254       23.539        0.038      342.564       18.063      864.641
07/27/2014  04:56:00     -112.738        9.614       -7.677       36.666       36.169       21.149     1344.387     1308.182      447.299        0.798        0.155      113.147       15.599        0.019      342.656       18.219      864.647
07/27/2014  04:57:00     -111.174      -10.621       -8.097       63.562       51.659       23.376     4040.150     2668.631      546.440        0.990        0.363      111.681       21.402        0.037      342.862       18.568      864.644
07/27/2014  04:58:00     -151.509       17.053      -18.694       30.248       35.953       19.681      914.967     1292.621      387.343        1.309        0.130      152.466       13.538        0.008      343.135       19.032      864.628
07/27/2014  04:59:00     -100.500      -53.875       -2.935       38.479       24.125       18.471     1480.624      582.035      341.183        0.771        0.120      114.029       21.194        0.035      343.147       19.054      864.622
07/27/2014  05:00:00      -30.865      -38.384        5.018       48.264       26.168       16.705     2329.371      684.779      279.057        0.287        0.165       49.254       22.513        0.209      342.950       18.718      864.615
07/27/2014  05:01:00     -133.486      -67.524       -5.756       29.943       32.595       15.374      896.578     1062.418      236.374        1.230        0.110      149.593        8.460        0.003      342.945       18.710      864.622
07/27/2014  05:02:00     -143.127      -50.286       -3.835       45.617       32.341       22.583     2080.943     1045.922      510.000        1.333        0.182      151.704       23.482        0.024      342.841       18.533      864.624
07/27/2014  05:03:00     -137.013      -46.710       -2.609       46.393       42.019       22.340     2152.343     1765.612      499.076        1.269        0.221      144.756       19.883        0.019      342.902       18.637      864.637
07/27/2014  05:04:00     -140.313      -40.588       -7.751       31.852       25.113       18.545     1014.578      630.674      343.904        1.169        0.099      146.066       16.074        0.012      342.769       18.410      864.634
07/27/2014  05:05:00     -110.198      -30.568       -7.752       26.040       23.883       16.659      678.100      570.420      277.526        0.733        0.076      114.359       12.129        0.011      342.733       18.350      864.633
07/27/2014  05:06:00      -79.735       -8.224       -3.656       44.585       24.385       18.187     1987.805      594.646      330.779        0.468        0.146       80.157       19.250        0.058      342.825       18.505      864.638
07/27/2014  05:07:00     -103.458       10.600       -7.607       50.348       35.070       21.272     2534.917     1229.914      452.480        0.754        0.211      103.999       24.899        0.057      342.888       18.613      864.641
07/27/2014  05:08:00     -174.659       43.641       -8.586       34.948       29.127       18.781     1221.329      848.379      352.720        1.745        0.121      180.029       16.491        0.008      343.101       18.976      864.652
07/27/2014  05:09:00     -152.787       14.894      -12.117       28.048       31.875       16.058      786.689     1016.018      257.857        1.289        0.103      153.512       12.912        0.007      343.210       19.161      864.652
07/27/2014  05:10:00      -53.371       -7.992        2.340       41.729       36.678       18.588     1741.319     1345.269      345.521        0.317        0.172       53.966       15.811        0.086      343.067       18.918      864.646
07/27/2014  05:11:00      -66.314       16.333       -2.348       41.492       28.329       12.607     1721.590      802.554      158.936        0.368        0.134       68.295       10.406        0.023      343.107       18.986      864.631
07/27/2014  05:12:00      -49.342       26.590        8.935       38.633       23.068       22.497     1492.512      532.130      506.099        0.288        0.127       56.050       20.235        0.130      343.405       19.494      864.615
07/27/2014  05:13:00      -41.850       58.541       -0.984       24.551       38.696       17.204      602.729     1497.417      295.976        0.379        0.120       71.962       16.151        0.050      343.515       19.681      864.615
07/27/2014  05:14:00       41.540       22.620        4.656       25.380       23.951       11.400      644.128      573.642      129.969        0.180        0.067       47.300       10.524        0.050      343.377       19.446      864.615
07/27/2014  05:15:00       47.436       28.837       -7.168       18.393       19.092       12.711      338.306      364.521      161.568        0.200        0.043       55.513        8.417        0.023      342.946       18.710      864.631
07/27/2014  05:16:00      -16.267      -22.708        0.431       16.888       17.862        9.679      285.215      319.067       93.692        0.074        0.035       27.933        4.400        0.025      343.003       18.809      864.672
07/27/2014  05:17:00        9.617      -53.334      -10.066       13.983       16.326       13.279      195.525      266.542      176.331        0.184        0.032       54.194        9.316        0.030      343.060       18.906      864.702
07/27/2014  05:18:00      -13.497      -45.012       -7.651       25.586       27.177       13.402      654.631      738.568      179.610        0.192        0.079       46.992       14.861        0.100      342.995       18.796      864.723
07/27/2014  05:19:00      -34.875      -57.112       -3.919       35.226       23.695       16.680     1240.836      561.448      278.218        0.329        0.104       66.918       13.523        0.041      343.027       18.850      864.759
07/27/2014  05:20:00      -50.571      -54.247        3.354       31.121       26.526       16.291      968.511      703.618      265.406        0.372        0.097       74.163       15.403        0.043      343.189       19.127      864.791
07/27/2014  05:21:00      -23.304      -23.788        2.488       22.562       20.154       15.926      509.051      406.186      253.652        0.114        0.058       33.301       11.243        0.114      343.230       19.196      864.809
07/27/2014  05:22:00      -28.494      -65.759        0.513       38.631       52.080       25.507     1492.328     2712.355      650.628        0.499        0.243       71.667       29.695        0.172      343.177       19.105      864.818
07/27/2014  05:23:00      -42.876      -32.593       -0.692       52.879       23.189       24.727     2796.163      537.726      611.428        0.342        0.197       53.857       32.223        0.358      343.149       19.056      864.811
07/27/2014  05:24:00      -99.390      -40.053       -8.735       34.455       24.905       17.763     1187.144      620.248      315.509        0.684        0.106      107.157        8.807        0.007      343.173       19.098      864.802
07/27/2014  05:25:00     -106.895      -22.680       -4.834       24.941       21.532       14.920      622.055      463.610      222.617        0.664        0.065      109.274       13.693        0.016      343.046       18.882      864.787
07/27/2014  05:26:00     -107.891      -10.166       -2.832       27.200       20.471       14.526      739.842      419.068      211.018        0.656        0.068      108.369       12.958        0.014      343.011       18.821      864.755
07/27/2014  05:27:00     -101.850      -35.786       -2.635       22.530       33.289       16.969      507.581     1108.164      287.932        0.678        0.095      107.954       12.801        0.014      342.918       18.665      864.724
07/27/2014  05:28:00      -85.403      -51.736        2.421       29.886       27.764       16.807      893.147      770.856      282.482        0.596        0.097       99.851       15.790        0.025      342.901       18.635      864.714
07/27/2014  05:29:00      -84.256      -27.422        0.122       34.516       39.537       19.414     1191.381     1563.181      376.907        0.549        0.157       88.606       16.214        0.033      342.839       18.529      864.707
07/27/2014  05:30:00      -68.692      -11.611        1.530       50.924       48.979       25.558     2593.264     2398.938      653.212        0.525        0.282       69.666       26.778        0.148      342.726       18.337      864.696
07/27/2014  05:31:00      -70.810        5.932       -7.649       38.154       31.724       21.532     1455.719     1006.417      463.628        0.402        0.146       71.058       22.312        0.099      342.858       18.562      864.685
07/27/2014  05:32:00      -78.097       31.307       -5.138       28.766       20.089       16.045      827.475      403.560      257.433        0.430        0.074       84.139       10.961        0.017      343.084       18.947      864.675
07/27/2014  05:33:00      -74.253        5.570       -5.745       46.434       27.281       15.265     2156.122      744.264      233.034        0.435        0.157       74.461       22.508        0.091      343.093       18.963      864.660
07/27/2014  05:34:00     -127.076       11.760      -10.545       38.991       42.425       20.905     1520.281     1799.863      436.999        1.008        0.188      127.619       13.966        0.012      343.139       19.040      864.642
07/27/2014  05:35:00     -132.101       15.365      -15.727       55.339       44.677       34.494     3062.354     1996.012     1189.835        1.209        0.312      132.991       25.160        0.036      342.794       18.454      864.627
07/27/2014  05:36:00     -175.486      -31.618      -13.602       45.927       50.729       27.865     2109.273     2573.470      776.447        1.872        0.273      178.312       23.420        0.017      342.674       18.248      864.611
07/27/2014  05:37:00     -181.633      -40.730       -8.707       56.088       31.781       24.600     3145.887     1010.020      605.174        1.974        0.238      186.144       20.366        0.012      342.584       18.093      864.595
07/27/2014  05:38:00     -237.078      -17.379      -18.929       59.433       49.334       35.429     3532.275     2433.818     1255.220        3.204        0.361      237.714       29.876        0.016      342.538       18.014      864.601
07/27/2014  05:39:00     -162.785       -9.267      -11.180       51.890       52.170       27.548     2692.535     2721.760      758.885        1.644        0.309      163.048       21.819        0.018      342.533       18.008      864.619
07/27/2014  05:40:00     -142.304        6.311       -5.862       53.638       33.947       24.257     2877.063     1152.381      588.410        1.247        0.231      142.444       25.241        0.031      342.590       18.107      864.626
07/27/2014  05:41:00     -151.749      -12.586      -14.997       37.064       36.911       27.515     1373.763     1362.420      757.076        1.345        0.175      152.270       21.397        0.020      342.689       18.275      864.638
07/27/2014  05:42:00     -185.070       -2.887      -20.102       44.967       33.913       20.888     2021.989     1150.106      436.308        1.914        0.180      185.093       19.380        0.011      342.819       18.494      864.653
07/27/2014  05:43:00     -156.073       20.697      -10.174       37.508       33.982       24.574     1406.849     1154.797      603.875        1.403        0.158      157.440       24.736        0.025      342.836       18.525      864.663
07/27/2014  05:44:00     -148.768       20.320       -9.703       29.464       31.020       17.935      868.114      962.242      321.669        1.240        0.108      150.150       14.805        0.010      342.884       18.605      864.668
07/27/2014  05:45:00     -137.773       13.177       -8.703       45.724       38.190       19.339     2090.667     1458.506      374.015        1.158        0.196      138.402       22.364        0.026      342.907       18.646      864.668
07/27/2014  05:46:00     -143.055      -18.196       -5.733       48.184       40.325       23.345     2321.728     1626.134      544.969        1.266        0.225      144.208       24.886        0.030      342.895       18.625      864.689
07/27/2014  05:47:00     -117.804      -44.785       -2.905       50.988       26.058       24.213     2599.819      679.012      586.252        0.988        0.193      126.030       26.535        0.044      342.834       18.521      864.709
07/27/2014  05:48:00      -61.943      -19.525        2.136       37.087       25.351       16.238     1375.431      642.669      263.663        0.325        0.114       64.947       17.252        0.071      342.821       18.500      864.716
07/27/2014  05:49:00      -81.718      -17.940        1.883       21.388       20.655       14.175      457.459      426.647      200.937        0.404        0.054       83.664       10.395        0.015      342.935       18.693      864.709
07/27/2014  05:50:00     -120.275      -43.472      -10.104       21.275       16.136       11.158      452.642      260.374      124.507        0.865        0.042      127.891        9.247        0.005      342.959       18.734      864.712
07/27/2014  05:51:00     -138.905      -46.869      -14.087       12.197       17.017       10.355      148.770      289.584      107.225        1.112        0.027      146.599        4.269        0.001      342.970       18.752      864.722
07/27/2014  05:52:00     -110.760      -43.218       -3.828       17.643       21.032       12.877      311.291      442.342      165.819        0.753        0.046      118.893       10.206        0.007      342.983       18.775      864.715
07/27/2014  05:53:00      -71.695      -48.316       -2.554       45.498       24.266       18.560     2070.055      588.829      344.489        0.524        0.150       86.456       16.443        0.036      342.959       18.736      864.699
07/27/2014  05:54:00      -68.525      -40.194        2.701       29.313       21.274       16.994      859.279      452.580      288.792        0.396        0.080       79.443       10.982        0.019      342.963       18.739      864.692
07/27/2014  05:55:00      -35.748      -35.149        2.405       27.431       21.488       14.468      752.468      461.720      209.310        0.197        0.071       50.134        9.863        0.039      342.966       18.744      864.699
07/27/2014  05:56:00      -51.998      -50.615        1.027       21.585       16.796       14.378      465.905      282.106      206.725        0.311        0.048       72.565        9.569        0.017      343.032       18.858      864.704
07/27/2014  05:57:00     -109.429      -43.612       -9.801       25.042       20.154       14.926      627.119      406.184      222.790        0.761        0.063      117.800       11.739        0.010      342.964       18.741      864.721
07/27/2014  05:58:00     -101.792      -11.654       -2.790       53.612       31.914       20.800     2874.219     1018.476      432.652        0.741        0.216      102.457       28.484        0.077      342.812       18.484      864.743
07/27/2014  05:59:00      -88.916        5.518       -6.079       47.119       29.260       23.259     2220.167      856.175      540.980        0.579        0.181       89.087       27.456        0.095      342.736       18.354      864.762
07/27/2014  06:00:00     -118.081      -12.923      -19.857       23.070       20.775       15.591      532.225      431.605      243.078        0.786        0.060      118.786        9.210        0.006      342.883       18.604      864.772
07/27/2014  06:01:00     -112.423      -13.164      -17.768       28.025       18.245       15.911      785.384      332.870      253.168        0.725        0.069      113.191       14.052        0.015      342.860       18.567      864.772
07/27/2014  06:02:00      -91.780      -32.183      -10.970       22.146       20.126       13.211      490.465      405.055      174.539        0.532        0.054       97.259        8.857        0.008      342.853       18.554      864.767
07/27/2014  06:03:00      -53.530      -14.712        0.648       21.345       20.156       17.849      455.606      406.253      318.574        0.213        0.059       55.515       15.453        0.077      342.801       18.465      864.766
07/27/2014  06:04:00      -66.848      -29.055      -12.543       14.343       20.335       10.288      205.725      413.516      105.848        0.310        0.036       72.889        9.295        0.016      342.856       18.558      864.765
07/27/2014  06:05:00      -62.884      -23.083      -10.268       11.444       13.800        7.730      130.957      190.449       59.752        0.249        0.019       66.987        4.205        0.004      342.901       18.637      864.766
07/27/2014  06:06:00      -43.854      -17.661       -6.493       17.383       15.606       10.052      302.176      243.533      101.038        0.146        0.032       47.277        8.981        0.036      342.908       18.648      864.771
07/27/2014  06:07:00      -68.526      -26.039      -13.803       10.724       10.514       10.260      115.007      110.540      105.277        0.295        0.017       73.306        6.011        0.007      343.077       18.935      864.786
07/27/2014  06:08:00     -102.251      -51.591       -5.710       27.977       22.338       12.714      782.708      498.964      161.640        0.730        0.072      114.529        8.248        0.005      342.935       18.693      864.818
07/27/2014  06:09:00     -104.954      -47.891       -6.721       23.386       17.560       11.970      546.905      308.339      143.276        0.718        0.050      115.364       10.692        0.009      342.914       18.657      864.840
07/27/2014  06:10:00      -46.249      -34.851       -2.827       21.852       18.282       13.011      477.507      334.217      169.297        0.217        0.049       57.910       10.541        0.033      342.882       18.603      864.855
07/27/2014  06:11:00        2.367      -27.611        8.311       21.523       16.338       14.573      463.237      266.941      212.385        0.089        0.047       27.712       10.284        0.138      343.100       18.975      864.853
07/27/2014  06:12:00       -7.428       10.577       34.805       19.011       33.595       18.925      361.437     1128.592      358.149        0.161        0.092       12.925        6.855        0.281      343.030       18.853      864.855
07/27/2014  06:13:00       -1.763        1.057       23.094       18.560       39.238       26.102      344.487     1539.588      681.335        0.155        0.128        2.056       20.476       99.229      342.977       18.764      864.866
07/27/2014  06:14:00      -10.698       -3.029       25.855       15.247       22.924       13.439      232.463      525.528      180.600        0.087        0.047       11.118        8.255        0.551      342.969       18.749      864.898
07/27/2014  06:15:00       -9.168        2.854       -1.508       11.308       16.717        7.346      127.872      279.461       53.960        0.028        0.023        9.602        7.769        0.655      342.895       18.625      864.932
07/27/2014  06:16:00      -36.667       -8.801       -2.341       16.711       14.371       12.182      279.242      206.521      148.413        0.103        0.032       37.709       10.682        0.080      342.884       18.607      864.963
07/27/2014  06:17:00      -59.253      -20.096       -6.273       11.631       18.337        9.272      135.275      336.251       85.975        0.226        0.028       62.569        5.751        0.008      342.717       18.322      864.985
07/27/2014  06:18:00      -12.757      -29.365        3.234       26.963       13.155       11.003      726.980      173.053      121.056        0.103        0.051       32.016       10.628        0.110      342.777       18.422      865.000
07/27/2014  06:19:00        1.410      -51.288      -10.578       12.176       14.221        7.999      148.264      202.243       63.991        0.158        0.021       51.307        4.974        0.009      342.906       18.642      865.007
07/27/2014  06:20:00      -13.007      -53.604      -10.057       12.781       17.521       12.318      163.359      306.972      151.740        0.188        0.031       55.160        7.809        0.020      343.027       18.847      865.015
07/27/2014  06:21:00      -53.572      -65.718        6.209       42.508       29.774       21.410     1806.893      886.481      458.394        0.519        0.158       84.787       18.135        0.046      343.005       18.812      865.039
07/27/2014  06:22:00      -78.220      -93.913       -0.380       24.529       44.150       19.841      601.650     1949.197      393.685        0.894        0.147      122.221        8.464        0.005      343.025       18.846      865.060
07/27/2014  06:23:00       -4.478      -21.215       17.831       29.941       24.652       19.085      896.475      607.698      364.232        0.133        0.093       21.683       23.027        1.128      342.960       18.734      865.070
07/27/2014  06:24:00      -19.811      -27.566       -3.777       40.260       18.898       14.733     1620.844      357.131      217.048        0.168        0.110       33.946       11.342        0.112      343.044       18.879      865.081
07/27/2014  06:25:00      -37.235      -22.126        3.165       34.056       23.602       17.851     1159.818      557.077      318.641        0.196        0.102       43.313       13.488        0.097      343.001       18.805      865.091
07/27/2014  06:26:00      -49.941      -49.562        4.958       46.525       43.693       21.979     2164.605     1909.057      483.069        0.477        0.228       70.360       20.611        0.086      342.905       18.642      865.101
07/27/2014  06:27:00      -50.633      -49.771        8.905       40.847       48.048       27.411     1668.482     2308.595      751.384        0.492        0.236       70.999       27.285        0.148      342.830       18.514      865.114
07/27/2014  06:28:00     -101.472      -62.076       -4.797       48.224       33.949       26.742     2325.554     1152.512      715.143        0.918        0.210      118.954       23.768        0.040      342.867       18.577      865.129
07/27/2014  06:29:00     -138.351     -114.905       -8.212       49.028       39.057       29.452     2403.749     1525.427      867.432        1.860        0.240      179.845       27.370        0.023      342.803       18.468      865.152
07/27/2014  06:30:00     -136.168      -88.908        3.712       67.701       41.883       34.252     4583.478     1754.163     1173.178        1.698        0.376      162.623       28.588        0.031      342.833       18.518      865.165
07/27/2014  06:31:00      -64.258      -57.523        7.241       52.377       35.142       26.842     2743.373     1234.975      720.480        0.609        0.235       86.244       28.557        0.110      342.829       18.513      865.180
07/27/2014  06:32:00      -92.741      -38.876        0.520       41.450       27.341       22.364     1718.118      747.529      500.143        0.654        0.148      100.559       21.118        0.044      342.879       18.597      865.182
07/27/2014  06:33:00      -68.098      -47.106        1.512       53.131       36.637       24.145     2822.906     1342.301      583.004        0.580        0.237       82.803       30.663        0.137      342.873       18.587      865.180
07/27/2014  06:34:00     -105.205      -44.248       -4.100       27.651       27.763       18.639      764.557      770.810      347.394        0.746        0.094      114.132       17.930        0.025      342.903       18.640      865.176
07/27/2014  06:35:00      -81.892      -54.865       -1.874       31.489       36.996       16.100      991.564     1368.698      259.206        0.617        0.131       98.572        9.180        0.009      342.925       18.675      865.180
07/27/2014  06:36:00      -71.034      -69.928       -1.781       24.963       35.868       20.126      623.134     1286.533      405.074        0.613        0.116       99.678       17.303        0.030      342.950       18.718      865.169
07/27/2014  06:37:00      -80.902      -29.660        2.968       26.432       25.164       14.787      698.632      633.231      218.643        0.449        0.078       86.168       14.634        0.029      342.910       18.651      865.159
07/27/2014  06:38:00      -86.806      -74.176       -3.024       25.650       29.876       19.638      657.945      892.564      385.651        0.749        0.097      114.182       14.467        0.016      342.987       18.781      865.151
07/27/2014  06:39:00     -116.540      -62.719        0.170       27.713       28.565       18.508      768.031      815.936      342.557        0.972        0.096      132.345        9.784        0.005      342.957       18.732      865.156
07/27/2014  06:40:00     -100.056      -56.386        1.207       50.496       27.600       21.623     2549.846      761.768      467.572        0.848        0.189      114.850       26.490        0.053      342.923       18.672      865.172
07/27/2014  06:41:00     -107.677      -26.559        0.387       34.578       35.855       19.223     1195.657     1285.581      369.510        0.757        0.143      110.904       16.903        0.023      342.882       18.603      865.188
07/27/2014  06:42:00     -140.030      -61.375       -2.364       37.670       29.435       19.902     1419.049      866.420      396.104        1.303        0.134      152.890       16.469        0.012      342.925       18.675      865.201
07/27/2014  06:43:00     -118.281      -46.457        1.063       48.647       30.178       26.597     2366.570      910.720      707.388        1.007        0.199      127.077       27.675        0.047      342.946       18.713      865.212
07/27/2014  06:44:00     -127.412      -32.030       -1.037       30.305       32.275       16.795      918.395     1041.643      282.079        0.975        0.112      131.376       13.003        0.010      342.890       18.617      865.207
07/27/2014  06:45:00     -122.786      -30.455       -6.654       30.650       28.664       15.703      939.409      821.636      246.586        0.903        0.100      126.507        5.754        0.002      342.820       18.498      865.207
07/27/2014  06:46:00     -158.055      -40.721      -14.416       33.809       32.968       22.141     1143.068     1086.900      490.238        1.478        0.136      163.216       14.304        0.008      342.848       18.545      865.208
07/27/2014  06:47:00      -82.422       -0.578       -2.988       25.156       23.001       16.466      632.824      529.056      271.127        0.412        0.072       82.424       15.915        0.037      342.768       18.407      865.203
07/27/2014  06:48:00      -55.805      -10.950       -5.546       26.732       16.859       12.686      714.616      284.223      160.929        0.221        0.058       56.869       13.346        0.055      342.724       18.336      865.199
07/27/2014  06:49:00      -57.360      -26.900       -9.247       37.301       40.869       16.490     1391.355     1670.274      271.930        0.372        0.167       63.354       15.029        0.056      342.747       18.372      865.199
07/27/2014  06:50:00      -91.121      -30.901        1.371       26.519       30.375       25.040      703.254      922.622      627.021        0.576        0.113       96.218       16.332        0.029      342.730       18.343      865.203
07/27/2014  06:51:00     -121.266       -2.692      -15.455       71.262       36.310       22.179     5078.204     1318.392      491.930        1.092        0.344      121.295       26.890        0.049      342.755       18.385      865.206
07/27/2014  06:52:00      -95.675      -33.148       -9.057       43.016       42.628       27.463     1850.339     1817.135      754.218        0.738        0.221      101.255       18.354        0.033      342.655       18.217      865.199
07/27/2014  06:53:00     -117.824      -49.360       -9.034       56.828       39.977       24.899     3229.478     1598.200      619.938        1.092        0.272      127.746       25.566        0.040      342.727       18.339      865.183
07/27/2014  06:54:00     -118.149      -42.412       -3.875       49.284       36.962       23.106     2428.943     1366.188      533.876        1.005        0.216      125.530       25.439        0.041      342.805       18.470      865.177
07/27/2014  06:55:00     -128.813      -55.758       -5.883       27.534       29.582       19.540      758.115      875.089      381.803        1.088        0.101      140.363       10.593        0.006      342.791       18.447      865.175
07/27/2014  06:56:00      -78.919       -2.106       -2.311       45.045       32.580       22.169     2029.034     1061.447      491.453        0.491        0.179       78.947       23.145        0.086      342.825       18.505      865.167
07/27/2014  06:57:00     -115.050       16.279       -1.193       27.079       22.472       17.557      733.288      505.011      308.262        0.752        0.077      116.196       12.341        0.011      342.866       18.577      865.155
07/27/2014  06:58:00     -135.201        2.775      -10.254       34.228       27.241       19.677     1171.563      742.079      387.203        1.035        0.115      135.230       17.306        0.016      342.916       18.659      865.164
07/27/2014  06:59:00     -121.382        8.977       -6.498       34.498       23.718       14.133     1190.128      562.531      199.739        0.840        0.098      121.714        4.934        0.002      343.025       18.846      865.171
07/27/2014  07:00:00     -114.385        5.542      -15.365       34.465       26.774       15.536     1187.809      716.848      241.377        0.775        0.107      114.519        8.314        0.005      343.078       18.937      865.164
07/27/2014  07:01:00      -42.974        2.791       -3.245       29.004       16.261       10.710      841.257      264.407      114.710        0.154        0.061       43.065        7.020        0.027      343.141       19.042      865.156
07/27/2014  07:02:00      -59.425      -19.748       -1.736       20.842       13.504       13.902      434.378      182.362      193.266        0.237        0.041       62.620        8.716        0.019      343.220       19.178      865.146
07/27/2014  07:03:00      -47.531       -9.035       -7.275       12.364       10.188        8.348      152.880      103.786       69.684        0.136        0.016       48.382        5.272        0.012      343.208       19.157      865.142
07/27/2014  07:04:00      -48.166      -12.611       -5.749       16.839       13.942       10.282      283.558      194.380      105.709        0.155        0.029       49.790        6.676        0.018      343.270       19.263      865.157
07/27/2014  07:05:00      -50.769      -33.561       -7.861       24.391       16.537       13.473      594.935      273.458      181.525        0.241        0.052       60.859        8.198        0.018      343.272       19.267      865.166
07/27/2014  07:06:00      -45.983       -7.889       -5.679       15.499       14.317       10.230      240.231      204.963      104.658        0.138        0.027       46.655        6.670        0.020      343.269       19.263      865.183
07/27/2014  07:07:00      -58.955        0.622       -0.547       41.656       17.466       14.266     1735.213      305.063      203.518        0.286        0.112       58.958       12.837        0.047      343.342       19.387      865.205
07/27/2014  07:08:00      -76.424        2.207       -0.867       31.787       21.868       12.235     1010.405      478.221      149.691        0.374        0.082       76.456       15.452        0.041      343.345       19.389      865.206
07/27/2014  07:09:00      -88.350        3.348       -3.724       22.521       24.753       14.362      507.180      612.709      206.268        0.458        0.066       88.414       13.910        0.025      343.416       19.511      865.221
07/27/2014  07:10:00      -84.033       17.854       -0.891       35.352       26.335       17.787     1249.736      693.545      316.363        0.482        0.113       85.909       14.895        0.030      343.431       19.537      865.229
07/27/2014  07:11:00      -55.834      -15.237       -2.637       18.934       28.958       17.730      358.513      838.571      314.347        0.243        0.076       57.876       10.030        0.030      343.464       19.595      865.230
07/27/2014  07:12:00      -40.768      -20.518        5.302       22.089       23.291       14.160      487.926      542.478      200.506        0.167        0.062       45.640       16.339        0.128      343.574       19.782      865.243
07/27/2014  07:13:00      -45.522      -27.565        5.145       24.451       13.778       13.916      597.841      189.842      193.643        0.192        0.049       53.217       14.853        0.078      343.604       19.832      865.247
07/27/2014  07:14:00      -57.429      -54.278       -4.078       20.046       13.795       11.005      401.824      190.305      121.117        0.349        0.036       79.020       10.703        0.018      343.613       19.849      865.262
07/27/2014  07:15:00      -76.749      -53.467       -4.430       13.759       14.783       10.930      189.305      218.551      119.475        0.465        0.026       93.537        6.624        0.005      343.595       19.817      865.266
07/27/2014  07:16:00      -40.802      -35.619        3.468       23.970       20.989       15.335      574.542      440.534      235.161        0.210        0.063       54.162       12.928        0.057      343.613       19.847      865.282
07/27/2014  07:17:00      -39.298      -31.312        4.031       27.870       16.175       12.288      776.713      261.620      150.989        0.186        0.059       50.247       14.154        0.079      343.629       19.877      865.298
07/27/2014  07:18:00      -40.005      -25.889        5.035       21.937       12.858       11.075      481.251      165.338      122.654        0.153        0.038       47.651       10.435        0.048      343.724       20.038      865.311
07/27/2014  07:19:00       -6.051      -17.215        7.438       15.119       15.318       11.199      228.582      234.655      125.413        0.049        0.029       18.247        9.546        0.274      343.870       20.286      865.326
07/27/2014  07:20:00      -24.402      -45.770        0.197       32.669       18.365       17.559     1067.279      337.257      308.332        0.220        0.086       51.868       18.486        0.127      343.735       20.056      865.339
07/27/2014  07:21:00      -63.665      -69.895      -10.785       28.772       26.599       13.693      827.824      707.486      187.492        0.539        0.086       94.544        8.960        0.009      343.710       20.011      865.355
07/27/2014  07:22:00      -74.794      -92.118       -4.428       37.815       36.488       21.342     1429.961     1331.358      455.485        0.866        0.161      118.659       15.502        0.017      343.631       19.880      865.362
07/27/2014  07:23:00      -80.189     -111.551        3.097       56.490       30.834       27.874     3191.132      950.749      776.944        1.190        0.246      137.383       26.933        0.038      343.547       19.736      865.380
07/27/2014  07:24:00     -107.094     -100.058       -3.741       52.246       54.430       31.445     2729.686     2962.636      988.759        1.409        0.334      146.563       30.643        0.044      343.501       19.655      865.366
07/27/2014  07:25:00     -127.390      -93.929        2.778       50.311       49.582       25.999     2531.175     2458.336      675.969        1.536        0.283      158.275       18.503        0.014      343.467       19.599      865.370
07/27/2014  07:26:00     -162.741     -125.199       -5.913       54.799       52.100       36.158     3002.892     2714.434     1307.394        2.461        0.351      205.327       34.915        0.029      343.447       19.561      865.364
07/27/2014  07:27:00     -111.494     -200.126       -6.942       42.471       55.326       30.685     1803.821     3060.997      941.547        2.917        0.290      229.088       28.829        0.016      343.334       19.369      865.365
07/27/2014  07:28:00     -139.658     -107.359       -5.981       35.498       51.567       27.055     1260.075     2659.128      731.969        1.786        0.233      176.154       14.113        0.006      343.360       19.416      865.370
07/27/2014  07:29:00     -133.428      -97.030        2.680       65.718       42.570       29.943     4318.888     1812.220      896.611        1.712        0.351      164.978       27.529        0.028      343.340       19.383      865.370
07/27/2014  07:30:00      -75.912      -52.624        0.628       43.188       37.119       20.087     1865.237     1377.817      403.478        0.609        0.182       92.368       21.210        0.053      343.429       19.533      865.383
07/27/2014  07:31:00      -85.552      -69.842       -6.449       26.466       31.536       20.207      700.467      994.494      408.343        0.717        0.105      110.441       15.685        0.020      343.409       19.500      865.389
07/27/2014  07:32:00      -49.499      -43.518        5.354       41.250       31.768       21.139     1701.578     1009.188      446.844        0.376        0.158       65.909       24.792        0.141      343.486       19.629      865.401
07/27/2014  07:33:00      -34.529      -34.783        7.681       28.175       36.752       21.616      793.829     1350.705      467.230        0.254        0.131       49.011       25.829        0.278      343.555       19.748      865.390
07/27/2014  07:34:00      -86.290      -72.799       -6.778       29.371       20.542       13.424      862.654      421.976      180.211        0.713        0.073      112.896       11.867        0.011      343.501       19.657      865.400
07/27/2014  07:35:00      -76.204      -31.725        2.966       30.228       22.663       13.588      913.733      513.626      184.626        0.422        0.081       82.544       16.785        0.041      343.506       19.667      865.409
07/27/2014  07:36:00      -72.270      -46.707        2.717       22.948       20.674       14.587      526.597      427.418      212.791        0.429        0.058       86.050       13.186        0.023      343.531       19.710      865.417
07/27/2014  07:37:00      -75.138      -52.157       -2.098       20.011       24.034       11.413      400.436      577.615      130.261        0.474        0.055       91.467       10.842        0.014      343.542       19.725      865.420
07/27/2014  07:38:00      -60.968      -44.916        3.855       26.210       21.840       12.643      686.946      476.971      159.848        0.354        0.066       75.727       13.755        0.033      343.614       19.849      865.415
07/27/2014  07:39:00      -62.787      -74.467      -11.333       24.703       19.032       10.865      610.230      362.210      118.049        0.535        0.055       97.404        7.620        0.006      343.633       19.882      865.422
07/27/2014  07:40:00      -34.927      -83.640      -12.394       28.118       25.863       17.598      790.617      668.891      309.680        0.507        0.088       90.640       14.250        0.025      343.681       19.964      865.423
07/27/2014  07:41:00      -20.994      -10.352        0.166       15.137       16.389       12.640      229.130      268.609      159.764        0.060        0.033       23.407       11.470        0.240      343.847       20.248      865.426
07/27/2014  07:42:00      -14.456      -15.262        6.581       13.090       16.045       10.580      171.361      257.437      111.932        0.051        0.027       21.022        9.196        0.191      343.920       20.372      865.435
07/27/2014  07:43:00       -4.086      -39.755        6.331       10.518       16.237       10.696      110.633      263.638      114.406        0.106        0.024       39.964        5.721        0.020      343.796       20.161      865.439
07/27/2014  07:44:00      -23.890      -30.201        0.268       15.770       24.779        7.643      248.678      614.012       58.421        0.120        0.046       38.508       10.701        0.077      343.902       20.343      865.453
07/27/2014  07:45:00      -28.286      -29.783       -2.384       10.717       11.651        5.216      114.859      135.755       27.207        0.099        0.014       41.075        2.475        0.004      343.872       20.290      865.460
07/27/2014  07:46:00      -27.177      -10.875       -5.307       11.832       10.109        8.405      139.986      102.198       70.644        0.060        0.016       29.272        7.975        0.074      343.971       20.459      865.464
07/27/2014  07:47:00      -22.670        8.365        2.983       10.585       12.912        8.702      112.033      166.726       75.725        0.047        0.018       24.165        8.581        0.126      344.117       20.708      865.472
07/27/2014  07:48:00      -30.702       14.826       -2.360        7.113        8.015        6.673       50.601       64.246       44.527        0.066        0.008       34.095        3.734        0.012      344.025       20.552      865.478
07/27/2014  07:49:00      -20.187        1.911       -5.340        7.218        5.353        3.755       52.093       28.655       14.097        0.027        0.005       20.277        3.327        0.027      344.098       20.676      865.480
07/27/2014  07:50:00       -9.366        0.525        0.740        3.778        2.783        4.819       14.271        7.745       23.220        0.007        0.002        9.380        1.901        0.041      344.294       21.010      865.487
07/27/2014  07:51:00      -14.446        6.706        6.738        8.826        8.877       11.412       77.900       78.797      130.225        0.029        0.014       15.927        6.219        0.152      344.625       21.576      865.478
07/27/2014  07:52:00       14.163       19.861       19.594       15.712       14.564       12.502      246.871      212.105      156.302        0.080        0.031       24.393        8.337        0.117      344.659       21.636      865.476
07/27/2014  07:53:00      -26.843        0.280        5.464       24.111       14.561       13.159      581.346      212.019      173.167        0.086        0.048       26.845       12.690        0.223      344.498       21.359      865.461
07/27/2014  07:54:00      -46.390      -34.706       -6.261       13.563       14.440        8.826      183.943      208.509       77.903        0.193        0.024       57.936        5.504        0.009      344.319       21.053      865.463
07/27/2014  07:55:00      -45.247      -54.471        0.682       20.776       20.309       13.794      431.662      412.439      190.272        0.302        0.052       70.813       10.253        0.021      344.258       20.950      865.451
07/27/2014  07:56:00      -43.045      -39.508        3.225       25.463       24.675       15.231      648.371      608.863      231.969        0.246        0.074       58.427       11.089        0.036      344.326       21.064      865.450
07/27/2014  07:57:00      -42.019      -65.434        2.041       21.001       28.572       19.061      441.025      816.339      363.326        0.384        0.081       77.764       16.416        0.045      344.278       20.985      865.442
07/27/2014  07:58:00      -61.777      -57.990       -3.792       41.225       29.115       22.415     1699.492      847.692      502.415        0.512        0.152       84.730       28.498        0.113      344.278       20.983      865.447
07/27/2014  07:59:00      -61.163      -70.889        4.423       39.499       35.431       21.072     1560.134     1255.327      444.016        0.602        0.163       93.628       23.514        0.063      344.227       20.895      865.450
07/27/2014  08:00:00      -50.158      -61.681        5.661       29.569       42.112       22.351      874.324     1773.429      499.549        0.475        0.157       79.501       21.550        0.073      344.360       21.124      865.450
07/27/2014  08:01:00      -73.610      -61.289        4.802       25.580       19.702       16.083      654.337      388.153      258.671        0.525        0.065       95.785       13.687        0.020      344.401       21.193      865.458
07/27/2014  08:02:00      -76.343      -80.258       -1.622       28.779       26.688       13.409      828.247      712.252      179.813        0.700        0.086      110.768       14.040        0.016      344.399       21.192      865.473
07/27/2014  08:03:00      -62.971      -60.749       -4.069       22.854       12.580       10.062      522.325      158.253      101.250        0.423        0.039       87.497        9.332        0.011      344.457       21.287      865.488
07/27/2014  08:04:00      -52.768      -76.343       -1.509       27.832       25.944       18.182      774.625      673.114      330.583        0.520        0.089       92.805       13.343        0.021      344.484       21.336      865.489
07/27/2014  08:05:00      -43.177     -103.796       -1.468       22.742       25.241       15.207      517.179      637.087      231.248        0.701        0.069      112.418       13.793        0.015      344.454       21.285      865.493
07/27/2014  08:06:00      -62.231      -93.624       -5.520       25.422       26.609       23.641      646.287      708.021      558.913        0.729        0.096      112.419       16.614        0.022      344.530       21.416      865.489
07/27/2014  08:07:00      -39.987      -99.339        1.854       13.063       20.661       13.554      170.641      426.889      183.700        0.613        0.039      107.085        9.059        0.007      344.537       21.423      865.493
07/27/2014  08:08:00      -29.578      -64.122       -0.967       16.788       22.525       13.982      281.836      507.370      195.486        0.299        0.049       70.615        8.743        0.015      344.616       21.561      865.508
07/27/2014  08:09:00      -22.572      -56.599        3.202       13.163       16.204        7.196      173.277      262.582       51.781        0.211        0.024       60.933        4.156        0.005      344.629       21.586      865.524
07/27/2014  08:10:00      -15.632      -49.409        2.529        8.415       12.172       10.018       70.810      148.152      100.361        0.151        0.016       51.823        3.320        0.004      344.641       21.603      865.535
07/27/2014  08:11:00       -5.078      -28.426        6.271       10.368       13.575       15.655      107.499      184.293      245.081        0.070        0.027       28.876        8.396        0.085      344.786       21.852      865.548
07/27/2014  08:12:00      -13.301        4.212       -3.906       15.602       20.661       14.309      243.424      426.892      204.745        0.054        0.044       13.952        8.081        0.335      345.033       22.276      865.555
07/27/2014  08:13:00      -31.672       13.186       -1.684        9.693        8.972        9.082       93.953       80.506       82.488        0.072        0.013       34.307        7.109        0.043      344.942       22.118      865.565
07/27/2014  08:14:00      -28.596      -13.499       12.226       25.642       31.039       15.787      657.495      963.437      249.237        0.151        0.094       31.622        9.654        0.093      345.044       22.294      865.573
07/27/2014  08:15:00      -28.497      -11.370        9.766       17.364       14.642       11.267      301.493      214.393      126.936        0.084        0.032       30.682        6.196        0.041      344.933       22.105      865.586
07/27/2014  08:16:00      -15.315        2.731       11.314       14.505        9.764       11.145      210.408       95.340      124.211        0.040        0.021       15.556        6.937        0.199      345.198       22.558      865.588
07/27/2014  08:17:00        3.400       -7.728       29.015       11.107       25.074       16.792      123.377      628.690      281.970        0.097        0.052        8.443       16.226        3.693      345.700       23.417      865.597
07/27/2014  08:18:00        5.954      -28.504       31.409       17.419       33.177       21.339      303.439     1100.728      455.372        0.185        0.093       29.119       18.205        0.391      345.404       22.910      865.618
07/27/2014  08:19:00        7.898       14.812       34.672       23.577       22.237       19.872      555.875      494.465      394.906        0.146        0.072       16.786       17.200        1.050      345.502       23.080      865.629
07/27/2014  08:20:00       -1.519        5.785       36.641       10.792       22.043       11.221      116.458      485.888      125.912        0.105        0.036        5.981        7.919        1.753      345.665       23.357      865.648
07/27/2014  08:21:00      -14.570       -0.905       11.532       16.970       18.104       15.876      287.969      327.737      252.042        0.061        0.043       14.599       12.835        0.773      345.204       22.568      865.667
07/27/2014  08:22:00       -8.191        9.330       41.881        8.420       11.890        9.534       70.893      141.377       90.890        0.111        0.015       12.415        7.210        0.337      345.839       23.657      865.691
07/27/2014  08:23:00       -0.672       24.554       39.071       20.582       20.862       12.249      423.623      435.206      150.045        0.157        0.050       24.564        9.068        0.136      345.634       23.305      865.714
07/27/2014  08:24:00       -5.381       21.669       44.714        9.637       17.192       18.082       92.866      295.571      326.961        0.161        0.036       22.327       11.834        0.281      345.453       22.993      865.722
07/27/2014  08:25:00      -23.460       -1.617        9.943       18.960       15.190       14.187      359.493      230.734      201.271        0.072        0.040       23.515       14.700        0.391      345.152       22.478      865.742
07/27/2014  08:26:00      -24.503      -18.856       -6.092       16.599       22.206        9.189      275.521      493.104       84.438        0.092        0.043       30.918        7.532        0.059      345.075       22.346      865.759
07/27/2014  08:27:00      -38.747      -18.138        1.168       18.300       15.178       12.310      334.896      230.368      151.545        0.127        0.036       42.782       11.983        0.078      345.055       22.313      865.758
07/27/2014  08:28:00      -38.460      -24.757       -1.373       21.466       13.923        9.324      460.795      193.854       86.942        0.142        0.037       45.739        9.214        0.041      345.042       22.290      865.775
07/27/2014  08:29:00      -25.045       -7.846       14.860       22.951       15.407       16.350      526.754      237.372      267.317        0.097        0.052       26.245       17.328        0.436      345.827       23.638      865.776
07/27/2014  08:30:00      -10.706       -7.801       17.411       17.995       12.968       15.872      323.803      168.162      251.908        0.061        0.037       13.247       14.122        1.136      346.077       24.067      865.791
07/27/2014  08:31:00        0.714       -2.472       16.021       14.145       13.687       15.485      200.090      187.338      239.782        0.045        0.031        2.573        6.479        6.338      346.082       24.074      865.783
07/27/2014  08:32:00      -19.586       -7.142        8.064       14.083       17.820       14.058      198.319      317.567      197.639        0.061        0.036       20.848        8.705        0.174      345.829       23.640      865.786
07/27/2014  08:33:00      -23.913        7.617        8.957       16.969       15.829       17.048      287.934      250.573      290.642        0.077        0.041       25.097       10.206        0.165      345.829       23.641      865.779
07/27/2014  08:34:00      -41.065        5.427        4.863       13.918       12.004       11.648      193.703      144.095      135.684        0.111        0.024       41.422       10.127        0.060      345.283       22.702      865.774
07/27/2014  08:35:00      -40.168        6.454       -5.755        9.454        7.113        9.064       89.371       50.593       82.153        0.096        0.011       40.684        6.224        0.023      345.170       22.508      865.761
07/27/2014  08:36:00      -17.033        5.386        1.653       14.743       13.049       13.860      217.360      170.278      192.094        0.045        0.029       17.864        8.123        0.207      345.556       23.170      865.751
07/27/2014  08:37:00      -33.871      -11.098       -4.816       14.003        8.737        9.474      196.079       76.336       89.762        0.083        0.018       35.643        6.696        0.035      345.402       22.905      865.744
07/27/2014  08:38:00      -36.127       13.810       -1.775       22.810       13.421       13.836      520.298      180.121      191.446        0.120        0.045       38.676       14.589        0.142      345.547       23.156      865.739
07/27/2014  08:39:00      -15.888        9.275       -8.140       28.585       19.171       13.645      817.118      367.526      186.178        0.089        0.069       18.397       13.356        0.527      345.660       23.350      865.732
07/27/2014  08:40:00      -42.176      -47.530       -6.342       18.893       19.777       13.604      356.960      391.140      185.056        0.251        0.047       63.545        8.661        0.019      345.379       22.868      865.735
07/27/2014  08:41:00      -26.056      -38.082      -11.772       18.649       13.370        8.718      347.774      178.768       76.006        0.144        0.030       46.143        6.712        0.021      345.465       23.016      865.739
07/27/2014  08:42:00       -0.660      -18.739       -1.296       12.079       14.958       10.091      145.901      223.749      101.827        0.041        0.024       18.750        8.995        0.230      345.746       23.498      865.736
07/27/2014  08:43:00       -0.799      -24.930       -0.508        8.265       18.913       15.645       68.313      357.711      244.763        0.065        0.034       24.942        9.708        0.151      345.807       23.601      865.745
07/27/2014  08:44:00      -33.832      -13.470       -4.030       11.928       12.549        7.012      142.288      157.470       49.174        0.085        0.017       36.415        4.632        0.016      345.661       23.349      865.748
07/27/2014  08:45:00      -20.318        8.698       -1.865        7.293        7.261       11.203       53.183       52.725      125.516        0.036        0.012       22.101        6.237        0.080      345.759       23.520      865.741
07/27/2014  08:46:00      -17.947      -13.613       -2.848       10.893       15.241        9.837      118.647      232.287       96.770        0.048        0.022       22.525        6.251        0.077      345.933       23.818      865.741
07/27/2014  08:47:00      -17.310      -52.956       -4.262       33.426       24.532       18.882     1117.316      601.818      356.541        0.260        0.104       55.713       13.080        0.055      345.947       23.841      865.736
07/27/2014  08:48:00      -23.422      -45.513      -12.742       15.954       23.571       13.854      254.516      555.577      191.923        0.189        0.050       51.187        7.531        0.022      345.786       23.567      865.737
07/27/2014  08:49:00      -14.146       -1.382        6.434        9.332       23.532       22.245       87.079      553.761      494.849        0.069        0.057       14.214       17.995        1.603      346.377       24.581      865.728
07/27/2014  08:50:00      -22.719        6.623       11.886       13.824       14.952       14.740      191.100      223.569      217.276        0.067        0.032       23.664       10.961        0.215      346.499       24.791      865.717
07/27/2014  08:51:00      -10.078       34.915       56.190       14.876       23.973       18.558      221.294      574.696      344.402        0.281        0.057       36.340       10.950        0.091      347.110       25.843      865.707
07/27/2014  08:52:00      -16.326        0.289       25.989       18.294       19.266       19.477      334.663      371.186      379.365        0.101        0.054       16.328       14.112        0.747      346.875       25.437      865.707
07/27/2014  08:53:00      -25.468      -33.264       11.344       26.202       35.777       19.710      686.546     1279.964      388.486        0.212        0.118       41.894       23.879        0.325      346.453       24.711      865.726
07/27/2014  08:54:00      -32.113      -73.266        3.194       13.907       23.791       11.825      193.415      566.024      139.820        0.365        0.045       79.995        4.941        0.004      345.953       23.852      865.743
07/27/2014  08:55:00      -57.969      -12.967       -5.975       23.294       17.160       13.344      542.607      294.466      178.067        0.229        0.051       59.402        7.107        0.014      346.027       23.979      865.763
07/27/2014  08:56:00      -35.842      -11.544      -10.067       16.520       19.166        8.839      272.916      367.335       78.128        0.112        0.036       37.655        7.570        0.040      346.187       24.255      865.775
07/27/2014  08:57:00      -15.141       13.042       21.735       26.916       19.439       17.417      724.449      377.861      303.362        0.114        0.070       19.984       16.125        0.651      347.099       25.825      865.787
07/27/2014  08:58:00        6.016       50.318       72.774       26.208       32.593       23.278      686.860     1062.319      541.868        0.508        0.115       50.676       23.322        0.212      347.041       25.722      865.792
07/27/2014  08:59:00       17.032       -9.004       37.791       41.514       72.894       40.587     1723.379     5313.595     1647.300        0.524        0.434       19.266       42.502        4.867      347.042       25.726      865.803
07/27/2014  09:00:00       -5.282      -36.465       18.255       43.379       59.615       41.698     1881.759     3553.935     1738.695        0.443        0.359       36.846       38.459        1.089      347.008       25.666      865.803
07/27/2014  09:01:00       25.685      -27.394       26.234       41.513       76.536       54.095     1723.356     5857.830     2926.322        0.630        0.525       37.552       44.394        1.398      346.979       25.615      865.799
07/27/2014  09:02:00       27.447      -15.536       33.099       49.170       72.249       63.656     2417.704     5219.918     4052.147        0.689        0.584       31.539       58.401        3.429      347.125       25.869      865.780
07/27/2014  09:03:00       11.856      -18.756       73.595       39.417       75.546       38.186     1553.679     5707.202     1458.164        0.731        0.436       22.189       38.184        2.961      347.100       25.825      865.770
07/27/2014  09:04:00      -23.008      -11.266       22.015       30.921       30.518       25.099      956.106      931.362      629.937        0.183        0.126       25.619       17.971        0.492      346.983       25.623      865.759
07/27/2014  09:05:00       23.278       26.518       47.031       52.560       39.002       35.248     2762.523     1521.134     1242.411        0.449        0.276       35.286       29.699        0.708      347.325       26.213      865.733
07/27/2014  09:06:00       33.955       51.784       61.586       43.697       47.625       28.693     1909.387     2268.145      823.312        0.631        0.250       61.923       27.369        0.195      346.862       25.414      865.708
07/27/2014  09:07:00       42.824      -32.504       28.847       59.923       41.062       30.291     3590.759     1686.124      917.548        0.496        0.310       53.762       26.556        0.244      346.803       25.315      865.691
07/27/2014  09:08:00        0.680      -25.825       36.169       33.014       69.663       31.078     1089.931     4852.912      965.863        0.444        0.345       25.834       30.242        1.370      347.022       25.692      865.677
07/27/2014  09:09:00       11.701       22.716       62.143       38.937       77.895       36.795     1516.080     6067.597     1353.899        0.672        0.447       25.552       45.144        3.121      346.992       25.640      865.675
07/27/2014  09:10:00      -16.853        3.797       47.870       19.947       38.429       39.442      397.868     1476.795     1555.644        0.301        0.172       17.276       27.555        2.544      347.016       25.681      865.683
07/27/2014  09:11:00       -9.279        6.304       39.534       13.827       15.339       13.637      191.181      235.281      185.961        0.115        0.031       11.218        7.154        0.407      347.833       27.088      865.677
07/27/2014  09:12:00       -4.647       51.037       77.122       29.066       48.222       24.177      844.814     2325.374      584.506        0.616        0.188       51.248       18.830        0.135      347.141       25.897      865.671
07/27/2014  09:13:00       14.152       71.517       60.906       34.595       30.010       39.538     1196.803      900.624     1563.292        0.634        0.183       72.904       29.382        0.162      346.731       25.189      865.672
07/27/2014  09:14:00       20.828       59.575       63.616       32.611       34.028       16.562     1063.507     1157.907      274.299        0.526        0.125       63.111       14.498        0.053      346.650       25.050      865.677
07/27/2014  09:15:00       29.830       74.571       71.119       31.064       25.802       18.449      964.961      665.728      340.370        0.674        0.099       80.316       16.703        0.043      346.517       24.821      865.686
07/27/2014  09:16:00       -0.590       16.274       47.300       22.667       27.525       20.456      513.799      757.626      418.429        0.210        0.084       16.285       18.862        1.342      347.138       25.891      865.694
07/27/2014  09:17:00      -10.640       21.339       43.542       16.358       19.960       14.532      267.574      398.420      211.166        0.167        0.044       23.844        5.228        0.048      347.564       26.626      865.692
07/27/2014  09:18:00      -14.242       14.989       50.507       12.643       20.257       14.864      159.836      410.341      220.949        0.188        0.040       20.676       15.162        0.538      347.834       27.090      865.697
07/27/2014  09:19:00      -12.091       29.072       54.577       14.994       30.306       22.444      224.806      918.448      503.743        0.281        0.082       31.486       14.751        0.219      347.629       26.739      865.691
07/27/2014  09:20:00       -6.179       33.336       88.266       25.997       43.213       38.320      675.846     1867.350     1468.396        0.648        0.201       33.904       32.169        0.900      347.567       26.629      865.684
07/27/2014  09:21:00       21.314      -29.177       31.511       40.372       73.275       39.623     1629.906     5369.239     1569.967        0.543        0.428       36.133       48.329        1.789      347.592       26.674      865.678
07/27/2014  09:22:00       37.428      -49.842       21.046       73.044       80.320       51.239     5335.362     6451.232     2625.447        0.937        0.721       62.330       59.869        0.923      347.126       25.870      865.672
07/27/2014  09:23:00      -20.734      -14.381       23.107       20.331       22.717       22.099      413.353      516.084      488.370        0.129        0.071       25.233       18.027        0.510      347.119       25.859      865.666
07/27/2014  09:24:00        9.056       64.540       89.154       32.108       75.432       52.964     1030.953     5690.017     2805.218        1.086        0.476       65.172       53.191        0.666      347.233       26.054      865.658
07/27/2014  09:25:00       29.989       95.731      108.099       39.297       46.375       28.943     1544.236     2150.681      837.681        1.314        0.227      100.319       29.258        0.085      346.873       25.434      865.659
07/27/2014  09:26:00       64.578       32.734       38.473       22.700       52.996       31.209      515.271     2808.622      973.999        0.551        0.215       72.401       30.722        0.180      346.701       25.138      865.662
07/27/2014  09:27:00        1.679      -32.099       24.769       41.318       59.905       32.379     1707.146     3588.658     1048.368        0.399        0.317       32.143       27.151        0.714      347.075       25.783      865.652
07/27/2014  09:28:00       12.281        9.606       44.921       39.857       46.976       35.803     1588.606     2206.764     1281.862        0.367        0.254       15.591       33.524        4.623      347.422       26.380      865.648
07/27/2014  09:29:00       28.415       18.166       59.476       43.282       51.607       28.366     1873.372     2663.263      804.645        0.501        0.267       33.725       25.428        0.568      347.645       26.765      865.642
07/27/2014  09:30:00       84.023       34.916       39.206       53.374       50.267       39.348     2848.757     2526.776     1548.300        0.837        0.346       90.988       37.076        0.166      347.019       25.685      865.650
07/27/2014  09:31:00       42.016       35.711       17.204       32.359       17.326       22.874     1047.087      300.201      523.210        0.260        0.094       55.142        6.770        0.015      346.836       25.369      865.655
07/27/2014  09:32:00       24.303      -51.067        9.526       33.279       54.695       40.286     1107.495     2991.578     1622.954        0.450        0.286       56.555       38.203        0.456      347.302       26.172      865.666
07/27/2014  09:33:00        0.985      -44.223       41.218       25.993       60.363       34.594      675.630     3643.698     1196.723        0.458        0.276       44.234       21.844        0.244      347.285       26.144      865.667
07/27/2014  09:34:00       -5.189        2.562       46.232       24.073       35.683       27.247      579.490     1273.265      742.426        0.238        0.130        5.787       10.859        3.522      347.596       26.680      865.662
07/27/2014  09:35:00      -17.923       24.740       61.122       15.925       27.471       19.745      253.603      754.665      389.852        0.303        0.070       30.550       20.390        0.445      347.751       26.947      865.658
07/27/2014  09:36:00       -7.631       29.810       59.607       19.554       34.590       24.455      382.378     1196.458      598.055        0.334        0.109       30.771       16.411        0.284      347.416       26.370      865.655
07/27/2014  09:37:00       12.944       30.087       50.475       21.918       27.456        8.686      480.385      753.848       75.442        0.246        0.065       32.753        5.376        0.027      347.420       26.377      865.652
07/27/2014  09:38:00        9.496       25.879       40.670       18.087       25.351       11.879      327.128      642.695      141.100        0.176        0.056       27.566        8.134        0.087      347.348       26.253      865.652
07/27/2014  09:39:00       18.044       26.151       36.652       22.793       18.140       21.621      519.532      329.045      467.452        0.183        0.066       31.772        7.028        0.049      347.499       26.513      865.639
07/27/2014  09:40:00       24.921       46.929       44.230       22.491       18.418       16.046      505.849      339.221      257.458        0.294        0.055       53.136        9.678        0.033      347.271       26.118      865.628
07/27/2014  09:41:00       25.359       44.831       49.402       41.536       35.227       32.339     1725.230     1240.974     1045.817        0.455        0.201       51.507       31.828        0.382      347.439       26.411      865.628
07/27/2014  09:42:00       31.257        3.335       41.265       40.339       46.568       26.960     1627.249     2168.583      726.864        0.361        0.226       31.435       18.791        0.357      347.782       27.000      865.624
07/27/2014  09:43:00       91.759      -76.589        5.968       67.272       72.521       62.113     4525.585     5259.275     3858.024        1.398        0.682      119.522       45.463        0.145      347.419       26.374      865.611
07/27/2014  09:44:00       26.747       15.995       61.108       38.533       50.027       42.311     1484.770     2502.721     1790.222        0.524        0.289       31.165       30.714        0.971      347.893       27.193      865.625
07/27/2014  09:45:00      -12.501       22.744       90.768       32.128       48.712       33.723     1032.203     2372.818     1137.216        0.673        0.227       25.953       31.121        1.438      347.792       27.018      865.621
07/27/2014  09:46:00       11.417       14.764       67.787       33.873       53.961       35.410     1147.362     2911.791     1253.890        0.513        0.266       18.663       35.636        3.646      347.859       27.135      865.636
07/27/2014  09:47:00        5.171       37.563       34.006       23.221       38.715       21.887      539.233     1498.861      479.050        0.256        0.126       37.917       15.113        0.159      347.606       26.698      865.628
07/27/2014  09:48:00      -10.322       -2.656       47.157       16.320       38.260       19.241      266.339     1463.821      370.223        0.222        0.105       10.658       19.873        3.477      348.272       27.850      865.639
07/27/2014  09:49:00       47.210     -127.713        8.654       56.883       62.494       50.532     3235.727     3905.475     2553.459        1.415        0.485      136.159       39.932        0.086      347.579       26.650      865.644
07/27/2014  09:50:00       26.398      -20.485       40.048       29.936       49.646       34.257      896.135     2464.680     1173.553        0.363        0.227       33.414       35.803        1.148      347.921       27.243      865.650
07/27/2014  09:51:00        6.830       64.836       87.278       45.788       60.920       53.626     2096.515     3711.236     2875.767        1.027        0.434       65.195       50.058        0.590      347.733       26.917      865.641
07/27/2014  09:52:00       97.424     -115.422       -0.675       79.198      104.733       60.538     6272.355    10969.011     3664.819        2.186        1.045      151.041       66.754        0.195      347.666       26.800      865.627
07/27/2014  09:53:00       41.376       24.664       84.107       62.841       97.785       59.017     3948.957     9561.817     3483.016        1.319        0.850       48.169       62.399        1.678      347.720       26.893      865.611
07/27/2014  09:54:00       53.452       17.506       63.449       63.983       96.693       65.668     4093.833     9349.594     4312.349        1.247        0.888       56.245       73.593        1.712      347.704       26.866      865.588
07/27/2014  09:55:00       50.360     -142.698      -15.801       64.787       42.523       38.435     4197.333     1808.176     1477.213        1.531        0.374      151.324       31.909        0.044      347.333       26.225      865.577
07/27/2014  09:56:00       22.918        3.534       29.899       35.921       69.022       36.604     1290.294     4764.027     1339.824        0.441        0.370       23.189       39.308        2.873      347.709       26.875      865.557
07/27/2014  09:57:00       12.620      -21.735       30.566       24.299       80.678       37.716      590.421     6508.930     1422.462        0.504        0.426       25.133       51.783        4.245      347.382       26.311      865.550
07/27/2014  09:58:00       49.214     -119.064      -10.421       54.338       32.683       21.878     2952.636     1068.149      478.647        1.060        0.225      128.834       20.065        0.024      347.170       25.944      865.536
07/27/2014  09:59:00       37.259     -105.018      -23.788       41.660       47.297       29.629     1735.558     2237.049      877.885        0.892        0.243      111.431       13.171        0.014      347.411       26.361      865.517
07/27/2014  10:00:00       -3.996      -42.507       32.587       24.060       50.177       37.063      578.900     2517.693     1373.641        0.368        0.224       42.695       34.314        0.646      348.027       27.424      865.513
07/27/2014  10:01:00       20.907       55.693       68.645       25.329       40.031       21.511      641.561     1602.462      462.704        0.548        0.135       59.488       22.054        0.137      347.645       26.765      865.506
07/27/2014  10:02:00       10.262      -17.780       21.621       29.302       34.732       30.780      858.635     1206.328      947.397        0.195        0.151       20.528       19.051        0.861      348.150       27.637      865.493
07/27/2014  10:03:00       46.681      -11.930       35.488       44.013       50.624       41.877     1937.171     2562.786     1753.643        0.492        0.313       48.181       38.242        0.630      348.148       27.633      865.497
07/27/2014  10:04:00       67.454       -6.402       55.175       67.886      143.426       80.435     4608.567    20571.149     6469.758        1.964        1.582       67.757      103.799        2.347      347.697       26.853      865.482
07/27/2014  10:05:00       49.472       -1.921       64.819       64.446       62.689       43.634     4153.243     3929.942     1903.910        0.832        0.499       49.510       46.705        0.890      347.976       27.337      865.487
07/27/2014  10:06:00       88.000       67.585       69.096       59.319       42.732       51.250     3518.732     1825.987     2626.562        1.253        0.399      110.958       35.259        0.101      347.902       27.209      865.481
07/27/2014  10:07:00      125.847       57.145       28.402       62.620       54.118       48.334     3921.222     2928.792     2336.202        1.455        0.459      138.214       40.102        0.084      347.695       26.849      865.485
07/27/2014  10:08:00      130.766       98.272       73.310       50.351       52.942       43.576     2535.236     2802.847     1898.834        1.968        0.362      163.576       31.884        0.038      347.607       26.698      865.494
07/27/2014  10:09:00       47.378       80.283       78.361       65.709       44.564       43.872     4317.692     1985.955     1924.728        1.153        0.411       93.221       37.486        0.162      347.994       27.367      865.486
07/27/2014  10:10:00       88.149       18.092       73.385       93.470       86.510       56.605     8736.619     7483.949     3204.158        1.645        0.971       89.986       65.429        0.529      347.963       27.314      865.502
07/27/2014  10:11:00       53.614        8.696       76.697       70.084       96.120       66.726     4911.707     9239.125     4452.313        1.371        0.930       54.315       68.724        1.601      347.956       27.301      865.498
07/27/2014  10:12:00       82.057       86.628      125.945       95.425       83.940       58.759     9105.909     7045.949     3452.626        2.485        0.980      119.322       62.144        0.271      347.725       26.900      865.511
07/27/2014  10:13:00       50.828      143.428      137.790       64.148       75.292       64.774     4114.907     5668.904     4195.712        2.806        0.699      152.168       66.438        0.191      347.588       26.663      865.532
07/27/2014  10:14:00       38.043       48.915       52.463       48.426       39.966       22.701     2345.075     1597.275      515.350        0.552        0.223       61.968       20.198        0.106      347.743       26.934      865.543
07/27/2014  10:15:00       -0.718      -79.324       18.778       31.899       53.669       36.692     1017.522     2880.333     1346.290        0.594        0.262       79.327       26.950        0.115      348.071       27.499      865.563
07/27/2014  10:16:00       25.442      -54.563       11.938       38.596       65.583       45.951     1489.656     4301.152     2111.539        0.583        0.395       60.203       47.474        0.622      347.917       27.234      865.573
07/27/2014  10:17:00        4.258       45.997       75.115       28.685       38.599       17.482      822.827     1489.863      305.621        0.520        0.131       46.194       16.341        0.125      348.225       27.766      865.587
07/27/2014  10:18:00       32.178      -23.823       27.986       44.325       78.090       34.124     1964.664     6098.034     1164.451        0.580        0.461       40.037       32.729        0.668      348.172       27.675      865.598
07/27/2014  10:19:00       78.963     -106.059       -1.311       67.000       95.097       51.881     4489.052     9043.455     2691.636        1.685        0.811      132.226       53.792        0.166      348.031       27.428      865.589
07/27/2014  10:20:00       72.122       30.634      101.228       89.858      185.842      102.098     8074.417    34537.323    10423.971        3.470        2.652       78.358      133.417        2.899      347.629       26.734      865.577
07/27/2014  10:21:00      115.670        3.780       52.242       73.117      111.388       75.146     5346.028    12407.248     5646.897        1.976        1.170      115.732       82.156        0.504      347.423       26.380      865.577
07/27/2014  10:22:00       52.913      -39.811       29.498       49.943      110.297       61.398     2494.322    12165.492     3769.696        1.184        0.921       66.217       73.573        1.235      347.488       26.495      865.556
07/27/2014  10:23:00       22.057      -16.297       35.047       35.547       42.931       37.652     1263.587     1843.069     1417.695        0.325        0.226       27.425       36.979        1.818      347.782       27.002      865.527
07/27/2014  10:24:00      -11.252       71.069       88.596       19.511       38.360       21.898      380.691     1471.486      479.520        0.768        0.117       71.954       23.016        0.102      347.596       26.681      865.511
07/27/2014  10:25:00        5.783       50.139       63.380       22.497       35.390       16.018      506.136     1252.467      256.570        0.429        0.101       50.471       18.177        0.130      347.627       26.732      865.494
07/27/2014  10:26:00       57.417       63.070       45.578       45.909       23.211       32.828     2107.624      538.762     1077.689        0.654        0.186       85.291       20.661        0.059      347.511       26.532      865.490
07/27/2014  10:27:00       53.239       37.505       24.841       47.995       28.635       29.336     2303.560      819.960      860.623        0.442        0.199       65.123       27.953        0.184      347.693       26.848      865.484
07/27/2014  10:28:00       70.339       50.709       35.418       76.347       46.297       28.456     5828.932     2143.382      809.768        0.878        0.439       86.712       14.023        0.026      347.711       26.877      865.484
07/27/2014  10:29:00      178.276       96.305       40.383       67.806       53.260       41.939     4597.677     2836.639     1758.848        2.594        0.460      202.626       32.501        0.026      347.411       26.357      865.479
07/27/2014  10:30:00       88.127       63.168       93.410       66.481       54.651       39.332     4419.718     2986.688     1547.036        1.472        0.448      108.428       35.955        0.110      347.519       26.545      865.475
07/27/2014  10:31:00      114.792       38.203       39.020       70.678       65.280       58.983     4995.327     4261.522     3478.989        1.445        0.637      120.982       42.002        0.121      347.476       26.471      865.458
07/27/2014  10:32:00       89.852       52.276       78.695       57.757       48.280       43.747     3335.899     2330.957     1913.758        1.229        0.379      103.953       37.281        0.129      347.484       26.487      865.438
07/27/2014  10:33:00      117.953       84.237       39.781       58.095       42.864       45.517     3375.052     1837.345     2071.794        1.494        0.364      144.944       26.765        0.034      347.474       26.468      865.403
07/27/2014  10:34:00      117.445       60.821       24.911       58.714       43.480       37.162     3447.320     1890.484     1381.025        1.241        0.336      132.259       24.851        0.035      347.441       26.412      865.377
07/27/2014  10:35:00       73.258       45.767       33.719       61.715       45.513       29.173     3808.734     2071.435      851.036        0.766        0.337       86.380       24.684        0.082      347.494       26.505      865.338
07/27/2014  10:36:00      -11.605        3.180        2.627       32.146       25.399       22.957     1033.393      645.096      527.010        0.118        0.110       12.033       17.300        2.067      347.742       26.932      865.281
07/27/2014  10:37:00      -44.562       54.013       -8.768       28.026       32.785       20.650      785.465     1074.826      426.408        0.363        0.114       70.023       14.577        0.043      347.596       26.679      865.225
07/27/2014  10:38:00      -63.537       47.298      -15.873       19.982       27.073       12.501      399.269      732.938      156.281        0.391        0.064       79.209        9.153        0.013      347.385       26.318      865.173
07/27/2014  10:39:00      -22.347        6.759       -0.298       15.695       21.807       15.690      246.335      475.552      246.170        0.076        0.048       23.347       15.389        0.434      347.703       26.865      865.120
07/27/2014  10:40:00     -129.325       -1.590      -10.119       73.276       41.487       20.939     5369.385     1721.164      438.425        1.218        0.376      129.335       27.475        0.045      347.637       26.748      865.084
07/27/2014  10:41:00     -150.923      -29.825      -18.208       60.005       46.373       29.234     3600.643     2150.461      854.656        1.530        0.330      153.842       30.755        0.040      347.483       26.485      865.074
07/27/2014  10:42:00     -122.279       41.135        0.095       52.715       30.046       21.367     2778.878      902.768      456.541        1.039        0.207      129.013       22.141        0.029      347.655       26.782      865.059
07/27/2014  10:43:00      -60.189       31.043        7.531       55.507       38.766       28.333     3081.037     1502.779      802.760        0.501        0.269       67.723       35.128        0.269      348.008       27.392      865.051
07/27/2014  10:44:00      -32.118        0.543       11.541       29.133       23.614       18.204      848.712      557.616      331.390        0.145        0.087       32.123       16.016        0.249      348.320       27.930      865.046
07/27/2014  10:45:00      -67.403       -2.145       -6.833       30.449       29.680       21.660      927.154      880.924      469.177        0.344        0.114       67.437       14.630        0.047      348.020       27.411      865.039
07/27/2014  10:46:00     -169.749      -75.410       -8.951       69.917       41.126       29.885     4888.419     1691.352      893.110        2.103        0.374      185.746       14.813        0.006      347.853       27.121      865.034
07/27/2014  10:47:00     -130.446      -56.662        0.359       75.777       51.149       42.461     5742.188     2616.227     1802.972        1.519        0.508      142.220       42.073        0.088      348.094       27.541      865.026
07/27/2014  10:48:00      -96.148       26.617       -5.462       60.064       34.061       32.777     3607.736     1160.129     1074.352        0.791        0.292       99.764       36.012        0.130      348.132       27.606      865.036
07/27/2014  10:49:00      -82.421       14.411      -11.062       14.489       17.202       13.345      209.945      295.920      178.093        0.390        0.034       83.671        7.130        0.007      347.738       26.924      865.037
07/27/2014  10:50:00      -83.290       30.453      -13.314       22.686       21.812       21.059      514.651      475.746      443.480        0.474        0.072       88.682       12.128        0.019      347.775       26.990      865.037
07/27/2014  10:51:00      -36.905       -1.142      -13.561       20.420       18.442       23.807      416.988      340.102      566.784        0.144        0.066       36.922       19.094        0.267      348.064       27.488      865.058
07/27/2014  10:52:00       -1.869      -18.823       -0.405       20.300       24.883       16.266      412.083      619.140      264.586        0.083        0.065       18.916       12.333        0.425      348.404       28.077      865.075
07/27/2014  10:53:00      -11.575      -14.650        0.797       27.479       29.968       19.132      755.106      898.096      366.048        0.118        0.101       18.671       10.664        0.326      348.503       28.248      865.079
07/27/2014  10:54:00      -64.900       11.998       -0.316       37.753       29.926       23.387     1425.251      895.568      546.935        0.361        0.143       65.999       23.883        0.131      348.298       27.892      865.098
07/27/2014  10:55:00       -5.796       15.477       27.274       15.362       22.851       17.023      235.994      522.181      289.777        0.103        0.052       16.526       13.465        0.664      349.355       29.722      865.103
07/27/2014  10:56:00       -3.915       38.769       -1.092       21.296       18.357       22.927      453.505      336.991      525.670        0.142        0.066       38.966       13.558        0.121      348.571       28.365      865.102
07/27/2014  10:57:00        3.976       17.408       35.024       15.591       21.330       18.097      243.092      454.987      327.509        0.129        0.051       17.857       14.189        0.631      349.196       29.446      865.099
07/27/2014  10:58:00       16.080       48.020       71.203       32.376       38.231       24.796     1048.228     1461.613      614.828        0.538        0.156       50.641       24.144        0.227      348.848       28.845      865.082
07/27/2014  10:59:00        5.481       23.180       44.834       29.089       35.676       22.078      846.149     1272.805      487.453        0.259        0.130       23.819       19.691        0.683      349.020       29.143      865.064
07/27/2014  11:00:00       27.234      -18.777       44.713       47.437       61.982       41.608     2250.292     3841.748     1731.225        0.546        0.391       33.080       41.626        1.583      349.121       29.318      865.057
07/27/2014  11:01:00        3.440        9.836       49.006       29.729       46.165       37.060      883.794     2131.195     1373.456        0.345        0.219       10.420       12.695        1.484      349.257       29.553      865.042
07/27/2014  11:02:00       72.481     -106.515       -3.602       42.538       42.986       32.667     1809.444     1847.753     1067.134        1.067        0.236      128.837       23.738        0.034      348.550       28.327      865.038
07/27/2014  11:03:00       29.237       77.084       96.253       56.526       74.007       48.113     3195.133     5477.082     2314.826        1.352        0.549       82.442       51.606        0.392      349.023       29.146      865.024
07/27/2014  11:04:00       92.750       78.283       62.525       71.167       55.736       47.975     5064.742     3106.447     2301.564        1.455        0.524      121.371       31.958        0.069      348.691       28.571      865.025
07/27/2014  11:05:00       80.915      100.498       73.446       55.666       49.116       61.345     3098.675     2412.346     3763.251        1.566        0.464      129.024       49.460        0.147      348.329       27.945      865.031
07/27/2014  11:06:00       84.115       42.047       23.559       40.773       30.999       41.496     1662.468      960.929     1721.957        0.687        0.217       94.039       13.804        0.022      348.461       28.174      865.032
07/27/2014  11:07:00       81.558       52.828       34.399       46.029       43.619       36.864     2118.679     1902.603     1358.951        0.800        0.269       97.173       28.529        0.086      348.869       28.879      865.028
07/27/2014  11:08:00       75.672       56.613       73.328       63.253       54.531       41.754     4000.909     2973.680     1743.387        1.151        0.436       94.506       31.813        0.113      348.773       28.713      865.009
07/27/2014  11:09:00      156.630       93.684       40.068       55.975       49.227       44.215     3133.148     2423.330     1954.987        2.121        0.376      182.509       29.386        0.026      348.448       28.149      865.005
07/27/2014  11:10:00       98.197       57.681       24.058       54.308       41.494       37.885     2949.407     1721.763     1435.284        0.983        0.305      113.885       25.938        0.052      348.943       29.008      864.990
07/27/2014  11:11:00      149.396       90.867       19.302       22.544       16.746       25.771      508.248      280.424      664.124        1.620        0.073      174.860        7.818        0.002      348.297       27.890      864.978
07/27/2014  11:12:00      110.187       87.251       25.896       56.161       29.611       33.392     3154.021      876.819     1115.024        1.278        0.257      140.549       15.420        0.012      348.475       28.198      864.966
07/27/2014  11:13:00       46.350       60.233       10.153       39.914       35.844       33.653     1593.138     1284.813     1132.513        0.494        0.201       76.002       22.754        0.090      348.950       29.021      864.939
07/27/2014  11:14:00       88.049       56.800       43.096       52.980       76.525       63.784     2806.888     5856.132     4068.356        1.278        0.637      104.780       52.408        0.250      349.081       29.247      864.922
07/27/2014  11:15:00       64.876      105.311      109.383       76.155       75.161       61.942     5799.540     5649.133     3836.859        2.127        0.764      123.691       54.089        0.191      348.757       28.685      864.916
07/27/2014  11:16:00      119.401      132.618       96.621      113.301       70.201       73.090    12837.033     4928.206     5342.190        3.214        1.155      178.450       68.036        0.145      348.685       28.558      864.893
07/27/2014  11:17:00      145.912       71.702       16.677       76.902       66.658       64.870     5913.876     4443.348     4208.095        2.063        0.728      162.578       25.780        0.025      348.836       28.820      864.891
07/27/2014  11:18:00      180.902      110.432       41.566       86.856       70.225       56.779     7543.962     4931.593     3223.811        3.117        0.785      211.945       46.898        0.049      348.792       28.743      864.875
07/27/2014  11:19:00      148.620       78.020       34.418       71.623       44.961       51.548     5129.821     2021.459     2657.213        1.958        0.490      167.854       48.803        0.085      348.860       28.862      864.868
07/27/2014  11:20:00       83.107       36.957       25.730       67.623       37.517       39.687     4572.869     1407.509     1575.044        0.824        0.378       90.954       29.367        0.104      349.234       29.513      864.863
07/27/2014  11:21:00       31.625       46.381       19.530       50.469       51.217       33.972     2547.115     2623.138     1154.124        0.493        0.316       56.137       31.608        0.317      349.336       29.689      864.850
07/27/2014  11:22:00       81.271       55.464       10.100       42.594       31.202       37.888     1814.240      973.541     1435.478        0.700        0.211       98.394       21.537        0.048      349.183       29.425      864.849
07/27/2014  11:23:00       77.794       19.963       27.212       49.202       43.143       39.209     2420.827     1861.343     1537.372        0.650        0.291       80.314       35.836        0.199      349.371       29.749      864.847
07/27/2014  11:24:00       37.034       25.989       31.320       50.546       49.651       34.909     2554.892     2465.205     1218.610        0.463        0.312       45.243       30.792        0.463      349.573       30.099      864.841
07/27/2014  11:25:00       37.339       17.338       35.077       54.827       41.801       37.741     3005.989     1747.338     1424.348        0.455        0.309       41.169       31.591        0.589      349.673       30.276      864.842
07/27/2014  11:26:00       -8.869       25.525       50.315       20.334       40.481       20.295      413.471     1638.691      411.877        0.286        0.123       27.022       13.175        0.238      349.822       30.532      864.833
07/27/2014  11:27:00       56.814       41.769       17.646       51.391       38.067       33.921     2641.061     1449.062     1150.634        0.526        0.262       70.516       29.755        0.178      349.566       30.087      864.838
07/27/2014  11:28:00       60.050       90.563       79.204       84.754       56.284       58.489     7183.257     3167.880     3420.937        1.592        0.689      108.663       58.797        0.293      349.220       29.488      864.834
07/27/2014  11:29:00      107.558       85.575       37.300       55.193       37.508       40.816     3046.248     1406.860     1665.949        1.320        0.306      137.447       33.958        0.061      349.170       29.400      864.833
07/27/2014  11:30:00       54.574       51.113       37.563       52.433       32.511       36.213     2749.180     1056.990     1311.396        0.606        0.256       74.772       35.449        0.225      349.473       29.927      864.835
07/27/2014  11:31:00       39.332      -39.208       35.035       42.626       84.147       42.391     1816.937     7080.662     1796.986        0.750        0.535       55.536       47.523        0.732      349.404       29.808      864.823
07/27/2014  11:32:00       50.220       24.240       31.804       64.941       56.283       40.222     4217.273     3167.756     1617.777        0.656        0.450       55.764       15.840        0.081      349.593       30.135      864.820
07/27/2014  11:33:00       27.324      -13.288       21.518       43.722       58.912       44.395     1911.588     3470.581     1970.950        0.437        0.368       30.384       25.528        0.706      349.651       30.237      864.817
07/27/2014  11:34:00        3.697      -13.345       41.400       39.418       66.988       42.247     1553.749     4487.347     1784.842        0.486        0.391       13.848       37.110        7.182      349.785       30.468      864.804
07/27/2014  11:35:00       -8.881      -34.841       43.541       42.174       48.229       34.672     1778.679     2326.025     1202.123        0.425        0.265       35.955       22.140        0.379      349.939       30.737      864.808
07/27/2014  11:36:00       96.331     -126.637       -2.712      104.060       99.741       86.957    10828.563     9948.269     7561.582        2.683        1.417      159.112       82.637        0.270      349.273       29.579      864.792
07/27/2014  11:37:00      122.793      -93.748       -7.525       95.153       98.466       68.874     9054.168     9695.539     4743.604        2.370        1.175      154.489       75.067        0.236      349.194       29.441      864.808
07/27/2014  11:38:00       52.189     -126.884      -15.836       80.686       94.918       64.380     6510.251     9009.372     4144.762        1.937        0.983      137.197       67.260        0.240      349.158       29.378      864.801
07/27/2014  11:39:00       19.333      -79.838       -0.087       47.842       48.432       36.461     2288.873     2345.623     1329.434        0.635        0.298       82.145       25.268        0.095      349.293       29.615      864.808
07/27/2014  11:40:00       12.419      -91.592      -13.221       45.107       49.838       35.433     2034.616     2483.809     1255.529        0.724        0.289       92.430       19.936        0.047      349.454       29.894      864.799
07/27/2014  11:41:00      -40.737      -78.803       -4.476       76.091       42.621       37.494     5789.834     1816.554     1405.781        0.845        0.451       88.709       22.088        0.062      349.321       29.662      864.784
07/27/2014  11:42:00      -98.746      -24.099      -21.852       46.449       39.759       24.676     2157.543     1580.777      608.901        0.758        0.217      101.644       22.175        0.048      349.128       29.330      864.792
07/27/2014  11:43:00      -37.536      -21.599        3.459       38.670       34.728       26.547     1495.389     1206.001      704.763        0.265        0.170       43.307       19.991        0.213      349.643       30.223      864.775
07/27/2014  11:44:00       30.298      -59.110       14.031       27.840       56.832       31.348      775.050     3229.863      982.674        0.480        0.249       66.423       26.558        0.160      349.496       29.967      864.773
07/27/2014  11:45:00       -0.474      -63.814        1.316       20.747       36.507       27.059      430.431     1332.748      732.193        0.328        0.125       63.816       23.968        0.141      349.511       29.993      864.772
07/27/2014  11:46:00       39.243     -102.024      -13.242       43.386       47.571       32.580     1882.307     2263.012     1061.451        0.866        0.260      109.311       15.617        0.020      349.339       29.694      864.770
07/27/2014  11:47:00        0.175      -53.884       14.047       25.260       52.649       29.723      638.053     2771.900      883.432        0.370        0.215       53.885       30.513        0.321      349.810       30.513      864.771
07/27/2014  11:48:00        4.539      -10.421       32.129       17.965       47.691       27.342      322.733     2274.393      747.602        0.225        0.167       11.366       27.438        5.827      350.064       30.954      864.774
07/27/2014  11:49:00       27.470      -38.364       25.295       49.081       62.422       42.347     2408.986     3896.541     1793.287        0.548        0.405       47.185       36.491        0.598      349.834       30.554      864.756
07/27/2014  11:50:00       43.686        7.957       27.389       50.456       35.900       26.882     2545.831     1288.832      722.665        0.364        0.228       44.405       22.765        0.263      349.799       30.492      864.742
07/27/2014  11:51:00       -9.259       23.143       57.337       32.270       63.194       46.012     1041.345     3993.498     2117.060        0.553        0.358       24.926       44.165        3.139      350.111       31.035      864.726
07/27/2014  11:52:00       91.084       63.546       50.110       98.005       60.208       48.276     9604.993     3624.995     2330.595        1.520        0.778      111.060       23.915        0.046      349.842       30.567      864.716
07/27/2014  11:53:00       81.788       51.052       31.994       46.463       37.456       40.557     2158.794     1402.937     1644.886        0.776        0.260       96.413       14.169        0.022      349.660       30.250      864.706
07/27/2014  11:54:00       19.025       59.801       29.400       45.064       50.660       41.671     2030.733     2566.486     1736.484        0.557        0.317       62.755       34.639        0.305      349.853       30.587      864.702
07/27/2014  11:55:00       65.024       69.679       34.431       68.860       33.721       42.068     4741.721     1137.139     1769.746        0.896        0.382       95.306       25.169        0.070      349.684       30.293      864.699
07/27/2014  11:56:00       57.815       21.414       41.469       43.863       59.823       34.009     1923.921     3578.754     1156.606        0.609        0.333       61.654       25.243        0.168      349.892       30.654      864.691
07/27/2014  11:57:00       97.022       16.944       72.076      109.233      121.623       92.201    11931.778    14792.263     8500.994        2.505        1.761       98.490       96.941        0.969      349.723       30.360      864.693
07/27/2014  11:58:00       88.071       -2.854       72.596      100.471       81.426       65.256    10094.346     6630.113     4258.316        1.700        1.049       88.117       66.005        0.561      349.800       30.493      864.685
07/27/2014  11:59:00       55.726       35.317       92.581       86.032      109.028      102.206     7401.552    11887.005    10446.113        2.132        1.487       65.975       93.550        2.011      349.793       30.480      864.679
07/27/2014  12:00:00      166.886      -32.728       48.969      100.661       64.314       56.528    10132.709     4136.260     3195.402        2.439        0.873      170.065       57.621        0.115      349.378       29.761      864.673
07/27/2014  12:01:00      101.054      -17.298       47.879       68.730       81.349       53.819     4723.803     6617.622     2896.462        1.352        0.712      102.523       51.972        0.257      349.693       30.307      864.654
07/27/2014  12:02:00       59.228      -57.174       60.490       63.919      123.800       64.130     4085.620    15326.493     4112.602        1.698        1.176       82.321       76.740        0.869      349.970       30.789      864.643
07/27/2014  12:03:00       72.661      -65.283       13.940       33.134       69.789       39.716     1097.852     4870.570     1577.366        0.864        0.377       97.681       41.563        0.181      349.614       30.173      864.647
07/27/2014  12:04:00       74.828     -145.707      -19.006       76.855       65.789       34.397     5906.647     4328.160     1183.188        1.930        0.571      163.798       36.742        0.050      349.573       30.098      864.629
07/27/2014  12:05:00       83.978     -110.486      -11.166       69.296       63.010       32.997     4801.906     3970.230     1088.771        1.462        0.493      138.779       43.172        0.097      349.298       29.622      864.622
07/27/2014  12:06:00       -5.530        1.001       50.108       23.698       51.096       30.566      561.581     2610.838      934.293        0.332        0.205        5.620       28.112       25.020      350.305       31.372      864.612
07/27/2014  12:07:00       22.063      -32.516       49.134       34.541       42.218       36.034     1193.093     1782.397     1298.431        0.412        0.214       39.295       15.812        0.162      350.056       30.939      864.604
07/27/2014  12:08:00       33.438      -18.056       27.530       26.310       47.677       36.501      692.204     2273.060     1332.347        0.325        0.215       38.001       32.671        0.739      349.868       30.613      864.596
07/27/2014  12:09:00       50.658       36.773       16.871       40.068       39.780       37.709     1605.409     1582.459     1421.982        0.441        0.230       62.598       16.975        0.074      349.743       30.395      864.591
07/27/2014  12:10:00       98.605       53.886       13.686       55.864       34.518       35.307     3120.738     1191.502     1246.562        0.919        0.278      112.368        8.610        0.006      349.681       30.287      864.574
07/27/2014  12:11:00       57.774       50.621       19.619       74.404       61.684       37.757     5535.985     3804.927     1425.560        0.852        0.538       76.813       20.373        0.070      349.847       30.575      864.557
07/27/2014  12:12:00       27.374       86.123        5.846       34.156       60.476       39.241     1166.611     3657.344     1539.843        0.728        0.318       90.369       37.674        0.174      349.913       30.690      864.553
07/27/2014  12:13:00       50.899       35.530       10.642       37.106       33.353       34.901     1376.839     1112.420     1218.082        0.384        0.185       62.074       20.973        0.114      349.959       30.772      864.559
07/27/2014  12:14:00       11.963       60.810       -4.732       38.903       38.507       30.722     1513.474     1482.813      943.857        0.390        0.197       61.976       29.844        0.232      349.914       30.693      864.544
07/27/2014  12:15:00        4.145       31.234       26.096       25.061       23.132       23.563      628.052      535.113      555.236        0.170        0.086       31.508       19.060        0.366      350.479       31.674      864.541
07/27/2014  12:16:00       13.657        6.695       12.344       21.252       23.536       22.053      451.642      553.945      486.317        0.094        0.075       15.210        5.660        0.138      350.274       31.317      864.534
07/27/2014  12:17:00       -0.399      -90.425       -6.745       58.414       86.218       33.539     3412.143     7433.577     1124.845        1.009        0.599       90.426       35.563        0.155      349.647       30.228      864.531
07/27/2014  12:18:00      104.981      -40.552       40.465       76.134       81.588       48.106     5796.417     6656.642     2314.219        1.453        0.738      112.540       40.736        0.131      349.747       30.402      864.521
07/27/2014  12:19:00      106.649      -32.746       58.205      100.156      100.076       67.325    10031.246    10015.208     4532.649        2.020        1.229      111.563       76.917        0.475      349.884       30.639      864.495
07/27/2014  12:20:00       45.946       13.967       35.030       62.690       55.011       34.525     3930.044     3026.207     1191.999        0.584        0.407       48.022       38.719        0.650      349.979       30.806      864.497
07/27/2014  12:21:00       63.808       33.975       12.303       56.261       39.975       32.509     3165.314     1597.976     1056.840        0.560        0.291       72.289       13.921        0.037      350.020       30.877      864.461
07/27/2014  12:22:00       86.529       94.436       57.782       70.194       54.044       47.065     4927.192     2920.777     2215.120        1.490        0.503      128.084       38.744        0.091      349.786       30.469      864.460
07/27/2014  12:23:00       45.848       20.427       34.178       53.378       28.953       32.335     2849.167      838.275     1045.576        0.421        0.237       50.193       19.754        0.155      350.372       31.487      864.443
07/27/2014  12:24:00       15.998       28.453       79.029       48.165      100.517       71.027     2319.878    10103.587     5044.805        1.239        0.873       32.642       55.513        2.892      350.384       31.509      864.427
07/27/2014  12:25:00       21.784       98.509      137.806       56.951       57.599       40.323     3243.379     3317.640     1625.930        1.868        0.409      100.889       37.968        0.142      349.978       30.802      864.410
07/27/2014  12:26:00       90.903       80.432       63.960       56.075       45.727       56.182     3144.450     2090.961     3156.471        1.361        0.420      121.378       33.332        0.075      349.738       30.386      864.406
07/27/2014  12:27:00       23.286       -3.130        9.721       49.686       37.202       22.729     2468.652     1383.956      516.603        0.251        0.218       23.496       13.565        0.333      350.097       31.011      864.384
07/27/2014  12:28:00       15.832      -16.054       29.116       40.068       45.888       22.968     1605.454     2105.738      527.509        0.280        0.212       22.547       22.107        0.961      350.431       31.592      864.372
07/27/2014  12:29:00        5.689       60.447       85.256       34.475       53.972       33.429     1188.515     2912.991     1117.495        0.809        0.261       60.714       36.921        0.370      350.363       31.473      864.357
07/27/2014  12:30:00       58.529       97.441       79.654       75.316       52.781       41.624     5672.471     2785.837     1732.596        1.473        0.510      113.667       32.847        0.084      350.144       31.091      864.349
07/27/2014  12:31:00       61.632       50.576       53.224       80.546       81.864       44.352     6487.667     6701.777     1967.120        1.217        0.758       79.727       31.201        0.153      350.126       31.059      864.330
07/27/2014  12:32:00       -4.947       19.935       66.357       36.544       42.548       28.522     1335.446     1810.341      813.503        0.439        0.198       20.540       25.198        1.505      350.641       31.957      864.334
07/27/2014  12:33:00       35.804      -22.227       19.862       66.021       93.534       54.091     4358.737     8748.559     2925.862        0.910        0.802       42.142       68.597        2.650      350.549       31.796      864.325
07/27/2014  12:34:00       83.500      -45.135       13.869       70.749      122.038       85.836     5005.389    14893.300     7367.826        1.823        1.363       94.918       96.649        1.037      350.392       31.520      864.321
07/27/2014  12:35:00      107.308      -57.756       23.702       92.057      138.998       82.158     8474.461    19320.523     6749.903        2.497        1.727      121.864      102.601        0.709      350.401       31.535      864.309
07/27/2014  12:36:00       56.035       86.910      130.897       61.925       97.778       60.127     3834.660     9560.452     3615.203        2.242        0.851      103.408       66.774        0.417      350.274       31.316      864.319
07/27/2014  12:37:00       43.457       96.044      103.160       67.547       66.724       63.879     4562.660     4452.148     4080.482        1.742        0.655      105.418       57.215        0.295      350.039       30.909      864.323
07/27/2014  12:38:00       37.859        8.262       36.401       31.657       30.307       25.848     1002.191      918.520      668.136        0.271        0.129       38.750       16.755        0.187      350.212       31.209      864.324
07/27/2014  12:39:00       34.608        4.472       50.406       35.016       66.820       31.556     1226.110     4464.941      995.768        0.522        0.334       34.896       40.343        1.337      350.277       31.324      864.311
07/27/2014  12:40:00       42.096     -127.870        0.256       55.935       51.267       37.827     3128.746     2628.307     1430.862        1.265        0.359      134.621       29.093        0.047      350.394       31.527      864.290
07/27/2014  12:41:00       22.370       76.625       95.502       47.861       56.843       43.594     2290.652     3231.180     1900.439        1.146        0.371       79.823       34.855        0.191      350.488       31.690      864.296
07/27/2014  12:42:00       42.748       12.647       68.439       51.551       80.824       45.660     2657.496     6532.458     2084.879        0.897        0.564       44.580       52.339        1.378      350.348       31.447      864.295
07/27/2014  12:43:00       69.409      -37.700       30.653       50.788       36.632       30.915     2579.380     1341.884      955.722        0.603        0.244       78.987       13.766        0.030      350.231       31.244      864.290
07/27/2014  12:44:00       64.156       17.601       27.615       63.012       31.032       34.032     3970.503      962.966     1158.155        0.564        0.305       66.526       16.960        0.065      350.483       31.681      864.273
07/27/2014  12:45:00       41.231       44.025       13.981       41.180       50.300       33.639     1695.831     2530.075     1131.571        0.459        0.268       60.317       22.045        0.134      350.559       31.813      864.267
07/27/2014  12:46:00       64.914      -26.332       19.549       76.790       46.816       34.137     5896.770     2191.750     1165.353        0.727        0.463       70.052       28.126        0.161      350.377       31.498      864.265
07/27/2014  12:47:00       16.172      -32.034       37.185       38.694       54.377       36.574     1497.240     2956.910     1337.687        0.423        0.290       35.885       22.005        0.376      350.453       31.628      864.253
07/27/2014  12:48:00       73.149      -62.589       15.987       75.867       64.398       39.902     5755.753     4147.096     1592.158        1.051        0.575       96.271       35.919        0.139      350.274       31.316      864.252
07/27/2014  12:49:00       85.212       -5.618       38.712       74.271       53.376       41.836     5516.197     2849.034     1750.248        0.945        0.506       85.397       41.049        0.231      350.436       31.599      864.235
07/27/2014  12:50:00       87.705       -2.565       38.806       55.792       45.993       36.653     3112.704     2115.396     1343.450        0.789        0.329       87.743       30.808        0.123      350.293       31.352      864.234
07/27/2014  12:51:00       13.964      -31.936       34.002       35.514       73.461       46.046     1261.265     5396.476     2120.257        0.557        0.439       34.855       51.094        2.149      350.639       31.953      864.226
07/27/2014  12:52:00        8.113       -1.713       41.332       28.287       37.132       39.502      800.127     1378.780     1560.397        0.276        0.187        8.291       13.921        2.819      350.718       32.090      864.212
07/27/2014  12:53:00       46.414       -1.228        5.048       39.603       38.978       23.818     1568.420     1519.278      567.279        0.292        0.183       46.431       10.457        0.051      350.492       31.697      864.203
07/27/2014  12:54:00       44.165       25.089       23.943       26.825       25.498       27.928      719.593      650.170      779.973        0.265        0.107       50.794       13.528        0.071      350.366       31.479      864.202
07/27/2014  12:55:00       50.193       -5.443       24.154       30.796       26.622       22.233      948.392      708.714      494.312        0.264        0.108       50.487       18.919        0.140      350.477       31.671      864.179
07/27/2014  12:56:00      106.736       91.668       37.540       56.883       46.754       47.176     3235.715     2185.966     2225.563        1.442        0.382      140.697       42.835        0.093      350.294       31.352      864.159
07/27/2014  12:57:00      130.474       81.393       12.565       87.075       66.250       43.439     7582.052     4388.999     1886.961        1.883        0.693      153.780       32.061        0.043      350.317       31.390      864.147
07/27/2014  12:58:00      136.550      107.297       13.292       51.809       35.607       36.651     2684.165     1267.884     1343.324        1.781        0.265      173.663       22.321        0.017      350.074       30.968      864.134
07/27/2014  12:59:00      -25.393       66.532       -3.748       34.792       58.271       26.831     1210.507     3395.479      719.878        0.520        0.266       71.213       30.030        0.178      350.483       31.680      864.115
07/27/2014  13:00:00      -14.895       37.686       14.321       26.463       40.926       27.856      700.268     1674.922      775.974        0.250        0.158       40.522       29.170        0.518      350.904       32.415      864.099
07/27/2014  13:01:00       -9.879       18.549       26.213       16.196       21.475       16.558      262.312      461.165      274.164        0.106        0.050       21.016        5.635        0.072      351.019       32.613      864.094
07/27/2014  13:02:00       -0.098       27.959       21.513       21.983       21.352       20.568      483.270      455.905      423.033        0.130        0.068       27.959       10.510        0.141      350.962       32.515      864.082
07/27/2014  13:03:00       29.965        0.499       21.230       27.486       20.263       23.030      755.485      410.597      530.391        0.152        0.085       29.969       20.551        0.470      350.462       31.645      864.070
07/27/2014  13:04:00       23.902      -36.138       15.978       36.113       51.466       31.903     1304.174     2648.698     1017.819        0.355        0.249       43.328       26.078        0.362      350.812       32.253      864.049
07/27/2014  13:05:00       39.238      -32.711       12.059       38.486       64.650       46.882     1481.159     4179.664     2197.878        0.531        0.393       51.084       36.125        0.500      350.678       32.021      864.048
07/27/2014  13:06:00       27.360       31.529       44.175       64.389       46.846       34.569     4145.879     2194.565     1195.004        0.561        0.377       41.745       24.916        0.356      350.854       32.328      864.052
07/27/2014  13:07:00       20.477       19.053       38.474       40.455       57.815       35.544     1636.633     3342.576     1263.361        0.425        0.312       27.970       38.856        1.930      350.739       32.127      864.041
07/27/2014  13:08:00      -16.202       19.254       37.257       34.495       54.195       38.371     1189.919     2937.134     1472.364        0.381        0.280       25.164       26.188        1.083      351.020       32.615      864.037
07/27/2014  13:09:00      -48.120       21.314       17.016       45.317       37.415       26.889     2053.616     1399.895      723.007        0.362        0.209       52.629       30.119        0.328      351.091       32.739      864.039
07/27/2014  13:10:00      -21.815      -43.559       13.381       49.204       40.498       23.876     2421.058     1640.059      570.063        0.359        0.232       48.716       17.347        0.127      350.955       32.504      864.046
07/27/2014  13:11:00       -9.704      -51.386       18.741       54.828       42.578       37.465     3006.077     1812.881     1403.652        0.465        0.311       52.294       24.017        0.211      350.700       32.057      864.027
07/27/2014  13:12:00       -8.536     -122.501       14.187       86.933       91.194       45.632     7557.404     8316.399     2082.249        1.661        0.898      122.798       52.239        0.181      350.652       31.975      864.047
07/27/2014  13:13:00      136.491     -215.699      -22.519       58.006       62.340       31.109     3364.682     3886.283      967.784        3.694        0.411      255.257       20.781        0.007      350.251       31.272      864.033
07/27/2014  13:14:00       90.228     -136.123       -0.093       62.144       63.832       34.528     3861.917     4074.571     1192.182        1.790        0.456      163.311       28.632        0.031      350.652       31.972      864.007
07/27/2014  13:15:00       13.420       38.268      103.366       46.260       80.975       37.348     2139.974     6556.962     1394.902        1.121        0.505       40.553       43.954        1.175      351.245       33.009      864.013
07/27/2014  13:16:00      -14.713      -34.178       45.848       49.706       99.170       57.867     2470.641     9834.731     3348.626        0.957        0.783       37.210       66.095        3.155      351.196       32.922      864.002
07/27/2014  13:17:00        9.667      -57.724       15.189       51.057       90.901       46.620     2606.856     8262.945     2173.402        0.835        0.652       58.528       57.401        0.962      350.799       32.229      864.003
07/27/2014  13:18:00       49.687      -97.090        0.152       61.810       47.227       43.423     3820.479     2230.409     1885.517        0.991        0.397      109.065       30.269        0.077      350.923       32.447      863.994
07/27/2014  13:19:00       62.397      -82.619       26.978       78.650      107.614       85.746     6185.797    11580.866     7352.351        1.828        1.256      103.534       75.160        0.527      351.104       32.762      863.984
07/27/2014  13:20:00       50.818      -14.097       60.852       79.124      106.461       79.029     6260.539    11333.855     6245.577        1.516        1.192       52.737       86.247        2.675      351.120       32.789      863.977
07/27/2014  13:21:00      110.344       57.672       48.944       80.431       69.752       79.706     6469.199     4865.286     6353.087        1.779        0.884      124.506       47.923        0.148      350.788       32.211      863.984
07/27/2014  13:22:00      147.763      -39.620       47.502      136.797      102.171       84.921    18713.288    10438.863     7211.549        3.100        1.818      152.983      108.921        0.507      350.746       32.137      863.955
07/27/2014  13:23:00       87.426      -84.807       11.696       70.562      126.576       82.554     4978.970    16021.459     6815.138        2.139        1.391      121.801       91.239        0.561      351.018       32.610      863.954
07/27/2014  13:24:00        8.564       45.592       71.553       29.263       32.140       15.445      856.296     1032.959      238.533        0.470        0.106       46.390       15.367        0.110      350.723       32.099      863.952
07/27/2014  13:25:00       -9.833       67.253        4.518       39.497       31.908       34.731     1560.018     1018.142     1206.266        0.421        0.189       67.968       10.445        0.024      350.641       31.956      863.928
07/27/2014  13:26:00      -86.583       30.962       11.028       66.570       42.148       35.422     4431.543     1776.435     1254.694        0.802        0.373       91.952       40.689        0.196      350.805       32.240      863.899
07/27/2014  13:27:00       28.032      -40.288       27.870       30.050       38.360       18.711      903.008     1471.506      350.098        0.295        0.136       49.080       12.984        0.070      350.735       32.120      863.895
07/27/2014  13:28:00       -4.024      -17.827       13.752       27.175       21.828       19.046      738.490      476.449      362.739        0.105        0.079       18.276       16.082        0.774      351.376       33.235      863.894
07/27/2014  13:29:00       14.376       37.561       29.955       35.930       29.448       24.708     1290.967      867.170      610.464        0.264        0.138       40.218       16.768        0.174      351.021       32.619      863.880
07/27/2014  13:30:00       62.591       27.636       17.271       67.928       47.767       44.707     4614.168     2281.641     1998.676        0.694        0.445       68.420       41.890        0.375      351.081       32.722      863.873
07/27/2014  13:31:00       98.600      103.156       22.880       55.092       31.087       48.306     3035.094      966.427     2333.448        1.361        0.317      142.699       30.090        0.044      350.443       31.608      863.868
07/27/2014  13:32:00       35.112      102.363      -13.351       35.216       37.043       27.862     1240.178     1372.193      776.298        0.764        0.169      108.218       19.679        0.033      350.599       31.884      863.851
07/27/2014  13:33:00       44.008       39.548        5.888       47.130       34.811       25.273     2221.201     1211.819      638.749        0.380        0.204       59.168       12.582        0.045      350.932       32.464      863.846
07/27/2014  13:34:00       38.007        8.924       30.396       63.217       48.080       28.000     3996.451     2311.679      783.978        0.477        0.355       39.041       15.388        0.155      350.956       32.505      863.833
07/27/2014  13:35:00      196.270      113.976       25.869       85.481       61.971       53.063     7306.924     3840.398     2815.629        3.307        0.698      226.963       32.501        0.021      350.647       31.964      863.827
07/27/2014  13:36:00      110.768       61.328        4.037       72.189       46.327       50.005     5211.212     2146.212     2500.504        1.295        0.493      126.613       28.711        0.051      350.888       32.384      863.827
07/27/2014  13:37:00      108.260       94.641       49.891       69.006       50.120       66.531     4761.832     2511.969     4426.360        1.743        0.585      143.795       58.135        0.163      350.592       31.870      863.824
07/27/2014  13:38:00      104.784       82.631       54.285       62.232       37.652       39.900     3872.840     1417.668     1592.006        1.382        0.344      133.446       41.837        0.098      350.411       31.555      863.821
07/27/2014  13:39:00      126.273       84.373       29.959       56.685       61.440       40.189     3213.158     3774.868     1615.185        1.628        0.430      151.867       26.543        0.031      350.824       32.273      863.804
07/27/2014  13:40:00       76.273       83.964        1.882       41.537       30.902       38.674     1725.326      954.943     1495.690        0.852        0.209      113.435       18.726        0.027      350.648       31.970      863.802
07/27/2014  13:41:00       46.182       12.953       12.794       34.719       31.678       22.840     1205.408     1003.466      521.648        0.260        0.137       47.964       14.982        0.098      350.872       32.358      863.782
07/27/2014  13:42:00       67.638       69.967       64.396       71.236       56.590       50.094     5074.591     3202.406     2509.392        1.220        0.539       97.315       37.242        0.146      350.876       32.364      863.759
07/27/2014  13:43:00       92.986       67.865       24.383       68.829       52.901       48.469     4737.369     2798.526     2349.274        1.186        0.494      115.118       18.653        0.026      350.839       32.300      863.753
07/27/2014  13:44:00      -18.641       75.208        0.599       27.500       36.351       27.123      756.271     1321.399      735.677        0.441        0.141       77.484       24.724        0.102      350.854       32.327      863.721
07/27/2014  13:45:00       23.769       18.654        7.340       42.072       32.742       28.335     1770.089     1072.008      802.856        0.231        0.182       30.214       23.177        0.588      351.159       32.858      863.704
07/27/2014  13:46:00       64.920       59.359       -7.709       57.021       59.466       39.689     3251.388     3536.158     1575.191        0.808        0.418       87.967       29.083        0.109      351.325       33.147      863.698
07/27/2014  13:47:00       38.078      103.111        5.361       69.617       74.760       41.584     4846.516     5589.099     1729.244        1.214        0.608      109.917       40.199        0.134      350.984       32.553      863.665
07/27/2014  13:48:00      -26.577      189.559      -19.704       49.452       75.524       32.629     2445.506     5703.847     1064.662        2.312        0.461      191.413       32.273        0.028      350.888       32.386      863.652
07/27/2014  13:49:00      -48.953      245.108      -17.957       36.425       58.140       31.322     1326.766     3380.258      981.096        3.424        0.284      249.948       28.415        0.013      350.760       32.160      863.631
07/27/2014  13:50:00      -68.011      234.494      -12.245       56.675      144.795       57.596     3212.003    20965.618     3317.251        4.362        1.375      244.157       77.131        0.100      351.103       32.761      863.609
07/27/2014  13:51:00       60.327      115.759        2.148       91.585       81.422       63.786     8387.809     6629.585     4068.633        1.806        0.954      130.535       55.689        0.182      351.261       33.034      863.587
07/27/2014  13:52:00       64.254      133.317      -10.855       81.258      130.028       61.263     6602.867    16907.186     3753.201        2.464        1.363      147.993       70.540        0.227      351.087       32.731      863.563
07/27/2014  13:53:00       29.937      135.054        0.950       78.474       90.109       56.940     6158.173     8119.625     3242.186        1.832        0.876      138.332       48.300        0.122      351.039       32.647      863.555
07/27/2014  13:54:00      -44.012      176.027      -21.213       58.708       76.286       40.149     3446.620     5819.545     1611.979        2.212        0.544      181.445       41.797        0.053      350.934       32.463      863.537
07/27/2014  13:55:00       28.115      144.698       -3.541       58.831       83.345       50.972     3461.120     6946.382     2598.097        1.737        0.650      147.404       43.191        0.086      350.891       32.389      863.523
07/27/2014  13:56:00       16.911      179.458      -24.236       53.667      100.519       37.772     2880.188    10104.093     1426.731        2.374        0.721      180.253       42.653        0.056      350.752       32.147      863.501
07/27/2014  13:57:00       59.243      138.638       -0.058       71.881       92.530       67.694     5166.847     8561.803     4582.516        2.052        0.916      150.765       61.259        0.165      351.107       32.766      863.475
07/27/2014  13:58:00       38.190      171.616      -18.794       56.916       67.886       46.739     3239.408     4608.499     2184.491        2.065        0.502      175.814       40.714        0.054      350.988       32.558      863.469
07/27/2014  13:59:00       38.977       88.439        1.922       55.215       66.944       41.504     3048.661     4481.465     1722.583        0.930        0.463       96.648       40.600        0.176      351.209       32.946      863.459
07/27/2014  14:00:00       60.258      184.549       -2.898       79.734      113.841       68.734     6357.507    12959.714     4724.319        3.086        1.202      194.138       68.858        0.126      351.008       32.592      863.450
07/27/2014  14:01:00       36.271      215.508      -16.365       55.071      124.153       45.759     3032.823    15413.854     2093.842        3.428        1.027      218.539       50.796        0.054      351.025       32.622      863.470
07/27/2014  14:02:00       28.269      149.829      -23.745       61.668       99.865       36.365     3802.992     9973.108     1322.382        1.945        0.755      152.473       41.812        0.075      351.104       32.759      863.458
07/27/2014  14:03:00      -15.768      140.951      -25.281       57.291       68.875       37.056     3282.207     4743.750     1373.167        1.508        0.470      141.830       31.543        0.049      351.163       32.865      863.453
07/27/2014  14:04:00       25.160      173.129      -16.183       74.347      106.090       54.753     5527.493    11255.122     2997.872        2.532        0.989      174.947       56.254        0.103      351.155       32.851      863.449
07/27/2014  14:05:00      -39.382      202.507      -28.057       46.918       45.538       27.372     2201.341     2073.690      749.226        2.418        0.251      206.301       18.637        0.008      350.766       32.171      863.454
07/27/2014  14:06:00     -104.348      172.248      -24.281       46.785       93.437       45.020     2188.797     8730.555     2026.768        2.704        0.647      201.390       42.098        0.044      351.132       32.809      863.435
07/27/2014  14:07:00      -38.412      270.878      -41.022       63.972       78.706       34.617     4092.433     6194.563     1198.345        4.401        0.574      273.588       25.877        0.009      350.800       32.229      863.447
07/27/2014  14:08:00      -42.936      253.442      -40.921       45.499       63.735       26.886     2070.162     4062.194      722.849        3.730        0.343      257.054       25.424        0.010      350.677       32.014      863.438
07/27/2014  14:09:00      -15.834      198.607      -36.446       43.038       79.752       27.786     1852.271     6360.331      772.034        2.500        0.449      199.237       21.729        0.012      350.702       32.059      863.428
07/27/2014  14:10:00       -2.904      184.635      -21.953       41.576       68.892       41.260     1728.538     4746.077     1702.372        2.138        0.409      184.658       42.645        0.053      350.906       32.414      863.409
07/27/2014  14:11:00       23.246      196.400      -24.193       48.008       60.626       32.767     2304.726     3675.547     1073.649        2.337        0.353      197.770       30.391        0.024      350.891       32.388      863.411
07/27/2014  14:12:00       -0.243      175.334      -29.148       51.891       67.206       30.715     2692.690     4516.605      943.415        1.987        0.408      175.334       29.788        0.029      350.880       32.369      863.390
07/27/2014  14:13:00      -76.473       50.223      -11.091       57.746       66.914       38.033     3334.570     4477.512     1446.473        0.887        0.463       91.490       36.197        0.157      350.963       32.516      863.365
07/27/2014  14:14:00        5.935      150.798      -21.232       47.237       60.234       33.152     2231.315     3628.153     1099.026        1.509        0.348      150.915       33.255        0.049      351.026       32.626      863.361
07/27/2014  14:15:00       22.679       81.082       10.106       75.356       64.957       42.066     5678.578     4219.389     1769.588        0.943        0.583       84.194       39.151        0.216      351.476       33.409      863.345
07/27/2014  14:16:00       80.963      106.118       -2.563       76.569       68.293       54.751     5862.829     4663.940     2997.663        1.567        0.676      133.476       35.304        0.070      351.334       33.162      863.336
07/27/2014  14:17:00      145.740      135.010        9.538       82.210       68.277       56.354     6758.539     4661.696     3175.818        2.707        0.730      198.665       45.883        0.053      351.002       32.581      863.349
07/27/2014  14:18:00       77.233       88.720       -4.085       63.689       48.821       39.505     4056.316     2383.484     1560.671        1.093        0.400      117.627       33.962        0.083      351.108       32.768      863.339
07/27/2014  14:19:00      138.463      114.392       12.213      110.087       69.446       59.452    12119.232     4822.697     3534.559        2.644        1.024      179.604       39.271        0.048      351.325       33.145      863.332
07/27/2014  14:20:00       43.561      115.672       12.846       62.694       82.119       55.270     3930.523     6743.484     3054.744        1.458        0.686      123.603       49.610        0.161      351.376       33.234      863.334
07/27/2014  14:21:00       87.805       60.807       44.989       86.231       76.898       56.788     7435.810     5913.323     3224.900        1.500        0.829      106.805       29.884        0.078      351.482       33.420      863.322
07/27/2014  14:22:00       35.628      142.563      166.553       74.466       90.012       63.202     5545.221     8102.194     3994.543        3.348        0.882      146.948       66.384        0.204      350.908       32.418      863.311
07/27/2014  14:23:00      122.606      -59.021       31.553       61.500       60.962       49.964     3782.236     3716.355     2496.438        1.475        0.500      136.073       39.313        0.083      350.849       32.318      863.324
07/27/2014  14:24:00       99.213      -30.963       43.129       49.571       76.974       48.643     2457.313     5924.960     2366.137        1.170        0.537      103.933       48.390        0.217      351.130       32.808      863.308
07/27/2014  14:25:00      127.520      -36.244       25.902       62.280       69.420       38.985     3878.743     4819.166     1519.869        1.423        0.511      132.571       41.688        0.099      351.121       32.791      863.283
07/27/2014  14:26:00       62.067      -14.401       21.176       61.533       56.280       43.324     3786.249     3167.465     1876.932        0.667        0.442       63.716       31.112        0.238      351.260       33.035      863.265
07/27/2014  14:27:00      111.306       84.084       57.937       59.806       48.175       39.240     3576.722     2320.844     1539.783        1.513        0.372      139.496       28.834        0.043      351.136       32.818      863.247
07/27/2014  14:28:00       39.746       25.240       21.085       53.050       67.278       39.818     2814.307     4526.385     1585.448        0.579        0.446       47.083       28.674        0.371      351.502       33.455      863.238
07/27/2014  14:29:00       22.814      -53.323       -1.608       57.801       43.524       29.692     3340.958     1894.306      881.586        0.474        0.306       57.998       17.139        0.087      350.792       32.219      863.222
07/27/2014  14:30:00       24.675       -3.088       35.379       29.542       33.422       24.198      872.721     1117.061      585.536        0.222        0.129       24.868       15.520        0.390      351.381       33.245      863.207
07/27/2014  14:31:00       -8.020      -43.392       12.290       22.554       69.760       35.641      508.696     4866.514     1270.245        0.437        0.332       44.127       43.635        0.978      351.215       32.955      863.208
07/27/2014  14:32:00       42.827      -22.255       27.980       49.237       41.135       39.374     2424.275     1692.113     1550.341        0.439        0.283       48.264       28.428        0.347      351.415       33.305      863.196
07/27/2014  14:33:00      106.253     -105.667      -11.377       70.562      101.079       46.977     4979.025    10217.056     2206.793        1.999        0.870      149.850       60.837        0.165      351.189       32.909      863.188
07/27/2014  14:34:00       53.074     -151.270      -10.284       55.428       94.199       44.249     3072.262     8873.449     1957.972        1.985        0.695      160.311       40.120        0.063      351.228       32.976      863.175
07/27/2014  14:35:00       67.602     -115.372        0.155      100.085       96.928       72.346    10016.947     9395.092     5233.877        2.126        1.232      133.719       80.549        0.363      351.525       33.495      863.159
07/27/2014  14:36:00      115.154      -68.796       -9.025      104.412      171.521       75.901    10901.929    29419.350     5760.914        3.207        2.304      134.139       77.805        0.336      351.276       33.061      863.127
07/27/2014  14:37:00       99.041       50.820        9.603       64.696       49.527       42.751     4185.564     2452.939     1827.666        1.047        0.423      111.319       22.999        0.043      351.408       33.292      863.141
07/27/2014  14:38:00       83.527       32.024        7.547       66.723       56.811       37.378     4451.934     3227.538     1397.103        0.857        0.454       89.456       29.350        0.108      351.480       33.418      863.122
07/27/2014  14:39:00       96.683       64.814       66.185       80.978       67.992       61.208     6557.488     4622.871     3746.415        1.642        0.746      116.398       41.032        0.124      351.368       33.221      863.112
07/27/2014  14:40:00       58.660       18.866       74.133       80.724       71.250       59.047     6516.312     5076.607     3486.585        1.218        0.754       61.619       56.361        0.837      351.406       33.287      863.088
07/27/2014  14:41:00      136.220       66.815       30.447       73.354       63.510       73.908     5380.824     4033.583     5462.459        1.941        0.744      151.724       52.577        0.120      351.016       32.607      863.084
07/27/2014  14:42:00       23.373       21.587       35.084       29.713       37.954       25.737      882.842     1440.489      662.415        0.261        0.149       31.817       20.341        0.409      351.550       33.541      863.083
07/27/2014  14:43:00       14.264      -29.678        9.643       27.687       27.108       19.957      766.582      734.861      398.273        0.154        0.095       32.928       12.856        0.152      351.185       32.903      863.090
07/27/2014  14:44:00      -14.575       23.216       16.019       21.319       24.297       20.909      454.506      590.330      437.201        0.124        0.074       27.412       14.335        0.273      351.397       33.274      863.108
07/27/2014  14:45:00       14.612        4.862       31.918       38.633       38.363       38.212     1492.512     1471.694     1460.164        0.284        0.221       15.400       30.885        4.022      351.002       32.584      863.094
07/27/2014  14:46:00        4.219       27.344       43.995       20.866       28.849       25.040      435.386      832.273      627.003        0.230        0.095       27.668       15.568        0.317      351.086       32.731      863.097
07/27/2014  14:47:00      -59.741      -15.360       13.898       62.723       41.207       31.570     3934.208     1698.006      996.682        0.531        0.331       61.684       40.691        0.435      351.140       32.825      863.087
07/27/2014  14:48:00        7.868       -2.376        3.457       36.037       27.703       27.119     1298.682      767.482      735.455        0.144        0.140        8.219        9.364        1.298      351.080       32.720      863.085
07/27/2014  14:49:00       -3.408      -35.739       -3.379       38.920       49.426       30.945     1514.801     2442.937      957.606        0.311        0.246       35.901       18.288        0.259      350.904       32.412      863.073
07/27/2014  14:50:00      -81.780      -93.646       -0.581       50.713       68.433       41.715     2571.798     4683.103     1740.171        1.222        0.450      124.328       25.742        0.043      351.096       32.747      863.073
07/27/2014  14:51:00      -80.076      -43.861       -1.368       41.437       38.419       22.302     1717.059     1475.990      497.385        0.601        0.185       91.302       19.064        0.044      351.163       32.865      863.067
07/27/2014  14:52:00      -41.258      -48.424       -4.573       69.335       52.728       31.633     4807.315     2780.207     1000.634        0.633        0.429       63.617       16.111        0.064      351.084       32.728      863.064
07/27/2014  14:53:00      -16.132      -57.961      -21.694       55.821       45.766       42.354     3116.006     2094.545     1793.873        0.555        0.350       60.164       25.410        0.178      351.119       32.789      863.058
07/27/2014  14:54:00       97.408     -115.069      -31.081       88.336       64.773       37.789     7803.210     4195.518     1428.032        1.856        0.671      150.762       43.615        0.084      351.129       32.804      863.047
07/27/2014  14:55:00        8.024      -50.756       14.952       52.852       53.082       27.720     2793.345     2817.738      768.392        0.462        0.319       51.386       20.801        0.164      351.445       33.356      863.044
07/27/2014  14:56:00      -57.290      -53.379        4.751       59.897       37.161       26.699     3587.594     1380.930      712.851        0.592        0.284       78.303       19.690        0.063      351.071       32.705      863.042
07/27/2014  14:57:00        3.114      -86.739      -10.498       51.545       68.263       38.069     2656.932     4659.771     1449.239        0.820        0.438       86.795       32.140        0.137      351.311       33.122      863.023
07/27/2014  14:58:00      -61.621      -83.036       18.948       47.645       43.141       38.945     2270.012     1861.127     1516.728        0.835        0.282      103.403       21.848        0.045      351.212       32.951      863.007
07/27/2014  14:59:00      -20.031      -18.095       16.393       29.850       35.005       22.647      891.023     1225.319      512.908        0.181        0.131       26.994       19.053        0.498      351.169       32.875      862.997
07/27/2014  15:00:00       43.488      -74.615       -0.225       59.209       56.344       37.085     3505.731     3174.649     1375.283        0.776        0.403       86.363       31.408        0.132      350.877       32.368      862.987
07/27/2014  15:01:00       81.532      -95.512        8.671       52.805       64.195       39.367     2788.383     4121.013     1549.792        1.215        0.423      125.579       31.371        0.062      350.996       32.573      862.964
07/27/2014  15:02:00      148.301     -182.473      -17.526       60.113       45.425       35.065     3613.611     2063.476     1229.539        3.125        0.345      235.137       32.943        0.020      350.964       32.516      862.940
07/27/2014  15:03:00       60.154     -116.117      -10.370       44.062       46.854       33.287     1941.446     2195.282     1108.054        1.123        0.262      130.773       31.246        0.057      350.993       32.569      862.933
07/27/2014  15:04:00       35.397      -64.789       33.987       46.146       47.350       36.845     2129.449     2242.005     1357.586        0.617        0.286       73.828       33.852        0.210      351.270       33.052      862.912
07/27/2014  15:05:00       -4.484      -51.309        9.766       30.788       35.103       25.809      947.875     1232.252      666.092        0.280        0.142       51.505       21.016        0.167      351.326       33.149      862.891
07/27/2014  15:06:00       35.705      -55.132        1.184       28.995       32.278       25.064      840.701     1041.860      628.180        0.341        0.126       65.684       19.421        0.087      351.131       32.809      862.886
07/27/2014  15:07:00       33.979       -9.136       17.182       41.326       60.925       30.734     1707.851     3711.850      944.585        0.395        0.318       35.186       14.310        0.165      350.958       32.508      862.873
07/27/2014  15:08:00        9.357      -80.265       11.110       51.555      100.179       48.724     2657.953    10035.876     2373.994        1.086        0.753       80.808       44.588        0.304      351.001       32.583      862.847
07/27/2014  15:09:00      -59.622      -33.998        7.330       68.723       59.920       37.263     4722.808     3590.425     1388.553        0.723        0.485       68.634       30.270        0.195      351.283       33.073      862.831
07/27/2014  15:10:00      -40.707       14.539       16.251       53.242       44.986       33.105     2834.683     2023.777     1095.926        0.404        0.298       43.226       25.107        0.337      351.373       33.231      862.832
07/27/2014  15:11:00     -105.482      -59.471        6.267       69.227       45.970       34.225     4792.425     2113.285     1171.336        1.139        0.404      121.092       35.352        0.085      351.264       33.042      862.827
07/27/2014  15:12:00     -101.845      -82.904        6.904       68.423       58.846       38.202     4681.650     3462.819     1459.420        1.345        0.480      131.322       43.655        0.111      351.186       32.904      862.826
07/27/2014  15:13:00     -160.697     -105.094       -9.633       52.717       42.576       25.296     2779.073     1812.720      639.884        2.110        0.262      192.011       21.693        0.013      351.065       32.694      862.807
07/27/2014  15:14:00     -182.893     -110.569       -8.618       78.814       59.483       41.749     6211.683     3538.269     1742.985        2.862        0.575      213.718       42.120        0.039      351.134       32.810      862.793
07/27/2014  15:15:00     -100.364      -70.785        7.218       64.715       46.304       30.548     4188.025     2144.025      933.190        1.120        0.363      122.814       30.680        0.062      351.153       32.847      862.793
07/27/2014  15:16:00     -134.890      -72.149       -2.561       46.494       68.198       28.883     2161.695     4651.033      834.219        1.553        0.382      152.973       28.687        0.035      351.190       32.910      862.793
07/27/2014  15:17:00      -71.705     -107.580       17.206       70.739       73.005       35.165     5004.026     5329.716     1236.544        1.429        0.579      129.287       35.745        0.076      351.173       32.881      862.794
07/27/2014  15:18:00     -111.347     -116.420        3.066       76.377       95.449       41.010     5833.458     9110.445     1681.847        2.129        0.831      161.095       39.815        0.061      351.179       32.891      862.790
07/27/2014  15:19:00     -195.457     -130.344       -3.940       75.010       69.719       43.430     5626.464     4860.774     1886.207        3.379        0.619      234.932       37.331        0.025      351.102       32.755      862.782
07/27/2014  15:20:00     -185.927     -109.296       -0.195       83.695       55.040       36.830     7004.788     3029.445     1356.464        2.895        0.570      215.673       34.402        0.025      351.083       32.722      862.776
07/27/2014  15:21:00     -180.065      -80.442        2.726       65.684       47.949       34.408     4314.335     2299.084     1183.915        2.335        0.390      197.217       33.781        0.029      351.036       32.641      862.771
07/27/2014  15:22:00     -145.109      -47.777       -3.040       62.145       52.690       31.476     3862.033     2776.196      990.732        1.549        0.381      152.772       33.544        0.048      351.079       32.718      862.758
07/27/2014  15:23:00     -188.998      -21.361       -9.565       56.566       40.157       27.003     3199.732     1612.556      729.173        2.090        0.277      190.201       21.614        0.013      351.109       32.769      862.757
07/27/2014  15:24:00     -171.896     -128.553      -11.147       63.388       54.974       34.431     4018.059     3022.097     1185.484        2.721        0.411      214.649       31.653        0.022      351.141       32.822      862.758
07/27/2014  15:25:00     -155.861      -80.156        2.368       64.418       57.607       30.312     4149.693     3318.540      918.811        1.955        0.419      175.265       26.830        0.023      351.175       32.886      862.754
07/27/2014  15:26:00      -42.093      -69.105        8.295       28.703       38.300       17.993      823.849     1466.870      323.740        0.461        0.131       80.915       10.861        0.018      351.201       32.932      862.755
07/27/2014  15:27:00      -31.671      -52.092        9.251       55.910       54.298       37.274     3125.908     2948.282     1389.325        0.563        0.373       60.964       41.237        0.458      351.317       33.136      862.751
07/27/2014  15:28:00      -82.397      -18.558        3.987       45.265       53.243       31.896     2048.938     2834.776     1017.363        0.652        0.295       84.461       27.328        0.105      351.204       32.937      862.752
07/27/2014  15:29:00      -42.974        1.247       -1.337       31.973       17.164       18.026     1022.302      294.609      324.927        0.175        0.082       42.993       12.399        0.083      351.136       32.818      862.741
07/27/2014  15:30:00       31.225        8.433        8.191       24.113       17.407       17.778      581.460      303.011      316.067        0.116        0.060       32.343        6.581        0.041      350.653       31.978      862.731
07/27/2014  15:31:00       -7.377      -71.913        1.762       51.002       62.484       28.306     2601.243     3904.234      801.252        0.627        0.365       72.290       14.041        0.038      350.929       32.458      862.725
07/27/2014  15:32:00     -110.395     -143.235       11.334       87.272       73.303       31.324     7616.480     5373.318      981.191        2.340        0.699      180.841       23.012        0.016      351.155       32.847      862.708
07/27/2014  15:33:00     -152.792      -86.556        6.986       79.050       53.172       43.082     6248.869     2827.242     1856.079        2.091        0.547      175.606       40.509        0.053      351.209       32.941      862.707
07/27/2014  15:34:00     -126.348      -88.540       -7.361       53.177       53.775       34.491     2827.827     2891.785     1189.607        1.538        0.345      154.283       33.627        0.048      351.177       32.890      862.702
07/27/2014  15:35:00     -144.471     -102.910        4.122       67.740       63.843       44.686     4588.670     4075.992     1996.815        2.107        0.533      177.376       45.357        0.065      351.183       32.898      862.680
07/27/2014  15:36:00     -129.821        9.999      -16.811       47.207       48.909       14.529     2228.462     2392.110      211.091        1.103        0.242      130.205       13.209        0.010      351.127       32.801      862.662
07/27/2014  15:37:00      -55.266        6.115       11.062       43.234       26.883       27.748     1869.164      722.678      769.959        0.329        0.168       55.603       26.816        0.233      351.518       33.484      862.655
07/27/2014  15:38:00     -104.787     -125.351       -2.194       72.459       83.218       30.372     5250.255     6925.221      922.466        1.990        0.655      163.381       38.193        0.055      351.477       33.410      862.654
07/27/2014  15:39:00      -82.699      -91.023        7.222       82.323       60.350       39.013     6777.028     3642.144     1522.046        1.356        0.597      122.981       36.891        0.090      351.453       33.369      862.647
07/27/2014  15:40:00      -24.129      -81.860      -12.987       45.927       37.950       32.967     2109.265     1440.188     1086.824        0.604        0.232       85.342       13.899        0.027      351.530       33.507      862.642
07/27/2014  15:41:00        0.635      -51.399       20.704       51.296       81.532       34.740     2631.243     6647.491     1206.890        0.678        0.524       51.403       43.664        0.722      351.353       33.198      862.619
07/27/2014  15:42:00       -8.779      -96.843        1.576       65.142       66.200       48.832     4243.458     4382.462     2384.546        1.023        0.551       97.240       33.732        0.120      351.250       33.015      862.602
07/27/2014  15:43:00       55.765      -28.502       38.875       61.538       73.912       54.564     3786.906     5463.057     2977.251        0.883        0.611       62.627       50.826        0.659      351.333       33.161      862.601
07/27/2014  15:44:00        2.233       77.969      100.575       28.356       45.609       24.823      804.060     2080.164      616.193        0.985        0.175       78.001       25.080        0.103      351.060       32.683      862.612
07/27/2014  15:45:00       97.968     -112.418      -23.344       86.773      116.037       59.967     7529.470    13464.696     3596.049        2.368        1.230      149.116       79.074        0.281      351.244       33.002      862.612
07/27/2014  15:46:00       65.926      -69.698       12.680       70.857       90.698       61.324     5020.784     8226.197     3760.620        1.318        0.850       95.938       55.187        0.331      351.327       33.149      862.597
07/27/2014  15:47:00      113.604     -108.907       14.748       73.614      136.309       80.261     5418.964    18580.116     6441.874        2.771        1.522      157.374       98.987        0.396      351.472       33.400      862.588
07/27/2014  15:48:00       31.269       48.471       52.944       62.917       68.879       65.874     3958.516     4744.257     4339.329        0.958        0.652       57.682       56.611        0.963      351.423       33.317      862.586
07/27/2014  15:49:00       -1.538      -71.777       29.186       44.502       52.460       32.893     1980.389     2752.032     1081.922        0.591        0.291       71.794       19.120        0.071      351.414       33.303      862.583
07/27/2014  15:50:00      -27.743     -133.315      -15.604       53.746       59.675       39.221     2888.603     3561.113     1538.266        1.339        0.399      136.171       26.279        0.037      351.386       33.253      862.590
07/27/2014  15:51:00     -159.256     -140.142        9.054      105.373       77.721       41.129    11103.443     6040.628     1691.609        3.196        0.942      212.138       39.917        0.035      351.352       33.192      862.606
07/27/2014  15:52:00     -112.297      -57.249       13.005       70.697       57.203       32.208     4998.008     3272.177     1037.377        1.268        0.465      126.048       38.618        0.094      351.429       33.328      862.606
07/27/2014  15:53:00      -14.435      -51.622        8.297       28.099       26.641       20.079      789.576      709.739      403.176        0.242        0.095       53.602       12.248        0.052      351.450       33.365      862.603
07/27/2014  15:54:00      -12.882      -83.983       -3.353       29.145       42.260       19.376      849.426     1785.875      375.420        0.512        0.151       84.965       15.632        0.034      351.208       32.941      862.601
07/27/2014  15:55:00       40.604      -15.975        8.073       24.577       36.190       31.555      604.053     1309.742      995.724        0.244        0.145       43.633       30.093        0.476      350.739       32.127      862.584
07/27/2014  15:56:00       58.340       10.387       17.686       29.955       18.791       23.861      897.324      353.096      569.357        0.282        0.091       59.258       15.756        0.071      350.525       31.753      862.566
07/27/2014  15:57:00       45.066      -17.020       26.245       29.399       30.927       20.003      864.293      956.498      400.123        0.261        0.111       48.173        8.072        0.028      351.101       32.758      862.556
07/27/2014  15:58:00       39.833       17.489       37.338       36.635       25.980       21.539     1342.156      674.951      463.915        0.288        0.124       43.503       14.502        0.111      350.954       32.502      862.552
07/27/2014  15:59:00       33.099       36.459        9.626       18.917       21.227       23.144      357.849      450.589      535.664        0.193        0.067       49.243       15.518        0.099      350.883       32.377      862.548
07/27/2014  16:00:00        9.041       11.480       20.206       12.127       17.310       12.457      147.072      299.620      155.167        0.061        0.030       14.612        7.201        0.243      350.857       32.332      862.561
07/27/2014  16:01:00       17.299     -101.379       -2.012       23.042       44.713       23.352      530.947     1999.231      545.305        0.683        0.154      102.844       11.914        0.013      351.054       32.675      862.569
07/27/2014  16:02:00       39.012      -52.655       16.017       41.865       58.124       36.287     1752.683     3378.388     1316.711        0.550        0.322       65.533       35.983        0.301      351.159       32.857      862.567
07/27/2014  16:03:00       32.620      -90.589       17.105       54.078       49.734       27.006     2924.383     2473.483      729.344        0.784        0.306       96.283       28.594        0.088      351.127       32.803      862.568
07/27/2014  16:04:00       -1.910       -5.680       22.252       23.802       25.538       15.808      566.552      652.174      249.904        0.100        0.073        5.993       15.588        6.766      351.296       33.097      862.568
07/27/2014  16:05:00        2.018      -59.535       -5.334       17.629       39.922       25.855      310.799     1593.747      668.468        0.307        0.129       59.570       28.532        0.229      350.946       32.487      862.559
07/27/2014  16:06:00       15.392       -7.088       28.517       33.871       38.792       29.697     1147.272     1504.809      881.908        0.232        0.177       16.946       23.190        1.873      351.164       32.867      862.543
07/27/2014  16:07:00       21.097      -34.962        0.274       50.361       53.328       36.149     2536.186     2843.917     1306.756        0.418        0.334       40.834       36.340        0.792      350.887       32.383      862.538
07/27/2014  16:08:00        7.711      -93.635       11.307       38.828       71.602       30.591     1507.633     5126.849      935.804        0.826        0.379       93.952       17.226        0.034      351.167       32.873      862.550
07/27/2014  16:09:00      -60.349      -76.042       16.093       68.707       67.509       34.896     4720.603     4557.398     1217.723        1.009        0.525       97.080       28.677        0.087      351.330       33.157      862.551
07/27/2014  16:10:00      -42.863     -140.087       12.695       58.367       63.711       31.124     3406.716     4059.093      968.693        1.503        0.422      146.498       25.142        0.029      351.302       33.104      862.558
07/27/2014  16:11:00      -61.265     -123.139       -1.987       51.546       49.449       28.300     2656.993     2445.196      800.864        1.241        0.295      137.538       24.720        0.032      351.219       32.962      862.564
07/27/2014  16:12:00     -167.100     -218.428      -19.049       77.309       52.749       34.773     5976.753     2782.485     1209.169        4.298        0.498      275.015       29.448        0.011      351.263       33.034      862.557
07/27/2014  16:13:00     -182.031     -125.634       -1.699       92.866       82.037       42.414     8624.178     6729.997     1798.935        3.303        0.858      221.177       42.978        0.038      351.262       33.034      862.564
07/27/2014  16:14:00     -162.417      -19.858       -7.039       55.470       63.111       32.117     3076.915     3983.022     1031.474        1.746        0.405      163.627       27.276        0.028      351.377       33.236      862.575
07/27/2014  16:15:00     -164.197      -86.683        1.569       73.431       58.002       40.981     5392.072     3364.183     1679.481        2.245        0.522      185.673       34.867        0.035      351.395       33.267      862.575
07/27/2014  16:16:00      -53.876      -35.486       16.949       88.967       66.088       42.539     7915.156     4367.627     1809.529        0.927        0.705       64.513       46.824        0.527      351.306       33.114      862.569
07/27/2014  16:17:00      -87.696      -59.200        7.378       81.423       65.254       30.484     6629.747     4258.026      929.277        1.153        0.591      105.807       34.591        0.107      351.255       33.025      862.570
07/27/2014  16:18:00      -72.218        0.135       16.002       92.616       62.194       40.197     8577.808     3868.039     1615.816        0.976        0.703       72.218       46.625        0.417      351.211       32.948      862.556
07/27/2014  16:19:00     -374.197       12.331      -35.372      144.744      105.867       60.492    20950.957    11207.793     3659.313        8.862        1.791      374.400       62.440        0.028      351.236       32.989      862.535
07/27/2014  16:20:00     -171.124      -44.536       -1.541      111.955      123.601       59.164    12533.881    15277.256     3500.431        3.128        1.566      176.824       55.969        0.100      351.231       32.980      862.510
07/27/2014  16:21:00     -230.630      -65.096      -21.666      103.510       95.105       51.043    10714.228     9044.934     2605.421        4.013        1.118      239.641       47.771        0.040      351.214       32.949      862.518
07/27/2014  16:22:00     -269.334      -88.376      -12.063      111.981      104.438       56.934    12539.841    10907.229     3241.473        5.359        1.334      283.462       33.966        0.014      351.185       32.900      862.514
07/27/2014  16:23:00     -275.738      -31.203      -28.173      121.791      116.556       49.111    14832.930    13585.304     2411.897        5.431        1.542      277.498       44.359        0.026      351.175       32.882      862.514
07/27/2014  16:24:00     -257.494      -43.400      -34.487       81.140      101.719       41.847     6583.686    10346.728     1751.144        4.403        0.934      261.126       34.921        0.018      351.182       32.894      862.503
07/27/2014  16:25:00     -373.284     -108.770      -28.138      119.222      127.328       61.652    14213.796    16212.376     3800.996        9.309        1.711      388.808       53.715        0.019      351.177       32.884      862.495
07/27/2014  16:26:00     -306.882     -103.590        1.603      135.031      103.703       56.911    18233.501    10754.368     3238.915        6.856        1.611      323.894       68.421        0.045      351.199       32.925      862.511
07/27/2014  16:27:00     -193.780       -9.914       -0.558       89.020       62.627       41.357     7924.480     3922.139     1710.424        2.560        0.678      194.033       43.368        0.050      351.227       32.973      862.523
07/27/2014  16:28:00     -209.470      -39.405       -5.402      133.284       79.798       57.485    17764.752     6367.682     3304.477        3.644        1.372      213.144       63.403        0.088      351.221       32.964      862.517
07/27/2014  16:29:00     -273.081      -37.794      -33.437      142.346       88.006       60.000    20262.456     7745.033     3599.984        5.436        1.580      275.684       65.635        0.057      351.191       32.909      862.519
07/27/2014  16:30:00     -265.391     -110.947      -29.572      112.348       84.841       54.947    12622.119     7198.019     3019.226        5.322        1.142      287.649       54.431        0.036      351.156       32.847      862.533
07/27/2014  16:31:00     -183.345      -58.467       -0.362      134.282      103.950       56.408    18031.690    10805.650     3181.917        3.452        1.601      192.441       42.547        0.049      351.175       32.882      862.526
07/27/2014  16:32:00     -173.609      -17.941      -27.600       83.637       77.419       47.128     6995.125     5993.672     2221.076        2.321        0.760      174.534       34.404        0.039      351.146       32.832      862.547
07/27/2014  16:33:00     -145.575       -8.135      -14.307       63.653       60.685       35.710     4051.757     3682.613     1275.211        1.523        0.450      145.802       29.457        0.041      351.132       32.810      862.553
07/27/2014  16:34:00     -110.392      -12.765       -3.428       52.663       97.309       46.804     2773.403     9468.968     2190.641        1.339        0.722      111.127       47.644        0.184      351.161       32.861      862.569
07/27/2014  16:35:00      -84.945       27.519        4.027       94.473       60.970       39.508     8925.162     3717.281     1560.893        1.109        0.710       89.292       46.673        0.273      351.187       32.905      862.565
07/27/2014  16:36:00     -145.234       97.474      -11.513       85.299       86.219       45.352     7275.850     7433.674     2056.816        2.374        0.838      174.912       40.408        0.053      351.208       32.942      862.566
07/27/2014  16:37:00      -63.765       39.387        5.328       45.806       38.657       30.269     2098.235     1494.337      916.229        0.508        0.225       74.949       24.145        0.104      351.260       33.036      862.569
07/27/2014  16:38:00      -95.215      -49.614        0.956       61.979       53.744       36.732     3841.350     2888.471     1349.218        0.980        0.404      107.366       20.980        0.038      351.219       32.965      862.565
07/27/2014  16:39:00     -150.436      -55.042       -4.754       75.399       62.040       32.207     5685.017     3848.930     1037.296        1.813        0.529      160.189       17.139        0.011      351.197       32.923      862.563
07/27/2014  16:40:00     -115.844      -14.600        0.656       69.762       68.856       34.282     4866.752     4741.090     1175.231        1.221        0.539      116.761       34.548        0.088      351.176       32.887      862.579
07/27/2014  16:41:00     -174.620      -43.939      -14.379       67.459       55.057       32.796     4550.709     3031.317     1075.610        2.064        0.433      180.064       26.497        0.022      351.202       32.933      862.582
07/27/2014  16:42:00     -119.658      -17.836        3.190       56.169       39.821       32.665     3154.954     1585.705     1067.016        1.023        0.290      120.980       27.738        0.053      351.208       32.946      862.589
07/27/2014  16:43:00     -143.936      -48.385       -2.619       70.778       56.786       36.023     5009.539     3224.608     1297.657        1.630        0.477      151.851       27.132        0.032      351.201       32.931      862.590
07/27/2014  16:44:00     -143.158        1.453      -19.745       59.021       88.687       41.705     3483.510     7865.317     1739.293        1.698        0.654      143.165       32.053        0.050      351.237       32.992      862.602
07/27/2014  16:45:00     -182.558      -19.957       -6.928       88.383       83.433       44.562     7811.631     6961.103     1985.804        2.526        0.838      183.645       40.563        0.049      351.186       32.903      862.598
07/27/2014  16:46:00     -191.165      -67.762       -5.430      114.348       73.696       42.214    13075.470     5431.077     1782.002        3.072        1.014      202.819       46.713        0.053      351.191       32.912      862.592
07/27/2014  16:47:00     -200.383       28.272      -17.673      113.450      158.699       65.947    12870.908    25185.349     4349.028        4.183        2.120      202.368       67.986        0.113      351.111       32.771      862.606
07/27/2014  16:48:00     -268.641       55.289      -24.682      151.838      148.703       74.201    23054.851    22112.716     5505.826        6.324        2.534      274.272       69.736        0.065      351.059       32.681      862.602
07/27/2014  16:49:00     -211.818      -40.068       -3.503      114.324      125.168       54.399    13070.045    15666.995     2959.270        3.908        1.585      215.575       51.865        0.058      351.022       32.615      862.600
07/27/2014  16:50:00     -302.843      -48.949      -11.397      101.417       94.239       60.415    10285.371     8880.923     3649.987        5.852        1.141      306.773       52.510        0.029      351.025       32.618      862.604
07/27/2014  16:51:00     -264.858      -27.049      -20.890       99.209       88.487       52.228     9842.520     7829.911     2727.734        4.585        1.020      266.235       40.752        0.023      351.028       32.625      862.616
07/27/2014  16:52:00     -188.201      -60.993       -7.859       99.467       91.291       47.579     9893.637     8333.977     2263.790        2.984        1.025      197.837       35.823        0.033      351.029       32.627      862.612
07/27/2014  16:53:00     -308.340       -3.800      -33.609      182.283      128.107       70.369    33227.229    16411.376     4951.734        7.539        2.730      308.363       73.108        0.056      350.978       32.538      862.609
07/27/2014  16:54:00     -284.060     -136.354      -12.903      138.417      113.099       75.913    19159.359    12791.365     5762.858        6.857        1.886      315.092       65.690        0.043      351.058       32.678      862.605
07/27/2014  16:55:00     -386.245      -31.694      -42.063      155.038      129.487       68.198    24036.820    16766.986     4650.993        9.870        2.273      387.543       66.770        0.030      351.022       32.614      862.610
07/27/2014  16:56:00     -320.919        0.013      -35.591      139.159      117.688       60.972    19365.156    13850.569     3717.541        7.059        1.847      320.919       57.916        0.033      351.012       32.598      862.617
07/27/2014  16:57:00     -149.909       -9.834      -15.428       93.011       99.700       50.903     8651.125     9940.181     2591.117        2.199        1.059      150.231       47.072        0.098      351.000       32.580      862.611
07/27/2014  16:58:00     -247.177      -93.673       -2.412      178.813       97.099       61.268    31973.931     9428.140     3753.779        5.751        2.258      264.331       84.031        0.101      351.030       32.630      862.600
07/27/2014  16:59:00     -397.466     -102.122      -38.383      141.455      120.240       68.540    20009.449    14457.689     4697.698       10.452        1.958      410.375       53.059        0.017      351.063       32.684      862.577
07/27/2014  17:00:00     -451.978     -148.971      -16.397      150.089      113.221       68.421    22526.657    12819.034     4681.501       13.338        2.001      475.895       51.921        0.012      351.050       32.663      862.563
07/27/2014  17:01:00     -235.282      -74.537        0.392      153.209      114.788       60.144    23473.058    13176.290     3617.342        5.058        2.013      246.807       62.597        0.064      351.089       32.734      862.560
07/27/2014  17:02:00     -281.947      -45.950      -12.548       88.692      109.660       48.322     7866.215    12025.278     2334.998        5.199        1.111      285.667       36.828        0.017      351.056       32.673      862.570
07/27/2014  17:03:00     -387.152      -96.429       -6.578      122.833      119.159       52.563    15087.827    14198.939     2762.917        9.563        1.602      398.980       49.618        0.015      351.097       32.745      862.554
07/27/2014  17:04:00     -278.607        2.055      -15.710      185.987      131.303       81.381    34591.240    17240.432     6622.884        6.815        2.923      278.614       94.381        0.115      351.128       32.800      862.568
07/27/2014  17:05:00     -232.595      -31.528      -26.173       96.713       83.835       49.670     9353.494     7028.358     2467.092        3.731        0.942      234.722       47.055        0.040      351.144       32.827      862.590
07/27/2014  17:06:00     -300.691     -106.718       -3.633      194.474      100.529       63.190    37820.120    10106.110     3992.982        7.686        2.596      319.067       73.415        0.053      351.146       32.831      862.600
07/27/2014  17:07:00     -231.321     -138.154        2.712      160.003      141.619       65.803    25600.815    20056.076     4329.974        6.129        2.499      269.437       79.903        0.088      351.143       32.826      862.600
07/27/2014  17:08:00      -59.009      -38.282        8.287      109.499       83.166       52.166    11990.072     6916.538     2721.326        1.332        1.081       70.339       58.611        0.694      351.146       32.835      862.603
07/27/2014  17:09:00     -357.619      -97.303      -23.927      244.298      157.311       64.492    59681.346    24746.900     4159.239       11.324        4.429      370.620       92.257        0.062      351.123       32.792      862.607
07/27/2014  17:10:00     -330.647     -111.018       -0.722       98.926       64.184       46.164     9786.383     4119.602     2131.136        6.884        0.802      348.787       48.629        0.019      351.041       32.646      862.626
07/27/2014  17:11:00     -313.244     -103.738      -13.681      126.323       94.150       56.685    15957.413     8864.312     3213.145        6.855        1.402      329.975       46.441        0.020      351.077       32.709      862.613
07/27/2014  17:12:00     -333.572      -68.568       -4.114      162.504       81.952       52.196    26407.563     6716.203     2724.417        7.591        1.792      340.546       67.578        0.039      351.043       32.652      862.623
07/27/2014  17:13:00     -263.441     -134.012       -8.058      122.306       57.450       38.896    14958.694     3300.461     1512.867        5.359        0.989      295.568       34.618        0.014      351.042       32.649      862.598
07/27/2014  17:14:00     -215.676      -99.086      -13.548       77.215       73.531       47.887     5962.195     5406.847     2293.196        3.509        0.683      237.348       41.588        0.031      351.096       32.744      862.557
07/27/2014  17:15:00     -346.585      -24.925      -14.497      133.965       91.334       60.894    17946.629     8341.941     3708.022        7.547        1.500      347.480       64.652        0.035      351.094       32.740      862.548
07/27/2014  17:16:00     -317.895     -142.538      -15.628      171.788       96.709       64.642    29511.034     9352.697     4178.640        8.232        2.152      348.388       70.109        0.040      351.092       32.736      862.533
07/27/2014  17:17:00     -174.303     -100.198        6.902      129.477       81.178       61.553    16764.232     6589.903     3788.772        3.380        1.357      201.051       66.584        0.110      351.164       32.862      862.523
07/27/2014  17:18:00     -178.804      -69.215        7.742      115.482       84.397       53.790    13336.184     7122.771     2893.353        3.008        1.168      191.733       57.544        0.090      351.242       32.999      862.535
07/27/2014  17:19:00      -89.943      -58.235       19.463      127.697      113.640       78.630    16306.546    12914.003     6182.667        2.362        1.770      107.150       78.949        0.543      351.308       33.117      862.540
07/27/2014  17:20:00     -116.846      -60.109       -3.159      128.117      101.574       50.234    16413.913    10317.177     2523.467        2.326        1.463      131.401       43.909        0.112      351.343       33.178      862.554
07/27/2014  17:21:00     -179.553     -170.603      -17.115       96.214       89.828       65.591     9257.046     8069.016     4302.197        4.163        1.081      247.679       55.256        0.050      351.275       33.057      862.563
07/27/2014  17:22:00     -114.958     -117.124       17.505      112.780       78.845       56.818    12719.393     6216.538     3228.292        2.470        1.108      164.114       57.395        0.122      351.253       33.018      862.527
07/27/2014  17:23:00     -223.521     -131.740       -7.749      139.921      107.782       64.803    19577.793    11616.928     4199.472        5.138        1.770      259.455       75.954        0.086      351.232       32.981      862.516
07/27/2014  17:24:00     -399.586     -110.587       -0.860      190.691      143.942       73.897    36363.016    20719.419     5460.782       11.721        3.127      414.606       73.776        0.032      351.200       32.926      862.521
07/27/2014  17:25:00     -312.426     -205.965        1.699      201.546      131.455       86.312    40620.671    17280.288     7449.779       10.268        3.268      374.208      108.060        0.083      351.223       32.966      862.526
07/27/2014  17:26:00     -451.044     -178.505      -11.145      197.772      203.813       95.287    39113.707    41539.612     9079.679       16.256        4.487      485.082       91.353        0.035      351.186       32.901      862.530
07/27/2014  17:27:00     -368.277     -167.486      -11.073      220.861      162.378       80.514    48779.401    26366.468     6482.578       12.270        4.081      404.573      101.281        0.063      351.177       32.885      862.534
07/27/2014  17:28:00     -328.129     -203.232       -8.349      162.455      124.044       71.962    26391.550    15386.982     5178.475        9.799        2.348      385.969       83.853        0.047      351.164       32.863      862.543
07/27/2014  17:29:00     -198.560     -129.742        8.924      190.619      150.465       94.114    36335.742    22639.790     8857.507        6.207        3.392      237.190      108.712        0.210      351.275       33.057      862.540
07/27/2014  17:30:00     -540.209     -140.264      -16.506      200.313      157.164       81.493    40125.486    24700.488     6641.029       19.161        3.573      558.122       84.006        0.023      351.144       32.825      862.533
07/27/2014  17:31:00     -234.831     -235.574        4.494      183.144      117.939       89.440    33541.597    13909.633     7999.425        8.304        2.773      332.627      101.829        0.094      351.177       32.886      862.563
07/27/2014  17:32:00     -245.707     -168.844       24.789      248.584      172.256       90.039    61793.839    29672.079     8107.096        9.451        4.979      298.129      116.326        0.152      351.173       32.880      862.570
07/27/2014  17:33:00     -322.986     -221.116       -0.510      196.334      182.738       96.982    38547.117    33393.321     9405.564       11.726        4.067      391.423      112.529        0.083      351.172       32.876      862.568
07/27/2014  17:34:00     -330.155     -146.605      -11.297      212.440      131.233       76.551    45130.780    17222.193     5860.041        9.940        3.411      361.242      100.550        0.077      351.173       32.878      862.605
07/27/2014  17:35:00     -485.430     -211.255      -41.448      172.249      152.930       76.767    29669.701    23387.629     5893.228       17.046        2.948      529.406       85.313        0.026      351.090       32.733      862.630
07/27/2014  17:36:00     -201.839      -47.469       13.339      180.285      156.275       83.753    32502.667    24421.752     7014.626        5.354        3.197      207.346       97.446        0.221      351.137       32.817      862.641
07/27/2014  17:37:00     -347.178     -160.721      -24.919      130.940      148.345       74.268    17145.173    22006.205     5515.728        9.582        2.233      382.575       64.630        0.029      351.084       32.723      862.659
07/27/2014  17:38:00     -353.484     -107.021        6.175      136.427      122.021       76.344    18612.262    14889.153     5828.392        8.788        1.966      369.330       68.909        0.035      351.080       32.716      862.682
07/27/2014  17:39:00     -238.534     -112.647        2.802      215.467      140.046       83.401    46425.947    19612.866     6955.805        7.128        3.650      263.795      109.437        0.172      351.055       32.675      862.688
07/27/2014  17:40:00     -307.617     -141.855      -12.893      125.954      132.503       66.649    15864.437    17556.968     4442.101        7.638        1.893      338.749       67.792        0.040      351.001       32.578      862.691
07/27/2014  17:41:00     -319.707     -176.465      -17.872      162.834      131.608       68.088    26514.905    17320.773     4635.996        9.106        2.424      365.174       70.864        0.038      350.989       32.558      862.706
07/27/2014  17:42:00     -145.981     -119.834       17.134      150.990      135.379       86.661    22798.126    18327.445     7510.095        4.229        2.432      188.867       89.216        0.223      351.030       32.630      862.708
07/27/2014  17:43:00     -271.230      -99.201        2.375      143.156      154.839       71.964    20493.631    23975.086     5178.751        6.652        2.482      288.802       71.478        0.061      350.999       32.574      862.718
07/27/2014  17:44:00     -117.018      -86.537        9.365      120.156       92.665       66.864    14437.465     8586.880     4470.838        2.438        1.375      145.540       57.145        0.154      351.039       32.648      862.737
07/27/2014  17:45:00     -254.240      -77.739      -16.215      106.673       84.403       53.564    11379.170     7123.839     2869.154        4.615        1.069      265.860       40.584        0.023      350.966       32.519      862.738
07/27/2014  17:46:00     -193.411     -110.167       -2.083      122.692       94.167       58.742    15053.387     8867.432     3450.581        3.845        1.369      222.586       51.634        0.054      350.981       32.545      862.731
07/27/2014  17:47:00      -61.656        4.054       21.211       73.574       55.059       38.297     5413.125     3031.439     1466.636        0.709        0.496       61.789       35.381        0.328      351.030       32.633      862.733
07/27/2014  17:48:00     -140.397      -63.250       12.567      104.342      126.875       61.946    10887.324    16097.360     3837.344        2.734        1.541      153.987       58.497        0.144      350.946       32.486      862.735
07/27/2014  17:49:00     -229.064     -103.156       -9.816      103.367      125.132       59.726    10684.807    15657.914     3567.225        4.655        1.495      251.221       58.085        0.053      350.948       32.487      862.744
07/27/2014  17:50:00     -293.052      -55.937      -14.757      106.541       83.322       52.050    11350.975     6942.538     2709.189        5.511        1.050      298.343       53.250        0.032      350.976       32.537      862.740
07/27/2014  17:51:00     -213.431     -148.572        4.658      146.871      109.916       65.379    21571.110    12081.492     4274.404        5.278        1.896      260.051       57.035        0.048      350.895       32.396      862.744
07/27/2014  17:52:00     -191.539      -78.704        1.619      100.911       96.611       50.139    10183.088     9333.690     2513.950        3.245        1.102      207.078       54.358        0.069      350.944       32.481      862.726
07/27/2014  17:53:00     -260.027      -72.417       -4.474      129.971      125.321       64.877    16892.561    15705.351     4209.052        5.484        1.840      269.923       58.422        0.047      350.905       32.414      862.726
07/27/2014  17:54:00     -196.693      -83.361        2.190       95.041       93.522       47.067     9032.820     8746.314     2215.322        3.281        1.000      213.629       32.126        0.023      350.918       32.436      862.719
07/27/2014  17:55:00     -340.867     -150.746      -26.909       83.630      105.576       50.460     6994.010    11146.283     2546.239        8.016        1.034      372.712       34.656        0.009      350.866       32.346      862.714
07/27/2014  17:56:00     -249.863      -79.647       -5.180      155.452       85.339       60.831    24165.452     7282.714     3700.468        5.197        1.757      262.250       67.257        0.066      350.872       32.357      862.718
07/27/2014  17:57:00     -125.033      -34.044       11.799       85.119       59.573       36.865     7245.232     3548.898     1359.011        1.454        0.608      129.585       35.884        0.077      350.919       32.438      862.737
07/27/2014  17:58:00     -186.225      -52.951       -4.895       70.509       66.835       41.324     4971.562     4466.954     1707.711        2.432        0.557      193.607       33.772        0.030      350.929       32.456      862.751
07/27/2014  17:59:00     -144.109     -108.364        3.798       71.634       62.397       40.625     5131.475     3893.338     1650.357        2.160        0.534      180.306       39.739        0.049      350.966       32.519      862.753
07/27/2014  18:00:00     -186.643      -91.176       -4.570       91.236       76.653       40.989     8324.094     5875.664     1680.088        2.952        0.794      207.722       46.805        0.051      350.944       32.481      862.755
07/27/2014  18:01:00     -145.894      -32.580       12.318       96.895       73.918       48.316     9388.554     5463.907     2334.435        1.984        0.859      149.488       54.077        0.131      350.911       32.426      862.763
07/27/2014  18:02:00     -223.206      -92.213       -8.154       87.539       87.359       43.707     7663.065     7631.517     1910.296        3.779        0.860      241.503       38.909        0.026      350.914       32.430      862.759
07/27/2014  18:03:00     -280.101      -56.935      -16.514      105.713       76.794       54.974    11175.238     5897.394     3022.097        5.103        1.005      285.829       55.955        0.038      350.895       32.397      862.762
07/27/2014  18:04:00     -303.076     -116.208      -22.377      145.032      104.981       67.771    21034.154    11020.986     4592.888        7.125        1.832      324.591       70.147        0.047      350.853       32.323      862.761
07/27/2014  18:05:00     -320.753      -66.129      -21.900       90.830       91.011       41.537     8250.075     8283.058     1725.289        6.299        0.913      327.499       35.750        0.012      350.884       32.378      862.769
07/27/2014  18:06:00     -396.798      -55.254      -30.242      119.623      104.706       52.744    14309.741    10963.387     2781.936        9.473        1.403      400.627       49.325        0.015      350.863       32.340      862.783
07/27/2014  18:07:00     -425.983     -184.221      -13.091      138.624      123.202       73.615    19216.532    15178.684     5419.223       12.768        1.991      464.111       73.732        0.025      350.826       32.275      862.777
07/27/2014  18:08:00     -280.952      -50.670      -16.722      113.409      134.371       58.322    12861.592    18055.629     3401.414        5.804        1.716      285.485       48.066        0.028      350.831       32.283      862.768
07/27/2014  18:09:00     -246.290      -66.517       -3.550      125.943       90.663       52.498    15861.542     8219.774     2756.084        4.596        1.342      255.114       46.463        0.033      350.835       32.291      862.791
07/27/2014  18:10:00     -241.140      -61.352      -12.038      140.097       73.336       55.021    19627.206     5378.117     3027.305        4.504        1.402      248.822       66.634        0.072      350.828       32.278      862.793
07/27/2014  18:11:00     -143.259      -86.841        0.003       68.771       70.899       45.862     4729.455     5026.610     2103.355        1.996        0.593      167.524       42.531        0.064      350.840       32.300      862.797
07/27/2014  18:12:00     -119.768      -73.248        3.386       83.743       60.491       39.819     7012.944     3659.199     1585.566        1.599        0.613      140.391       45.097        0.103      350.826       32.277      862.775
07/27/2014  18:13:00     -142.866      -92.479       -6.853       94.694       72.392       50.441     8966.886     5240.614     2544.312        2.288        0.838      170.186       52.813        0.096      350.845       32.307      862.764
07/27/2014  18:14:00     -211.868     -129.509       -8.730      121.717      110.621       65.128    14815.034    12237.048     4241.685        4.651        1.565      248.316       57.639        0.054      350.802       32.234      862.773
07/27/2014  18:15:00     -268.195     -120.916       -8.023      149.962      116.292       57.801    22488.726    13523.842     3340.909        6.298        1.968      294.193       57.959        0.039      350.797       32.225      862.762
07/27/2014  18:16:00     -215.451     -159.668       11.650      145.472      120.523       73.190    21162.200    14525.753     5356.738        5.654        2.052      268.166       80.819        0.091      350.774       32.184      862.750
07/27/2014  18:17:00     -180.231     -130.616        2.024      124.414      100.993       57.446    15478.752    10199.490     3300.085        3.926        1.449      222.584       68.529        0.095      350.777       32.190      862.755
07/27/2014  18:18:00     -171.408     -116.315      -14.863       79.460       68.239       42.004     6313.857     4656.549     1764.347        2.793        0.637      207.147       33.288        0.026      350.789       32.212      862.760
07/27/2014  18:19:00      -81.528      -39.122       12.068       99.011       58.369       40.761     9803.099     3406.895     1661.472        1.159        0.744       90.429       48.424        0.287      350.666       31.999      862.767
07/27/2014  18:20:00     -126.125      -57.805       12.683       93.318       85.240       53.767     8708.230     7265.901     2890.919        1.913        0.943      138.740       48.701        0.123      350.787       32.210      862.766
07/27/2014  18:21:00     -239.626     -146.250       -8.255      153.609       93.002       60.701    23595.872     8649.304     3684.601        5.740        1.796      280.731       51.523        0.034      350.768       32.175      862.752
07/27/2014  18:22:00     -289.634     -135.645       -7.499      117.786      122.804       66.505    13873.565    15080.729     4422.859        6.785        1.669      319.824       51.544        0.026      350.747       32.139      862.741
07/27/2014  18:23:00     -241.603     -144.182      -24.505       96.089       76.327       52.351     9233.087     5825.876     2740.628        4.878        0.890      281.355       43.943        0.024      350.758       32.156      862.743
07/27/2014  18:24:00     -188.516     -162.049       16.102      144.092      123.218       66.813    20762.548    15182.609     4464.034        5.123        2.020      248.593       78.436        0.100      350.750       32.143      862.731
07/27/2014  18:25:00     -316.361     -203.248      -11.084      153.447      105.830       66.730    23545.888    11199.985     4452.903        9.035        1.960      376.024       72.943        0.038      350.751       32.144      862.717
07/27/2014  18:26:00     -227.859     -139.823        2.067      117.996      113.616       69.485    13923.022    12908.582     4828.208        5.156        1.583      267.339       72.779        0.074      350.742       32.129      862.725
07/27/2014  18:27:00     -328.462     -174.877      -24.606      155.622      105.678       67.094    24218.318    11167.918     4501.648        8.947        1.994      372.115       62.305        0.028      350.726       32.099      862.730
07/27/2014  18:28:00     -366.367     -170.078      -10.409      172.699      148.279       70.625    29824.981    21986.563     4987.960       11.002        2.840      403.920       74.748        0.034      350.703       32.061      862.714
07/27/2014  18:29:00     -213.206     -120.286       -0.449      110.291      111.451       56.674    12164.025    12421.245     3211.945        4.386        1.390      244.797       52.562        0.046      350.699       32.053      862.708
07/27/2014  18:30:00     -273.450     -126.701       -7.568      121.217      118.173       70.739    14693.584    13964.946     5003.952        6.227        1.683      301.377       66.140        0.048      350.697       32.050      862.712
07/27/2014  18:31:00     -312.066     -107.350       -1.378      185.412      116.057       72.656    34377.646    13469.177     5278.826        8.101        2.656      330.014       83.419        0.064      350.682       32.024      862.717
07/27/2014  18:32:00     -178.763      -79.569       11.677      175.711      102.988       69.735    30874.230    10606.437     4863.009        4.237        2.317      195.672       84.873        0.188      350.655       31.977      862.706
07/27/2014  18:33:00     -275.036     -181.965      -10.429      151.267      120.405       65.616    22881.564    14497.313     4305.401        7.527        2.084      329.782       72.383        0.048      350.676       32.013      862.700
07/27/2014  18:34:00     -222.043     -131.713       26.812      181.338      148.371       94.160    32883.375    22013.865     8866.192        6.555        3.188      258.169      112.454        0.190      350.645       31.961      862.687
07/27/2014  18:35:00     -182.113      -70.121        6.149      142.996      109.689       59.589    20447.793    12031.601     3550.821        3.707        1.802      195.146       70.143        0.129      350.648       31.964      862.718
07/27/2014  18:36:00     -200.724     -137.682       -8.061      125.424       87.240       51.889    15731.289     7610.859     2692.418        4.267        1.302      243.406       55.122        0.051      350.665       31.995      862.727
07/27/2014  18:37:00     -317.782      -50.390      -20.595      102.838       85.276       49.718    10575.737     7272.075     2471.837        6.213        1.016      321.752       55.938        0.030      350.682       32.024      862.738
07/27/2014  18:38:00     -346.143      -55.021        6.334      164.584      101.378       70.944    27087.970    10277.417     5033.105        8.263        2.120      350.489       83.665        0.057      350.644       31.958      862.738
07/27/2014  18:39:00     -241.357       14.607        1.035      162.266       98.553       63.417    26330.183     9712.643     4021.701        4.926        2.003      241.798       78.277        0.105      350.609       31.899      862.748
07/27/2014  18:40:00     -322.166     -173.605      -10.818      154.823      130.880       66.071    23970.172    17129.511     4365.337        8.975        2.273      365.964       80.449        0.048      350.652       31.973      862.747
07/27/2014  18:41:00     -223.674      -86.838       -4.857      118.240       85.212       59.025    13980.625     7261.147     3483.915        4.116        1.236      239.939       48.379        0.041      350.643       31.956      862.743
07/27/2014  18:42:00     -245.169      -91.896      -14.399      136.114      152.623       58.370    18527.039    23293.870     3407.042        5.699        2.261      261.826       62.031        0.056      350.636       31.945      862.755
07/27/2014  18:43:00     -228.466     -124.449       -1.455      154.724      117.959       70.700    23939.401    13914.271     4998.511        5.526        2.143      260.162       83.289        0.102      350.608       31.895      862.756
07/27/2014  18:44:00     -240.012     -158.054       -0.790      121.606       98.005       69.644    14788.127     9605.041     4850.258        5.591        1.462      287.379       67.753        0.056      350.610       31.898      862.758
07/27/2014  18:45:00     -151.912      -42.069      -17.412       99.722       95.782       55.698     9944.499     9174.167     3102.273        2.368        1.111      157.630       59.123        0.141      350.584       31.854      862.779
07/27/2014  18:46:00     -164.445      -63.092       -0.356      108.117      121.567       49.094    11689.374    14778.626     2410.176        2.994        1.444      176.133       42.340        0.058      350.568       31.826      862.791
07/27/2014  18:47:00     -118.727      -22.708       -1.407       62.278       51.934       34.507     3878.508     2697.140     1190.705        1.119        0.388      120.879       30.706        0.065      350.539       31.777      862.805
07/27/2014  18:48:00     -135.700      -53.740        6.097       82.863       69.334       43.682     6866.287     4807.220     1908.077        1.746        0.679      145.954       44.434        0.093      350.550       31.795      862.814
07/27/2014  18:49:00     -167.965     -149.315        5.439      104.522       79.661       56.782    10924.786     6345.867     3224.213        3.551        1.025      224.738       52.682        0.055      350.559       31.810      862.820
07/27/2014  18:50:00     -244.252     -117.052       -5.812      140.960      108.711       54.705    19869.809    11817.986     2992.608        5.403        1.734      270.851       56.399        0.043      350.556       31.804      862.827
07/27/2014  18:51:00     -213.172      -82.889       -7.204      107.446       81.495       54.355    11544.725     6641.471     2954.471        3.675        1.057      228.721       32.539        0.020      350.552       31.798      862.826
07/27/2014  18:52:00     -299.091      -10.883      -28.291       68.811       70.857       44.826     4734.976     5020.735     2009.369        5.107        0.588      299.288       37.907        0.016      350.582       31.850      862.845
07/27/2014  18:53:00     -283.219      -85.245      -17.602      112.583       90.704       55.927    12674.871     8227.241     3127.809        5.591        1.201      295.770       38.304        0.017      350.575       31.837      862.845
07/27/2014  18:54:00     -209.692      -73.727       -3.308       87.386       62.376       48.034     7636.273     3890.813     2307.237        3.162        0.692      222.275       52.409        0.056      350.579       31.845      862.881
07/27/2014  18:55:00     -207.244      -60.727      -13.115       65.625       66.333       39.895     4306.673     4400.104     1591.635        2.855        0.515      215.958       33.237        0.024      350.585       31.854      862.908
07/27/2014  18:56:00     -146.105       21.092      -19.798       63.392       69.296       42.583     4018.581     4801.928     1813.288        1.641        0.532      147.620       25.769        0.030      350.611       31.904      862.924
07/27/2014  18:57:00      -58.372       17.161       17.511       58.727       44.227       41.992     3448.860     1956.010     1763.336        0.559        0.358       60.843       39.975        0.432      350.602       31.888      862.939
07/27/2014  18:58:00      -93.376      -16.119       -6.162       44.749       56.188       34.243     2002.437     3157.118     1172.571        0.767        0.317       94.757       22.426        0.056      350.568       31.827      862.971
07/27/2014  18:59:00     -179.469       19.918      -24.013       68.910       83.249       43.820     4748.646     6930.318     1920.151        2.339        0.680      180.570       27.959        0.024      350.527       31.755      862.988
07/27/2014  19:00:00     -209.619      -74.167      -15.955      113.495      101.751       61.404    12881.222    10353.301     3770.465        3.834        1.350      222.353       35.889        0.026      350.452       31.624      862.984
07/27/2014  19:01:00     -157.024      -28.800      -11.214      100.416       85.747       43.763    10083.398     7352.486     1915.189        2.248        0.968      159.644       52.002        0.106      350.395       31.526      862.990
07/27/2014  19:02:00     -133.364       74.491      -14.362       63.266      108.997       45.742     4002.528    11880.313     2092.351        2.075        0.899      152.758       30.212        0.039      350.355       31.458      862.985
07/27/2014  19:03:00     -142.390      -10.244      -16.407       82.608       96.027       39.587     6824.155     9221.277     1567.167        1.913        0.881      142.758       39.600        0.077      350.325       31.404      862.972
07/27/2014  19:04:00     -270.201      -77.907       -8.098      121.669       80.784       43.598    14803.275     6526.030     1900.766        5.118        1.162      281.208       47.245        0.028      350.259       31.286      862.981
07/27/2014  19:05:00     -207.443      -64.951       -0.621       95.655       95.135       54.428     9149.815     9050.623     2962.386        3.420        1.058      217.373       46.857        0.046      350.223       31.226      863.000
07/27/2014  19:06:00     -317.732       -3.361      -20.576      158.769       76.113       51.207    25207.479     5793.184     2622.193        6.750        1.681      317.750       70.841        0.050      350.322       31.398      863.011
07/27/2014  19:07:00     -290.411      -48.175      -21.598       82.196       88.706       49.183     6756.237     7868.718     2418.981        5.208        0.852      294.379       47.236        0.026      350.258       31.286      863.038
07/27/2014  19:08:00     -188.670       76.591      -26.826       85.533       62.407       51.006     7315.894     3894.622     2601.579        2.799        0.691      203.624       52.917        0.068      350.225       31.230      863.061
07/27/2014  19:09:00     -190.819      -80.554      -21.184       79.092       57.138       46.128     6255.529     3264.762     2127.775        2.750        0.582      207.125       39.334        0.036      350.242       31.257      863.066
07/27/2014  19:10:00     -151.140       10.014       -7.661       64.820       70.284       33.267     4201.571     4939.794     1106.690        1.662        0.512      151.472       33.932        0.050      350.217       31.217      863.088
07/27/2014  19:11:00     -146.732      -30.565       -6.539       79.995       82.078       36.470     6399.246     6736.836     1330.085        1.848        0.723      149.882       31.219        0.043      350.246       31.267      863.108
07/27/2014  19:12:00     -125.257       26.597      -29.187       47.555       44.361       27.042     2261.445     1967.900      731.293        1.110        0.248      128.050       23.560        0.034      350.207       31.201      863.129
07/27/2014  19:13:00      -94.058       13.338       -9.682       78.769       46.716       31.624     6204.539     2182.381     1000.086        0.925        0.469       94.999       37.821        0.159      350.202       31.193      863.139
07/27/2014  19:14:00     -123.534       39.460       -5.942       72.032       91.929       37.567     5188.547     8451.028     1411.297        1.595        0.753      129.683       37.819        0.085      350.129       31.064      863.145
07/27/2014  19:15:00     -149.021       10.393      -17.667       78.941       64.074       54.582     6231.608     4105.458     2979.237        1.797        0.666      149.383       38.478        0.066      350.112       31.034      863.136
07/27/2014  19:16:00     -143.637       63.098       -4.287       75.146       79.532       50.235     5646.850     6325.266     2523.543        1.956        0.725      156.885       42.010        0.072      350.054       30.933      863.138
07/27/2014  19:17:00     -165.315      -14.707      -15.195       74.892       91.465       46.717     5608.817     8365.801     2182.470        2.196        0.808      165.968       44.491        0.072      350.007       30.853      863.129
07/27/2014  19:18:00     -177.337      -43.351        6.342       90.533      124.894       48.737     8196.203    15598.484     2375.334        2.976        1.309      182.559       40.741        0.050      349.971       30.790      863.130
07/27/2014  19:19:00     -265.865      -54.671      -30.818       92.896       97.096       50.172     8629.661     9427.718     2517.256        4.759        1.029      271.428       40.290        0.022      349.959       30.768      863.131
07/27/2014  19:20:00     -268.456      -94.539      -41.239      111.277       91.287       52.512    12382.477     8333.406     2757.558        5.309        1.174      284.616       42.079        0.022      349.952       30.755      863.136
07/27/2014  19:21:00     -134.779      -39.306       -9.168       88.475       67.688       42.141     7827.871     4581.708     1775.900        1.699        0.709      140.393       44.691        0.101      349.894       30.656      863.144
07/27/2014  19:22:00     -140.540      -11.316       -6.583      106.617      100.668       51.672    11367.253    10134.103     2669.969        2.204        1.209      140.995       57.583        0.167      349.877       30.625      863.161
07/27/2014  19:23:00     -189.932      -40.232      -22.265       70.905       72.170       41.137     5027.567     5208.500     1692.246        2.506        0.596      194.147       19.457        0.010      349.901       30.667      863.159
07/27/2014  19:24:00     -105.078      -43.246       -9.058       94.831       66.159       44.389     8992.971     4377.056     1970.368        1.416        0.767      113.629       27.526        0.059      349.889       30.648      863.145
07/27/2014  19:25:00     -217.544       -0.282      -12.207      117.457       84.927       44.077    13796.108     7212.669     1942.755        3.521        1.148      217.545       52.723        0.059      349.874       30.619      863.154
07/27/2014  19:26:00     -155.100       85.587      -17.858       73.797       95.950       42.447     5446.013     9206.446     1801.735        2.407        0.823      177.147       39.729        0.050      349.855       30.586      863.153
07/27/2014  19:27:00     -113.873      -42.561       -7.499       90.377       74.279       44.497     8168.062     5517.409     1980.013        1.525        0.783      121.566       44.272        0.133      349.851       30.583      863.160
07/27/2014  19:28:00     -148.576      -59.858       -2.642       71.800       59.285       42.213     5155.298     3514.680     1781.970        1.806        0.523      160.181       33.700        0.044      349.843       30.568      863.175
07/27/2014  19:29:00     -142.564      -11.699       -9.457      116.426       50.832       47.456    13554.975     2583.896     2252.033        1.947        0.920      143.043       56.690        0.157      349.867       30.608      863.180
07/27/2014  19:30:00     -203.012      -80.943      -11.527       66.724       61.773       49.956     4452.130     3815.963     2495.615        2.933        0.538      218.553       42.852        0.038      349.901       30.666      863.185
07/27/2014  19:31:00     -200.139      -15.319      -11.232       93.184      110.282       48.932     8683.170    12162.010     2394.313        3.182        1.162      200.724       44.806        0.050      349.918       30.696      863.202
07/27/2014  19:32:00     -224.317        5.200      -18.267      103.476       78.865       49.284    10707.194     6219.724     2428.949        3.501        0.968      224.378       47.520        0.045      349.924       30.707      863.226
07/27/2014  19:33:00     -176.325       56.952      -32.547       83.570      107.353       44.851     6983.874    11524.708     2011.622        2.795        1.026      185.295       43.615        0.055      349.966       30.782      863.233
07/27/2014  19:34:00     -185.112       55.852      -24.247       70.066       74.907       45.478     4909.240     5611.061     2068.251        2.528        0.629      193.354       31.048        0.026      349.938       30.731      863.238
07/27/2014  19:35:00     -153.909       24.277      -11.519       77.519      115.591       47.915     6009.160    13361.289     2295.810        2.303        1.083      155.812       45.537        0.085      349.907       30.677      863.239
07/27/2014  19:36:00     -184.686      -30.576       -9.971       96.847       43.209       38.653     9379.409     1867.052     1494.037        2.394        0.637      187.200       38.078        0.041      349.904       30.674      863.241
07/27/2014  19:37:00     -147.512       39.970      -18.236       63.145       53.303       40.601     3987.333     2841.222     1648.467        1.608        0.424      152.832       33.476        0.048      349.880       30.633      863.265
07/27/2014  19:38:00     -114.654       41.900      -20.964      117.241       92.206       46.139    13745.501     8501.944     2128.786        1.985        1.219      122.070       50.009        0.168      349.856       30.589      863.263
07/27/2014  19:39:00     -162.728      -29.022       -8.939      109.464       74.556       37.368    11982.347     5558.540     1396.352        2.317        0.947      165.296       35.243        0.045      349.858       30.591      863.256
07/27/2014  19:40:00     -134.371      -17.659      -25.621       61.597       62.381       32.003     3794.226     3891.350     1024.160        1.387        0.435      135.527       23.172        0.029      349.858       30.594      863.266
07/27/2014  19:41:00     -159.271      -10.570      -13.703       55.728       71.594       37.266     3105.611     5125.699     1388.765        1.764        0.481      159.621       24.982        0.024      349.790       30.476      863.270
07/27/2014  19:42:00     -144.097       86.122      -24.241       63.065       52.661       32.679     3977.228     2773.173     1067.911        1.829        0.391      167.872       34.392        0.042      349.842       30.566      863.269
07/27/2014  19:43:00      -96.442       97.481      -11.066       56.717       42.676       33.341     3216.791     1821.231     1111.616        1.254        0.307      137.126       28.847        0.044      349.806       30.505      863.271
07/27/2014  19:44:00      -73.533      100.849        3.891       83.839      120.405       47.324     7029.037    14497.321     2239.533        1.967        1.188      124.811       22.440        0.032      349.826       30.538      863.277
07/27/2014  19:45:00     -104.080       69.214      -10.562       74.747       62.594       47.322     5587.051     3917.999     2239.397        1.374        0.587      124.993       33.852        0.073      349.814       30.517      863.276
07/27/2014  19:46:00     -129.682      174.288      -23.602      105.657      117.324       59.479    11163.400    13764.852     3537.740        3.810        1.423      217.241       54.796        0.064      349.869       30.613      863.276
07/27/2014  19:47:00     -151.924      158.003      -17.513       73.282       92.048       50.170     5370.286     8472.756     2517.034        3.235        0.818      219.194       42.128        0.037      349.866       30.607      863.281
07/27/2014  19:48:00      -99.271       70.047       -2.440       88.845       65.084       43.060     7893.414     4235.921     1854.147        1.437        0.699      121.496       48.354        0.158      349.830       30.544      863.292
07/27/2014  19:49:00      -96.610       88.211       -6.361       73.625       57.611       36.891     5420.621     3319.010     1360.938        1.363        0.505      130.823       33.353        0.065      349.857       30.591      863.290
07/27/2014  19:50:00     -113.261       -2.346       -9.478       58.792       59.904       32.517     3456.514     3588.493     1057.360        1.051        0.405      113.286       19.565        0.030      349.860       30.597      863.285
07/27/2014  19:51:00      -90.234       99.428      -17.388       46.528       52.149       31.499     2164.874     2719.561      992.198        1.210        0.294      134.269       24.012        0.032      349.831       30.547      863.291
07/27/2014  19:52:00     -124.081      172.280      -33.007       70.425       70.802       40.225     4959.729     5012.859     1618.069        2.888        0.580      212.313       29.944        0.020      349.848       30.574      863.300
07/27/2014  19:53:00     -137.259      108.787      -40.556       59.319       87.030       41.498     3518.715     7574.210     1722.123        2.256        0.641      175.142       32.540        0.035      349.881       30.631      863.307
07/27/2014  19:54:00     -107.863       78.514      -12.937       56.532       80.003       37.844     3195.917     6400.446     1432.175        1.450        0.551      133.412       29.537        0.049      349.842       30.568      863.313
07/27/2014  19:55:00      -79.885      122.811        4.773       86.637      170.062       52.798     7505.944    28920.985     2787.596        3.034        1.961      146.506       51.336        0.123      349.773       30.445      863.326
07/27/2014  19:56:00     -148.898      162.075      -24.045       96.065       84.548       53.525     9228.474     7148.355     2864.915        3.413        0.962      220.088       48.952        0.049      349.848       30.575      863.346
07/27/2014  19:57:00     -178.663      143.437      -27.453       61.848       71.036       40.518     3825.115     5046.089     1641.732        3.188        0.526      229.117       37.962        0.027      349.865       30.603      863.351
07/27/2014  19:58:00     -164.058      148.174      -31.809       86.457       74.409       47.540     7474.858     5536.637     2260.044        3.257        0.764      221.067       48.669        0.048      349.852       30.581      863.358
07/27/2014  19:59:00     -182.717      175.857      -35.529      105.233      102.844       54.167    11073.926    10576.831     2934.107        4.507        1.229      253.596       32.697        0.017      349.853       30.582      863.374
07/27/2014  20:00:00     -159.113      189.555      -26.147      104.557       91.074       54.446    10932.068     8294.494     2964.389        4.206        1.110      247.483       41.211        0.028      349.828       30.540      863.389
07/27/2014  20:01:00     -128.934      154.035      -11.678       96.692       74.078       44.866     9349.305     5487.509     2012.978        2.867        0.842      200.875       46.584        0.054      349.705       30.326      863.382
07/27/2014  20:02:00     -164.673      184.667      -20.246      102.356       92.131       56.308    10476.806     8488.180     3170.644        4.188        1.107      247.425       53.201        0.046      349.737       30.382      863.384
07/27/2014  20:03:00     -165.536      225.872      -35.532      100.278       96.489       54.425    10055.632     9310.156     2962.090        5.100        1.116      280.037       54.728        0.038      349.814       30.515      863.408
07/27/2014  20:04:00     -166.008      191.162      -30.946       91.286       76.598       55.287     8333.163     5867.324     3056.661        4.115        0.863      253.183       50.049        0.039      349.779       30.453      863.419
07/27/2014  20:05:00     -161.891      171.766      -32.436       95.189       97.792       45.397     9060.967     9563.221     2060.932        3.872        1.034      236.035       40.881        0.030      349.716       30.344      863.424
07/27/2014  20:06:00      -81.160       57.021      -13.138       47.336       35.074       32.988     2240.730     1230.200     1088.234        0.728        0.228       99.189       27.574        0.077      349.670       30.268      863.419
07/27/2014  20:07:00     -137.628      137.569      -27.966       58.176       75.565       38.712     3384.458     5710.093     1498.581        2.462        0.530      194.593       28.341        0.021      349.749       30.403      863.431
07/27/2014  20:08:00     -130.381      173.770      -37.318       55.773       84.837       44.138     3110.662     7197.303     1948.134        3.042        0.613      217.245       32.682        0.023      349.773       30.444      863.422
07/27/2014  20:09:00     -167.007      133.119      -48.631       84.653       70.675       50.442     7166.071     4995.016     2544.425        3.134        0.735      213.569       42.367        0.039      349.779       30.453      863.422
07/27/2014  20:10:00     -132.613       71.925       -3.899       60.387       61.870       41.704     3646.646     3827.955     1739.198        1.599        0.461      150.862       35.314        0.055      349.738       30.387      863.418
07/27/2014  20:11:00     -173.488       55.945      -15.142      108.887       75.757       60.293    11856.272     5739.090     3635.201        2.734        1.062      182.286       67.800        0.138      349.720       30.352      863.432
07/27/2014  20:12:00     -109.015       76.907      -14.059       52.089       88.353       44.160     2713.254     7806.327     1950.070        1.523        0.623      133.412       38.085        0.081      349.715       30.348      863.436
07/27/2014  20:13:00     -143.351       99.681      -37.785       55.226      112.932       44.486     3049.877    12753.645     1979.041        2.484        0.889      174.602       49.947        0.082      349.738       30.386      863.445
07/27/2014  20:14:00     -165.189       -5.057      -27.012      106.649       91.718       48.646    11373.909     8412.272     2366.417        2.509        1.108      165.266       44.435        0.072      349.725       30.363      863.450
07/27/2014  20:15:00     -179.891      122.772      -41.473       89.679       76.149       50.091     8042.380     5798.687     2509.113        3.275        0.818      217.793       48.030        0.049      349.732       30.374      863.465
07/27/2014  20:16:00     -186.037       31.506      -20.844       74.031       64.123       47.383     5480.518     4111.716     2245.174        2.393        0.592      188.686       34.731        0.034      349.730       30.370      863.461
07/27/2014  20:17:00     -169.320       62.885      -15.052       76.054       75.835       42.317     5784.179     5750.917     1790.748        2.309        0.666      180.620       39.177        0.047      349.690       30.301      863.464
07/27/2014  20:18:00     -142.023       54.348      -25.881       57.552       85.277       39.625     3312.281     7272.088     1570.147        1.797        0.608      152.066       24.646        0.026      349.688       30.298      863.465
07/27/2014  20:19:00     -171.125       54.880      -26.034      121.277       73.692       61.822    14708.146     5430.573     3821.965        2.846        1.198      179.709       62.020        0.119      349.709       30.333      863.469
07/27/2014  20:20:00     -174.825       43.587      -23.439       60.465       70.210       41.902     3656.057     4929.377     1755.773        2.168        0.517      180.177       43.881        0.059      349.674       30.273      863.471
07/27/2014  20:21:00     -257.441      102.942      -36.964      100.484      107.844       58.827    10097.066    11630.227     3460.558        5.171        1.259      277.259       48.669        0.031      349.682       30.285      863.460
07/27/2014  20:22:00      -94.436       31.895       -1.554       91.850       95.202       46.842     8436.384     9063.399     2194.137        1.481        0.985       99.677       35.387        0.126      349.604       30.153      863.452
07/27/2014  20:23:00     -173.112       41.464      -12.650       90.766      106.182       54.209     8238.407    11274.577     2938.615        2.714        1.123      178.009       43.061        0.059      349.633       30.203      863.458
07/27/2014  20:24:00      -75.590      124.879      -10.195       60.029      118.865       49.144     3603.424    14128.855     2415.150        2.078        1.007      145.974       31.086        0.045      349.623       30.183      863.479
07/27/2014  20:25:00     -134.703       58.807      -16.575       70.134      109.647       62.627     4918.816    12022.443     3922.084        2.137        1.043      146.980       57.434        0.153      349.635       30.207      863.472
07/27/2014  20:26:00     -263.858      138.588      -45.282      124.846       83.800       53.264    15586.514     7022.436     2837.025        5.816        1.272      298.040       48.617        0.027      349.706       30.326      863.475
07/27/2014  20:27:00      -99.639      114.650        8.199       98.733      105.689       55.764     9748.235    11170.182     3109.633        2.358        1.201      151.896       59.278        0.152      349.616       30.173      863.484
07/27/2014  20:28:00     -116.062       43.285      -15.187       71.421       99.764       45.029     5100.967     9952.953     2027.620        1.632        0.854      123.871       39.764        0.103      349.661       30.251      863.492
07/27/2014  20:29:00     -154.020       63.451      -25.705       87.616       81.028       50.895     7676.476     6565.460     2590.261        2.262        0.842      166.578       55.135        0.110      349.678       30.280      863.506
07/27/2014  20:30:00     -111.396        7.883      -14.292       55.898       96.489       40.336     3124.613     9310.063     1626.982        1.337        0.703      111.674       28.680        0.066      349.652       30.236      863.505
07/27/2014  20:31:00     -129.032       37.906       -9.867      118.571       77.549       54.580    14059.074     6013.876     2979.005        2.061        1.153      134.484       60.289        0.201      349.611       30.164      863.521
07/27/2014  20:32:00      -97.027       64.453        3.313       82.217       71.847       47.740     6759.675     5161.954     2279.094        1.389        0.710      116.484       39.566        0.115      349.592       30.131      863.529
07/27/2014  20:33:00     -215.224      137.146      -26.219      112.480       90.936       52.829    12651.649     8269.434     2790.950        4.476        1.186      255.206       49.160        0.037      349.610       30.160      863.553
07/27/2014  20:34:00     -205.119       99.852      -22.787      118.110       73.574       65.597    13949.941     5413.120     4302.994        3.811        1.183      228.132       65.456        0.082      349.661       30.247      863.570
07/27/2014  20:35:00     -173.112       91.277      -21.084       79.468       74.076       46.557     6315.181     5487.302     2167.549        2.635        0.699      195.702       37.907        0.038      349.631       30.197      863.558
07/27/2014  20:36:00     -151.205       46.968      -18.730       81.460       65.022       47.582     6635.691     4227.906     2264.008        1.927        0.656      158.331       48.448        0.094      349.606       30.156      863.564
07/27/2014  20:37:00     -190.834       83.923      -32.791       87.141       79.567       47.651     7593.630     6330.937     2270.647        3.036        0.810      208.472       40.952        0.039      349.628       30.193      863.585
07/27/2014  20:38:00     -173.570       33.446      -32.946       99.050       96.443       54.578     9810.941     9301.282     2978.795        2.721        1.105      176.763       46.933        0.070      349.587       30.122      863.597
07/27/2014  20:39:00     -140.553       87.591      -28.188       57.086       83.856       50.098     3258.864     7031.761     2509.844        2.051        0.640      165.612       41.598        0.063      349.572       30.096      863.607
07/27/2014  20:40:00     -136.488        1.706       -8.490       62.642       82.346       34.938     3923.963     6780.782     1220.683        1.531        0.596      136.499       17.497        0.016      349.539       30.039      863.615
07/27/2014  20:41:00     -174.712       59.643      -23.475       79.031       83.512       34.942     6245.966     6974.291     1220.925        2.453        0.722      184.612       19.939        0.012      349.549       30.058      863.627
07/27/2014  20:42:00     -124.408       73.700      -26.526       64.410       69.454       37.852     4148.602     4823.824     1432.784        1.601        0.520      144.600       40.226        0.077      349.522       30.011      863.641
07/27/2014  20:43:00      -81.000      106.915      -14.280       41.216       38.597       30.497     1698.723     1489.736      930.051        1.116        0.206      134.133       20.558        0.023      349.521       30.010      863.654
07/27/2014  20:44:00     -108.355        4.625      -16.807       47.770       37.375       19.145     2281.932     1396.906      366.534        0.804        0.202      108.454       13.817        0.016      349.508       29.987      863.672
07/27/2014  20:45:00     -112.321       -0.289      -23.285       45.901       45.786       35.894     2106.892     2096.391     1288.377        0.932        0.275      112.322       18.660        0.028      349.490       29.957      863.695
07/27/2014  20:46:00     -132.035      -15.135      -21.430       62.128       72.877       28.696     3859.840     5311.085      823.478        1.406        0.500      132.899       24.086        0.033      349.479       29.936      863.721
07/27/2014  20:47:00     -117.400      -29.588       -9.204       70.192       61.929       35.973     4926.899     3835.262     1294.086        1.240        0.503      121.071       38.706        0.102      349.511       29.992      863.737
07/27/2014  20:48:00      -71.550        4.473       -5.773       45.057       38.739       20.212     2030.093     1500.726      408.541        0.456        0.197       71.690       14.066        0.038      349.325       29.669      863.749
07/27/2014  20:49:00       -5.205      -40.166        4.083       55.345       46.161       33.961     3063.111     2130.795     1153.373        0.400        0.317       40.502       22.458        0.307      349.218       29.486      863.768
07/27/2014  20:50:00      -48.884       -5.141       -6.054       56.873       35.183       31.926     3234.527     1237.856     1019.284        0.397        0.275       49.154       28.575        0.338      349.197       29.448      863.784
07/27/2014  20:51:00      -44.400      -37.461       -2.977       41.741       34.408       24.275     1742.343     1183.922      589.261        0.345        0.176       58.092       24.110        0.172      349.200       29.452      863.786
07/27/2014  20:52:00      -27.698      -15.688        7.761       57.553       40.849       27.617     3312.342     1668.621      762.717        0.341        0.287       31.832       16.577        0.271      349.171       29.403      863.800
07/27/2014  20:53:00     -119.160      -73.888        0.218       82.352       63.256       40.504     6781.817     4001.379     1640.577        1.604        0.621      140.209       43.577        0.097      349.174       29.407      863.819
07/27/2014  20:54:00     -197.698        8.163      -13.604       60.633       58.290       32.564     3676.340     3397.693     1060.389        2.373        0.407      197.867       29.249        0.022      349.198       29.448      863.821
07/27/2014  20:55:00     -259.471       -7.190      -24.945      136.849       75.285       49.380    18727.691     5667.799     2438.376        4.741        1.342      259.570       44.939        0.030      349.238       29.518      863.833
07/27/2014  20:56:00     -157.067      -46.708       -6.371       83.081       55.508       39.705     6902.531     3081.112     1576.481        1.922        0.578      163.865       46.572        0.081      349.170       29.400      863.835
07/27/2014  20:57:00     -125.672       14.135      -13.327       54.659      111.094       32.975     2987.657    12341.773     1087.341        1.629        0.821      126.464       36.090        0.081      349.164       29.391      863.853
07/27/2014  20:58:00      -94.382      -11.822       -9.949       52.948       47.241       33.284     2803.509     2231.712     1107.817        0.764        0.307       95.119       28.166        0.088      349.059       29.208      863.858
07/27/2014  20:59:00      -81.385      -40.874       -4.110       57.243       37.054       26.954     3276.791     1373.012      726.513        0.684        0.269       91.073       21.964        0.058      349.012       29.127      863.865
07/27/2014  21:00:00     -119.862       10.304      -12.794       77.427       38.065       27.783     5994.948     1448.942      771.878        1.142        0.411      120.304       29.330        0.059      349.092       29.264      863.854
07/27/2014  21:01:00      -31.849       -9.686        3.376       66.874       37.926       28.659     4472.123     1438.400      821.321        0.392        0.337       33.289       27.404        0.678      348.939       29.002      863.831
07/27/2014  21:02:00     -156.683      -88.898        1.635       78.456       42.969       39.210     6155.364     1846.370     1537.427        2.100        0.477      180.145       42.332        0.055      349.050       29.192      863.829
07/27/2014  21:03:00     -120.065        3.811      -10.832       53.465       47.763       27.757     2858.527     2281.350      770.473        1.023        0.296      120.125       28.057        0.055      349.042       29.179      863.884
07/27/2014  21:04:00      -79.817      -18.721        4.686       56.961       61.610       29.132     3244.609     3795.839      848.650        0.731        0.394       81.983       22.888        0.078      348.877       28.894      863.911
07/27/2014  21:05:00     -249.752       41.347      -25.971       97.845       89.240       55.742     9573.649     7963.806     3107.171        4.270        1.032      253.152       42.939        0.029      349.182       29.420      863.923
07/27/2014  21:06:00     -181.846        6.098      -18.634       95.786       92.595       50.156     9175.038     8573.878     2515.597        2.685        1.013      181.948       37.500        0.042      349.170       29.399      863.945
07/27/2014  21:07:00      -72.041       34.177        5.521       65.005       56.915       43.550     4225.621     3239.342     1896.608        0.787        0.468       79.737       33.475        0.176      349.139       29.348      863.965
07/27/2014  21:08:00      -89.542       23.403      -16.103       67.702       43.367       31.523     4583.560     1880.726      993.728        0.814        0.373       92.550       41.207        0.198      349.103       29.284      863.985
07/27/2014  21:09:00     -134.804       24.235      -12.574       49.203       62.405       31.885     2420.947     3894.369     1016.634        1.312        0.367      136.966       22.334        0.027      349.102       29.283      864.026
07/27/2014  21:10:00      -95.317       32.368      -11.610       62.820       70.473       34.982     3946.320     4966.513     1223.717        1.020        0.507      100.663       26.812        0.071      349.085       29.254      864.057
07/27/2014  21:11:00     -139.787       53.979      -11.283       57.577       63.056       38.765     3315.089     3976.093     1502.750        1.569        0.440      149.847       38.159        0.065      349.106       29.290      864.078
07/27/2014  21:12:00     -169.843      116.720      -25.011      102.851       77.063       30.665    10578.363     5938.745      940.346        3.027        0.873      206.083       33.126        0.026      349.125       29.322      864.116
07/27/2014  21:13:00      -92.193      139.224      -20.305       62.297       81.336       42.444     3880.917     6615.590     1801.478        2.029        0.615      166.981       47.659        0.081      349.028       29.152      864.151
07/27/2014  21:14:00     -152.028      171.718      -39.818       85.982       77.999       42.244     7392.873     6083.789     1784.532        3.472        0.763      229.346       51.612        0.051      349.036       29.167      864.175
07/27/2014  21:15:00     -142.026      221.323      -33.174       69.189      118.966       45.172     4787.185    14152.894     2040.534        4.561        1.049      262.974       36.695        0.019      349.048       29.188      864.199
07/27/2014  21:16:00     -175.909      176.191      -32.979       90.335       79.313       47.126     8160.476     6290.584     2220.901        3.987        0.834      248.973       45.337        0.033      349.038       29.169      864.221
07/27/2014  21:17:00     -180.556      240.289      -39.070      103.340       93.068       63.388    10679.242     8661.686     4018.048        5.761        1.168      300.566       67.384        0.050      349.062       29.209      864.227
07/27/2014  21:18:00     -133.201      236.002      -21.136       62.156       78.187       51.246     3863.375     6113.166     2626.156        4.324        0.630      270.997       41.080        0.023      348.988       29.079      864.237
07/27/2014  21:19:00     -153.434      168.769      -33.816       68.865       78.969       48.736     4742.450     6236.101     2375.202        3.326        0.668      228.089       48.852        0.046      349.011       29.122      864.237
07/27/2014  21:20:00     -156.716      178.098      -34.712      100.889       96.450       51.820    10178.527     9302.543     2685.280        3.982        1.108      237.231       43.823        0.034      348.992       29.090      864.237
07/27/2014  21:21:00     -203.948      226.638      -36.736      111.752      110.018       54.632    12488.537    12103.911     2984.638        6.094        1.379      304.893       63.006        0.043      349.012       29.123      864.239
07/27/2014  21:22:00     -240.078      211.933      -61.350       63.186      126.719       49.027     3992.423    16057.737     2403.603        6.438        1.123      320.239       33.880        0.011      349.066       29.217      864.252
07/27/2014  21:23:00     -148.693      121.119      -26.928       55.153       62.982       37.217     3041.809     3966.732     1385.090        2.295        0.420      191.780       30.080        0.025      348.973       29.057      864.265
07/27/2014  21:24:00      -67.055       45.846       -3.909       62.948       85.025       38.568     3962.477     7229.305     1487.504        0.964        0.634       81.229       32.237        0.158      348.843       28.834      864.273
07/27/2014  21:25:00     -176.692       49.619      -27.155      100.985      130.253       57.273    10197.985    16965.849     3280.213        3.243        1.522      183.526       57.901        0.100      348.932       28.985      864.305
07/27/2014  21:26:00     -177.042       63.867      -26.959      109.103      109.846       55.953    11903.364    12066.181     3130.793        3.162        1.355      188.209       64.388        0.117      348.895       28.922      864.322
07/27/2014  21:27:00     -143.928      -14.873       -6.524       78.528       90.723       34.670     6166.707     8230.656     1202.007        1.829        0.780      144.695       24.510        0.029      348.749       28.670      864.331
07/27/2014  21:28:00      -97.116      -16.406        0.466       49.738       55.440       22.677     2473.901     3073.556      514.255        0.788        0.303       98.492       20.291        0.042      348.704       28.595      864.335
07/27/2014  21:29:00      -10.926      -20.300       20.242       43.828       51.943       32.469     1920.868     2698.095     1054.223        0.331        0.284       23.053       25.370        1.211      348.602       28.418      864.354
07/27/2014  21:30:00     -132.655      -36.734       -6.282       84.842       47.165       32.842     7198.206     2224.544     1078.613        1.474        0.525      137.648       38.277        0.077      348.583       28.383      864.364
07/27/2014  21:31:00     -185.484      -50.825      -17.188       82.054       76.295       34.980     6732.932     5820.936     1223.591        2.553        0.689      192.321       34.791        0.033      348.556       28.335      864.375
07/27/2014  21:32:00     -129.857      -77.185        8.811       96.413       82.590       46.769     9295.423     6821.134     2187.301        2.060        0.915      151.064       53.139        0.124      348.426       28.111      864.414
07/27/2014  21:33:00     -126.258      -92.805       10.198       90.169       78.996       48.164     8130.439     6240.431     2319.739        2.067        0.835      156.697       48.771        0.097      348.397       28.062      864.439
07/27/2014  21:34:00     -145.903     -104.758        3.561      134.832       83.095       52.214    18179.702     6904.729     2726.284        3.004        1.391      179.616       61.093        0.116      348.319       27.927      864.444
07/27/2014  21:35:00     -188.472     -110.078       -3.877       91.941       79.618       50.348     8453.201     6339.054     2534.890        3.249        0.866      218.263       50.796        0.054      348.396       28.058      864.455
07/27/2014  21:36:00     -171.663     -105.271       -2.061       79.559       73.521       40.185     6329.654     5405.274     1614.811        2.695        0.667      201.371       39.957        0.039      348.438       28.130      864.477
07/27/2014  21:37:00     -168.554     -100.767       -0.572      100.424       77.034       47.808    10085.079     5934.275     2285.602        2.843        0.915      196.378       45.675        0.054      348.474       28.194      864.468
07/27/2014  21:38:00     -212.896     -100.129       -5.305       80.711       54.743       40.448     6514.278     2996.749     1636.067        3.326        0.557      235.267       34.198        0.021      348.553       28.331      864.484
07/27/2014  21:39:00     -195.988     -105.546       -2.470       75.252       67.416       40.985     5662.887     4544.870     1679.736        3.072        0.594      222.602       42.885        0.037      348.589       28.392      864.499
07/27/2014  21:40:00     -152.093      -75.934       -2.094       71.200       59.262       40.045     5069.487     3511.979     1603.569        1.954        0.509      169.995       30.652        0.033      348.581       28.380      864.504
07/27/2014  21:41:00     -205.328      -85.891        0.381       62.403       50.366       30.419     3894.110     2536.777      925.333        2.845        0.368      222.568       28.955        0.017      348.618       28.441      864.506
07/27/2014  21:42:00     -207.431      -51.473       -1.195       66.751       62.813       39.350     4455.640     3945.477     1548.401        2.781        0.497      213.722       40.474        0.036      348.525       28.281      864.515
07/27/2014  21:43:00     -169.693      -72.384       -7.661       90.332       97.187       44.195     8159.839     9445.252     1953.186        2.682        0.978      184.486       43.988        0.057      348.574       28.366      864.514
07/27/2014  21:44:00     -164.132      -53.712       -6.210       73.420       58.737       31.436     5390.499     3450.055      988.199        1.984        0.491      172.697       26.298        0.023      348.538       28.306      864.501
07/27/2014  21:45:00     -219.192      -65.613       -2.599       89.245       77.022       40.104     7964.673     5932.317     1608.359        3.393        0.775      228.802       42.121        0.034      348.466       28.179      864.509
07/27/2014  21:46:00     -190.707      -89.474       -0.865       68.562       82.557       44.810     4700.720     6815.663     2007.923        2.895        0.676      210.653       38.376        0.033      348.523       28.277      864.495
07/27/2014  21:47:00     -246.642     -135.604        9.370      121.374      106.758       65.443    14731.550    11397.185     4282.724        5.485        1.521      281.462       64.936        0.053      348.675       28.540      864.494
07/27/2014  21:48:00     -249.775     -181.898       -8.859      116.203      115.413       72.630    13503.028    13320.199     5275.069        6.382        1.605      308.990       58.937        0.036      348.820       28.792      864.485
07/27/2014  21:49:00     -334.782     -228.218      -16.922      122.814       95.385       58.535    15083.398     9098.241     3426.350        9.602        1.380      405.170       61.223        0.023      348.846       28.837      864.507
07/27/2014  21:50:00     -366.429     -203.653      -18.476      132.296      102.862       63.011    17502.345    10580.632     3970.438       10.406        1.603      419.219       64.287        0.024      348.764       28.695      864.522
07/27/2014  21:51:00     -273.475     -201.257        1.720      122.782      105.500       64.456    15075.507    11130.259     4154.612        7.282        1.518      339.548       53.821        0.025      348.770       28.705      864.507
07/27/2014  21:52:00     -293.883     -161.887       -0.048      119.850      100.619       63.345    14364.101    10124.104     4012.556        7.053        1.425      335.521       60.359        0.032      348.789       28.737      864.519
07/27/2014  21:53:00     -346.072     -205.438       -1.602      126.106      112.132       66.000    15902.731    12573.599     4356.042        9.740        1.642      402.456       64.383        0.026      348.656       28.507      864.523
07/27/2014  21:54:00     -355.612     -230.448        4.667      154.497      102.254       78.804    23869.275    10455.848     6210.014       11.005        2.027      423.752       77.443        0.033      348.732       28.640      864.526
07/27/2014  21:55:00     -301.248     -134.612      -14.367      142.859      115.994       67.496    20408.801    13454.554     4555.757        7.374        1.921      329.956       74.584        0.051      348.649       28.496      864.516
07/27/2014  21:56:00     -264.849     -197.986       -1.740      102.454       80.874       57.008    10496.747     6540.639     3249.918        6.481        1.014      330.672       59.879        0.033      348.531       28.291      864.510
07/27/2014  21:57:00     -343.432     -206.274       -6.688      129.098      119.702       62.907    16666.231    14328.575     3957.332        9.774        1.748      400.618       62.677        0.024      348.450       28.151      864.515
07/27/2014  21:58:00     -336.208     -140.849        0.476      203.729      108.762       73.141    41505.560    11829.183     5349.670        9.577        2.934      364.519       82.855        0.052      348.466       28.179      864.501
07/27/2014  21:59:00     -337.250     -167.601       -8.861      146.737      130.834       76.160    21531.718    17117.445     5800.343        9.317        2.222      376.600       74.980        0.040      348.519       28.272      864.496
07/27/2014  22:00:00     -325.038     -174.453        4.424      191.815      145.370       74.137    36793.101    21132.297     5496.255        9.975        3.171      368.895       81.541        0.049      348.545       28.315      864.497
07/27/2014  22:01:00     -336.560     -167.631       -5.513      203.521      130.942       80.040    41420.709    17145.894     6406.358       10.317        3.249      375.996       91.155        0.059      348.520       28.273      864.507
07/27/2014  22:02:00     -377.963     -212.078      -11.188      162.895      146.871       75.411    26534.697    21571.075     5686.891       12.086        2.690      433.397       78.477        0.033      348.533       28.294      864.497
07/27/2014  22:03:00     -244.907     -168.771       -8.954      141.939      148.038       71.497    20146.591    21915.137     5111.760        6.785        2.359      297.427       80.464        0.073      348.504       28.246      864.505
07/27/2014  22:04:00     -231.129      -68.842      -14.039      108.509       79.726       49.147    11774.186     6356.303     2415.391        3.945        1.027      241.163       48.501        0.040      348.436       28.128      864.506
07/27/2014  22:05:00     -190.044      -92.166       -3.575      127.456       91.586       62.095    16245.057     8387.970     3855.759        3.655        1.424      211.213       56.544        0.072      348.405       28.074      864.519
07/27/2014  22:06:00     -275.509     -169.005      -12.065      148.218      111.402       60.744    21968.683    12410.312     3689.894        7.133        1.903      323.215       74.812        0.054      348.445       28.144      864.508
07/27/2014  22:07:00     -248.799     -139.985       -0.060      156.095       99.732       60.005    24365.772     9946.490     3600.603        5.970        1.896      285.477       73.314        0.066      348.443       28.140      864.521
07/27/2014  22:08:00     -253.072     -108.414      -11.469      131.753       96.404       54.856    17358.922     9293.676     3009.187        5.279        1.483      275.316       63.842        0.054      348.439       28.133      864.530
07/27/2014  22:09:00     -176.327      -40.810       19.055      124.792      101.321       62.975    15572.942    10265.898     3965.867        3.146        1.490      180.988       66.603        0.135      348.358       27.994      864.571
07/27/2014  22:10:00     -334.821     -104.825      -17.753      128.506       84.994       55.677    16513.790     7224.044     3099.960        7.512        1.342      350.847       64.190        0.033      348.442       28.139      864.588
07/27/2014  22:11:00     -214.395      -56.238       10.313      118.869       88.192       54.633    14129.754     7777.851     2984.809        3.706        1.245      221.648       56.295        0.065      348.297       27.888      864.598
07/27/2014  22:12:00     -220.299     -133.360        2.268      104.264      107.963       54.986    10870.959    11655.965     3023.468        4.593        1.278      257.520       56.731        0.049      348.311       27.909      864.598
07/27/2014  22:13:00     -207.310     -126.783       -1.204      123.569       89.584       52.729    15269.397     8025.362     2780.354        4.256        1.304      243.005       56.891        0.055      348.328       27.939      864.605
07/27/2014  22:14:00     -247.582     -152.832       -1.132      132.333       95.997       60.715    17511.943     9215.350     3686.324        5.753        1.521      290.955       64.813        0.050      348.357       27.989      864.607
07/27/2014  22:15:00     -160.303      -83.835        9.018      144.185      133.633       65.085    20789.172    17857.794     4236.066        3.784        2.144      180.901       71.341        0.156      348.300       27.892      864.616
07/27/2014  22:16:00     -239.115     -110.597       14.531      144.599      113.981       59.022    20908.873    12991.596     3483.559        5.349        1.869      263.453       77.442        0.086      348.272       27.843      864.629
07/27/2014  22:17:00     -252.094      -54.470        6.872      164.047       92.525       66.316    26911.420     8560.845     4397.840        5.321        1.994      257.911       71.915        0.078      348.256       27.816      864.636
07/27/2014  22:18:00     -114.078      -73.648       17.879      135.391      116.704       82.535    18330.637    13619.821     6812.092        2.875        1.938      135.786       81.898        0.364      348.243       27.794      864.622
07/27/2014  22:19:00     -282.741     -121.805        3.102      173.939      103.236       58.904    30254.793    10657.717     3469.681        6.958        2.219      307.862       74.895        0.059      348.328       27.940      864.628
07/27/2014  22:20:00     -201.094      -98.395       -1.062      105.943       73.340       48.072    11223.985     5378.750     2310.878        3.451        0.946      223.876       50.585        0.051      348.294       27.882      864.653
07/27/2014  22:21:00     -298.298     -142.065       -8.646      104.954       95.232       54.307    11015.242     9069.222     2949.202        6.613        1.152      330.400       59.351        0.032      348.325       27.934      864.653
07/27/2014  22:22:00     -205.733      -98.327       -0.678      108.586       84.392       42.106    11790.813     7121.984     1772.874        3.634        1.034      228.022       51.501        0.051      348.264       27.828      864.668
07/27/2014  22:23:00     -185.990     -110.061      -13.411       96.827       65.783       44.240     9375.461     4327.465     1957.159        3.127        0.783      216.115       44.149        0.042      348.279       27.855      864.682
07/27/2014  22:24:00      -93.770      -41.944       11.821       91.055       69.714       44.741     8290.930     4860.025     2001.738        1.292        0.758      102.723       44.529        0.188      348.166       27.662      864.692
07/27/2014  22:25:00     -108.745      -38.819       22.013      109.313       90.876       52.689    11949.419     8258.507     2776.170        1.840        1.149      115.466       60.272        0.272      348.168       27.666      864.685
07/27/2014  22:26:00      -89.734      -12.364       14.362       95.876       55.614       47.708     9192.118     3092.902     2276.071        1.148        0.728       90.582       56.995        0.396      348.054       27.469      864.690
07/27/2014  22:27:00     -235.439      -58.935       -2.920      144.731      114.921       65.447    20947.097    13206.755     4283.362        4.867        1.922      242.703       77.544        0.102      348.173       27.672      864.701
07/27/2014  22:28:00     -246.965      -55.359      -13.222      115.689       88.552       52.462    13383.982     7841.537     2752.299        4.410        1.199      253.093       55.650        0.048      348.236       27.780      864.688
07/27/2014  22:29:00     -278.742      -61.185      -27.537      104.214      106.972       55.759    10860.473    11442.982     3109.103        5.380        1.271      285.378       39.508        0.019      348.204       27.727      864.690
07/27/2014  22:30:00     -138.671      -85.853       -3.023      119.854       60.988       43.338    14364.998     3719.518     1878.177        2.328        0.998      163.097       47.435        0.085      348.185       27.696      864.692
07/27/2014  22:31:00     -263.073     -123.169       -7.735      109.010       92.725       45.471    11883.161     8597.841     2067.572        5.349        1.127      290.479       46.638        0.026      348.220       27.752      864.691
07/27/2014  22:32:00     -366.794      -68.873      -20.469      135.555      114.198       61.906    18375.248    13041.221     3832.368        8.747        1.762      373.204       47.544        0.016      348.215       27.744      864.669
07/27/2014  22:33:00     -133.248      -98.168       -1.700      106.924       88.934       46.794    11432.711     7909.312     2189.649        2.446        1.077      165.506       50.299        0.092      348.118       27.578      864.665
07/27/2014  22:34:00     -245.582      -37.373       -7.975      108.072       81.762       45.999    11679.642     6684.992     2115.897        4.112        1.024      248.409       52.263        0.044      348.159       27.648      864.658
07/27/2014  22:35:00     -163.110      -68.494        5.711       89.798       82.592       48.519     8063.690     6821.494     2354.071        2.428        0.862      176.907       46.619        0.069      348.077       27.508      864.648
07/27/2014  22:36:00     -306.213      -85.840       -9.310      161.610       77.544       54.716    26117.921     6013.143     2993.880        6.817        1.756      318.017       65.539        0.042      348.139       27.613      864.640
07/27/2014  22:37:00     -280.368       11.663      -10.313      117.186       80.297       47.118    13732.619     6447.682     2220.132        5.062        1.120      280.610       42.210        0.023      348.149       27.630      864.633
07/27/2014  22:38:00     -366.983      -74.266      -18.054      159.426       86.726       66.192    25416.651     7521.422     4381.370        8.891        1.866      374.422       76.291        0.042      348.176       27.679      864.626
07/27/2014  22:39:00     -272.288      -34.435      -13.365      114.499       73.385       50.386    13110.096     5385.363     2538.728        4.827        1.052      274.457       61.723        0.051      348.146       27.625      864.638
07/27/2014  22:40:00     -326.341      -10.687      -16.756      148.575       90.634       56.421    22074.482     8214.542     3183.359        7.018        1.674      326.516       63.819        0.038      348.147       27.629      864.634
07/27/2014  22:41:00     -233.885     -119.911       -8.365      111.310      115.821       59.908    12389.991    13414.532     3589.021        4.927        1.470      262.833       54.415        0.043      348.155       27.642      864.631
07/27/2014  22:42:00     -224.735      -81.961      -11.600       77.581       67.788       41.673     6018.829     4595.238     1736.657        3.485        0.618      239.214       37.075        0.024      348.102       27.549      864.637
07/27/2014  22:43:00      -63.819       -0.345        8.577       80.840       70.656       42.196     6535.135     4992.329     1780.535        0.872        0.665       63.819       42.264        0.439      347.993       27.365      864.651
07/27/2014  22:44:00     -174.723      -77.158       -5.526      115.019      112.860       52.741    13229.418    12737.439     2781.587        3.262        1.437      191.001       50.818        0.071      348.088       27.526      864.653
07/27/2014  22:45:00     -212.092      -66.497      -19.522      117.273       84.163       45.496    13752.842     7083.358     2069.901        3.634        1.145      222.272       54.607        0.060      348.169       27.668      864.646
07/27/2014  22:46:00     -278.438      -96.644      -11.837      113.575      102.799       53.052    12899.352    10567.658     2814.494        5.664        1.314      294.733       45.746        0.024      348.124       27.587      864.654
07/27/2014  22:47:00     -302.290       19.001      -37.601      135.387       94.086       52.430    18329.505     8852.124     2748.870        6.154        1.497      302.886       53.667        0.031      348.182       27.687      864.674
07/27/2014  22:48:00     -245.100      -89.599       -9.151       94.134      101.539       61.887     8861.200    10310.121     3830.013        4.559        1.150      260.963       47.204        0.033      348.177       27.678      864.681
07/27/2014  22:49:00     -225.292       -7.481      -17.220      109.670       64.836       42.179    12027.436     4203.714     1779.045        3.456        0.901      225.416       45.337        0.040      348.154       27.642      864.694
07/27/2014  22:50:00     -178.012      -31.307       -4.570       82.135       83.745       40.205     6746.132     7013.267     1616.469        2.403        0.769      180.744       37.618        0.043      348.159       27.648      864.706
07/27/2014  22:51:00       -9.719       23.931        3.310       58.313       40.383       27.352     3400.405     1630.827      748.150        0.323        0.289       25.829       29.538        1.308      348.126       27.595      864.728
07/27/2014  22:52:00      -55.273       50.194       -1.374       52.117       38.629       28.238     2716.182     1492.190      797.408        0.529        0.250       74.663       29.896        0.160      348.026       27.421      864.745
07/27/2014  22:53:00      -62.731       76.392       -5.721       27.756       39.177       26.307      770.380     1534.858      692.084        0.640        0.150       98.848       20.161        0.042      347.987       27.355      864.753
07/27/2014  22:54:00      -33.696       80.041      -13.843       37.661       38.208       17.032     1418.315     1459.885      290.078        0.545        0.158       86.845       15.614        0.032      347.968       27.323      864.759
07/27/2014  22:55:00      -25.460      122.540      -19.953       31.515       34.861       16.500      993.168     1215.299      272.248        0.927        0.124      125.157       11.711        0.009      347.926       27.249      864.767
07/27/2014  22:56:00      -52.432      106.774      -14.820       24.689       50.515       21.394      609.567     2551.756      457.704        0.899        0.181      118.953       25.802        0.047      347.955       27.300      864.780
07/27/2014  22:57:00      -38.569       66.993      -17.416       28.892       23.099       12.071      834.738      533.542      145.710        0.390        0.076       77.303       10.016        0.017      347.885       27.177      864.779
07/27/2014  22:58:00      -31.580       65.446      -15.673       19.510       22.022       11.309      380.651      484.973      127.898        0.326        0.050       72.667        8.378        0.013      347.864       27.143      864.796
07/27/2014  22:59:00      -10.867       79.112      -14.039       18.720       14.038        9.911      350.444      197.070       98.223        0.361        0.032       79.855        6.417        0.006      347.837       27.096      864.800
07/27/2014  23:00:00       -0.706       96.592      -19.846       28.180       25.946       13.486      794.086      673.171      181.884        0.569        0.082       96.595       10.633        0.012      348.013       27.396      864.798
07/27/2014  23:01:00      -51.922       86.480      -15.583       34.799       49.805       16.068     1210.951     2480.545      258.173        0.718        0.197      100.869       19.420        0.037      348.000       27.376      864.816
07/27/2014  23:02:00      -39.018       65.356      -10.681       26.259       45.986       18.369      689.517     2114.694      337.422        0.452        0.157       76.117       20.583        0.073      347.908       27.219      864.834
07/27/2014  23:03:00      -79.472       81.537      -22.137       46.924       57.227       22.499     2201.816     3274.899      506.192        0.972        0.299      113.860       29.837        0.069      347.950       27.290      864.851
07/27/2014  23:04:00      -83.859       54.231      -19.394       44.350       73.313       26.283     1966.961     5374.769      690.771        0.919        0.402       99.867       23.436        0.055      348.003       27.381      864.856
07/27/2014  23:05:00      -88.380       -3.494       -7.058       57.163       94.637       37.433     3267.586     8956.183     1401.267        1.075        0.681       88.449       38.202        0.187      348.007       27.390      864.866
07/27/2014  23:06:00     -106.354       46.338      -16.920       75.905       49.767       32.254     5761.628     2476.746     1040.326        1.151        0.464      116.010       38.607        0.111      348.047       27.457      864.860
07/27/2014  23:07:00     -136.090       98.675      -19.270       42.761       50.371       30.215     1828.484     2537.248      912.954        1.695        0.264      168.099       22.576        0.018      348.108       27.562      864.869
07/27/2014  23:08:00     -157.661       26.285      -19.219       49.368       88.021       42.101     2437.227     7747.717     1772.479        1.893        0.598      159.837       42.700        0.071      348.065       27.487      864.884
07/27/2014  23:09:00     -139.609      173.558      -34.283       66.126       77.778       44.648     4372.639     6049.435     1993.436        3.160        0.621      222.740       49.096        0.049      348.061       27.480      864.880
07/27/2014  23:10:00      -63.981      243.087      -34.085       45.791       90.113       38.681     2096.792     8120.437     1496.226        3.803        0.586      251.365       45.547        0.033      348.021       27.411      864.880
07/27/2014  23:11:00        1.870      258.678      -39.971       69.837       82.905       32.545     4877.274     6873.220     1059.171        4.066        0.640      258.685       38.788        0.022      348.062       27.479      864.858
07/27/2014  23:12:00       -9.128      196.114      -26.983       43.531       57.118       31.532     1894.982     3262.484      994.257        2.271        0.308      196.326       26.876        0.019      348.103       27.554      864.867
07/27/2014  23:13:00      -50.838      240.015      -34.258       52.063       89.792       35.249     2710.542     8062.548     1242.517        3.669        0.601      245.340       44.758        0.033      348.163       27.655      864.897
07/27/2014  23:14:00     -151.686      199.915      -35.050       96.023       83.152       48.566     9220.441     6914.259     2358.630        4.134        0.925      250.947       52.676        0.044      348.297       27.887      864.922
07/27/2014  23:15:00     -105.728      123.495      -31.218       51.122       58.572       26.773     2613.484     3430.625      716.794        1.708        0.338      162.571       24.714        0.023      348.386       28.043      864.917
07/27/2014  23:16:00     -149.307      187.869      -24.618       68.656       87.205       54.406     4713.604     7604.707     2959.998        3.673        0.764      239.974       46.429        0.037      348.298       27.891      864.931
07/27/2014  23:17:00     -139.502       59.005      -31.724       52.042       49.214       25.909     2708.348     2421.992      671.280        1.487        0.290      151.468       23.577        0.024      348.270       27.843      864.939
07/27/2014  23:18:00      -97.010       83.681      -15.171       58.458       61.915       36.256     3417.295     3833.525     1314.517        1.260        0.428      128.115       30.692        0.057      348.284       27.867      864.945
07/27/2014  23:19:00      -83.794       56.192      -13.421       44.535       52.509       27.828     1983.410     2757.206      774.407        0.794        0.276      100.890       20.981        0.043      348.230       27.775      864.940
07/27/2014  23:20:00     -122.092       68.771      -12.799       63.797       49.752       37.334     4070.010     2475.248     1393.813        1.387        0.397      140.129       34.225        0.060      348.260       27.825      864.950
07/27/2014  23:21:00     -181.417       57.190      -32.989       97.982       70.325       45.481     9600.569     4945.668     2068.484        2.694        0.831      190.218       49.447        0.068      348.298       27.889      864.942
07/27/2014  23:22:00     -117.602       49.597      -12.335       71.509       84.196       43.389     5113.547     7088.892     1882.624        1.526        0.704      127.632       43.714        0.117      348.279       27.856      864.935
07/27/2014  23:23:00     -130.234       60.077       -6.438       66.842       62.789       32.730     4467.911     3942.510     1071.282        1.504        0.474      143.423       29.549        0.042      348.272       27.846      864.958
07/27/2014  23:24:00      -86.535      134.310      -12.774       63.536       98.441       44.252     4036.795     9690.564     1958.232        2.068        0.784      159.773       41.071        0.066      348.220       27.755      864.970
07/27/2014  23:25:00     -107.636      133.135      -18.245       45.390       72.742       36.548     2060.296     5291.417     1335.758        1.916        0.434      171.203       27.177        0.025      348.203       27.724      864.979
07/27/2014  23:26:00      -47.633      173.285      -28.896       37.514       57.655       34.047     1407.305     3324.054     1159.193        1.951        0.295      179.713       34.833        0.038      348.135       27.608      864.979
07/27/2014  23:27:00      -80.598      122.453      -18.819       54.988       52.351       31.895     3023.687     2740.593     1017.317        1.431        0.339      146.597       20.955        0.020      347.965       27.315      864.986
07/27/2014  23:28:00     -126.228      149.366      -34.144       48.273       42.260       26.821     2330.321     1785.926      719.343        2.212        0.242      195.560       19.601        0.010      347.949       27.287      864.989
07/27/2014  23:29:00     -109.193      110.345      -32.649       47.007       57.243       31.599     2209.641     3276.746      998.526        1.582        0.324      155.239       33.304        0.046      347.885       27.177      865.006
07/27/2014  23:30:00     -122.131       90.536      -32.857       26.863       53.310       28.846      721.620     2841.983      832.079        1.429        0.220      152.029       31.269        0.042      347.879       27.170      865.011
07/27/2014  23:31:00      -91.992       89.679      -20.760       37.081       59.502       29.474     1375.024     3540.526      868.735        1.136        0.289      128.472       35.939        0.078      347.803       27.035      865.017
07/27/2014  23:32:00     -139.594      135.276      -29.237       80.509       66.260       40.320     6481.671     4390.404     1625.717        2.557        0.625      194.387       47.434        0.060      347.726       26.903      865.002
07/27/2014  23:33:00     -150.872      122.521      -30.346       51.066       69.669       36.356     2607.775     4853.803     1321.731        2.374        0.439      194.355       39.259        0.041      347.713       26.879      864.994
07/27/2014  23:34:00     -101.966      160.088      -29.558       42.383       51.280       26.450     1796.334     2629.623      699.602        2.101        0.256      189.803       24.969        0.017      347.716       26.885      864.992
07/27/2014  23:35:00     -102.787       84.026      -26.686       27.179       58.581       24.125      738.694     3431.708      582.028        1.154        0.238      132.761       26.644        0.040      347.759       26.961      864.987
07/27/2014  23:36:00     -112.017       -3.639       -9.203       45.256       43.907       22.631     2048.100     1927.851      512.177        0.857        0.224      112.076       17.686        0.025      347.660       26.791      865.003
07/27/2014  23:37:00     -150.564      108.491      -34.489       56.819       43.072       28.205     3228.433     1855.195      795.494        2.075        0.294      185.579       22.754        0.015      347.750       26.944      865.017
07/27/2014  23:38:00     -137.342       50.739      -24.170       91.020       59.188       35.432     8284.621     3503.275     1255.458        1.753        0.652      146.415       37.206        0.065      347.790       27.012      865.013
07/27/2014  23:39:00     -164.712        8.144      -22.030       65.033       63.920       31.975     4229.251     4085.703     1022.377        1.851        0.467      164.913       30.462        0.034      347.712       26.878      865.014
07/27/2014  23:40:00      -82.123       71.220       -8.604       44.666       51.875       27.953     1995.030     2691.064      781.381        0.868        0.273      108.704       27.023        0.062      347.571       26.637      865.022
07/27/2014  23:41:00     -104.473      146.284      -25.065       55.083       58.587       29.196     3034.168     3432.394      852.410        2.013        0.366      179.760       33.036        0.034      347.713       26.880      865.011
07/27/2014  23:42:00     -148.726      115.419      -25.138       67.927       79.982       42.359     4614.033     6397.043     1794.287        2.444        0.640      188.258       47.218        0.063      347.717       26.887      865.026
07/27/2014  23:43:00      -94.129       58.040      -13.745       48.123       29.029       21.715     2315.856      842.665      471.540        0.802        0.182      110.584        6.532        0.003      347.613       26.709      865.037
07/27/2014  23:44:00     -113.881      -15.404       -8.134       35.912       45.231       19.715     1289.678     2045.868      388.700        0.850        0.186      114.918       17.788        0.024      347.565       26.626      865.053
07/27/2014  23:45:00      -88.127        6.251       -0.015       37.763       34.212       24.434     1426.023     1170.444      597.023        0.550        0.160       88.348       17.370        0.039      347.513       26.537      865.054
07/27/2014  23:46:00      -88.641        7.644      -10.154       30.764       36.950       20.298      946.439     1365.312      411.995        0.537        0.136       88.970       16.413        0.034      347.402       26.345      865.061
07/27/2014  23:47:00      -83.300       27.252       -0.632       37.969       38.668       22.614     1441.676     1495.185      511.405        0.556        0.172       87.644       17.233        0.039      347.375       26.298      865.052
07/27/2014  23:48:00     -136.640       40.715      -14.626       35.602       40.984       22.128     1267.528     1679.699      489.629        1.199        0.172      142.577       10.139        0.005      347.359       26.272      865.060
07/27/2014  23:49:00      -92.721        1.095        0.978       97.761       62.344       49.562     9557.241     3886.791     2456.400        1.225        0.795       92.727       68.025        0.538      347.354       26.262      865.058
07/27/2014  23:50:00     -121.144      -55.483       -3.490       70.638       41.899       25.295     4989.693     1755.565      639.814        1.257        0.369      133.245       32.853        0.061      347.208       26.009      865.059
07/27/2014  23:51:00     -122.910       -1.812       -7.948       52.278       49.831       20.390     2732.938     2483.133      415.754        1.040        0.282      122.923       12.319        0.010      347.195       25.987      865.043
07/27/2014  23:52:00     -109.311       80.647      -11.423       64.679       67.740       27.923     4183.324     4588.708      779.698        1.407        0.478      135.841       30.848        0.052      347.889       27.184      865.013
07/27/2014  23:53:00     -125.546       -0.836      -13.334       44.181       30.436       19.180     1951.998      926.345      367.864        0.959        0.162      125.548       18.922        0.023      347.193       25.986      865.025
07/27/2014  23:54:00      -69.677       12.307       -9.675       30.457       23.995       21.432      927.650      575.780      459.345        0.353        0.098       70.756       14.394        0.041      347.251       26.085      865.027
07/27/2014  23:55:00      -55.009      -10.526       -7.377       28.460       23.380       15.327      809.961      546.623      234.927        0.239        0.080       56.007        8.329        0.022      347.238       26.061      865.032
07/27/2014  23:56:00      -78.182       15.806       -1.511       25.996       31.455       23.342      675.777      989.436      544.844        0.429        0.111       79.764       12.906        0.026      347.170       25.945      865.036
07/27/2014  23:57:00      -55.084       43.426       -8.684       25.395       48.243       20.564      644.924     2327.394      422.891        0.419        0.170       70.143       17.512        0.062      347.143       25.899      865.028
07/27/2014  23:58:00     -123.412       68.304      -12.146       32.630       48.326       22.887     1064.742     2335.412      523.812        1.198        0.196      141.054       21.466        0.023      347.262       26.103      865.027
07/27/2014  23:59:00      -92.804       12.938      -16.068       28.694       26.710       17.652      823.346      713.427      311.609        0.544        0.092       93.702       12.430        0.018      347.175       25.956      865.037
